<?xml version='1.0' encoding='UTF-8'?><gpx version="1.1" creator="JPX - https://github.com/jenetics/jpx" xmlns="http://www.topografix.com/GPX/1/1"><trk><trkseg><trkpt lat="44.17280947520304" lon="11.338801020279298"><ele>960.9999999999999</ele><time>2026-04-10T13:01:21Z</time></trkpt><trkpt lat="44.17287538988978" lon="11.33879385436978"><ele>961.0</ele><time>2026-04-10T13:01:30Z</time></trkpt><trkpt lat="44.172937085453064" lon="11.338771109657415"><ele>961.0</ele><time>2026-04-10T13:05:38Z</time></trkpt><trkpt lat="44.172970094368026" lon="11.338636365867908"><ele>961.0</ele><time>2026-04-10T13:05:41Z</time></trkpt><trkpt lat="44.1729376830741" lon="11.338534134256042"><ele>960.9999999999999</ele><time>2026-04-10T13:05:43Z</time></trkpt><trkpt lat="44.172865595975466" lon="11.338441829341388"><ele>961.0</ele><time>2026-04-10T13:06:03Z</time></trkpt><trkpt lat="44.17281311789074" lon="11.338372909096995"><ele>961.0</ele><time>2026-04-10T13:06:04Z</time></trkpt><trkpt lat="44.172741642311934" lon="11.338291222082075"><ele>960.9999999999999</ele><time>2026-04-10T13:06:05Z</time></trkpt><trkpt lat="44.17266433125788" lon="11.338211130755056"><ele>960.9999999999999</ele><time>2026-04-10T13:06:06Z</time></trkpt><trkpt lat="44.172589838894005" lon="11.338107864739598"><ele>961.0</ele><time>2026-04-10T13:06:07Z</time></trkpt><trkpt lat="44.172532701662405" lon="11.33796760032387"><ele>961.0</ele><time>2026-04-10T13:06:08Z</time></trkpt><trkpt lat="44.17248072301618" lon="11.33780863025801"><ele>961.0</ele><time>2026-04-10T13:06:09Z</time></trkpt><trkpt lat="44.17241997972855" lon="11.337656005921728"><ele>961.0</ele><time>2026-04-10T13:06:10Z</time></trkpt><trkpt lat="44.17235561698663" lon="11.337508352163898"><ele>961.0</ele><time>2026-04-10T13:06:11Z</time></trkpt><trkpt lat="44.17229390982279" lon="11.337362923222853"><ele>961.0</ele><time>2026-04-10T13:06:12Z</time></trkpt><trkpt lat="44.17225620322862" lon="11.337197857901055"><ele>955.25</ele><time>2026-04-10T13:06:13Z</time></trkpt><trkpt lat="44.1722633745277" lon="11.337004709976693"><ele>949.5</ele><time>2026-04-10T13:06:14Z</time></trkpt><trkpt lat="44.17224297778318" lon="11.33681353220177"><ele>943.75</ele><time>2026-04-10T13:06:15Z</time></trkpt><trkpt lat="44.17222441769695" lon="11.336631673000142"><ele>938.0</ele><time>2026-04-10T13:06:16Z</time></trkpt><trkpt lat="44.172179550233814" lon="11.336456309455063"><ele>938.6666666666667</ele><time>2026-04-10T13:06:17Z</time></trkpt><trkpt lat="44.17211346758164" lon="11.336283057672553"><ele>939.3333333333333</ele><time>2026-04-10T13:06:18Z</time></trkpt><trkpt lat="44.17203192091799" lon="11.336104198554548"><ele>940.0</ele><time>2026-04-10T13:06:19Z</time></trkpt><trkpt lat="44.17194238330409" lon="11.335913223200578"><ele>940.0</ele><time>2026-04-10T13:06:20Z</time></trkpt><trkpt lat="44.17185701914134" lon="11.33571358655505"><ele>940.0</ele><time>2026-04-10T13:06:21Z</time></trkpt><trkpt lat="44.17177887338761" lon="11.33551486891493"><ele>940.0</ele><time>2026-04-10T13:06:22Z</time></trkpt><trkpt lat="44.1716991270279" lon="11.335321158573826"><ele>940.3333333333333</ele><time>2026-04-10T13:06:23Z</time></trkpt><trkpt lat="44.17161052697535" lon="11.335132307747765"><ele>940.6666666666667</ele><time>2026-04-10T13:06:24Z</time></trkpt><trkpt lat="44.17151632424434" lon="11.334950376388734"><ele>941.0</ele><time>2026-04-10T13:06:25Z</time></trkpt><trkpt lat="44.171415321093484" lon="11.334781553339798"><ele>935.6666666666667</ele><time>2026-04-10T13:06:26Z</time></trkpt><trkpt lat="44.17130656462605" lon="11.334615227084855"><ele>930.3333333333333</ele><time>2026-04-10T13:06:27Z</time></trkpt><trkpt lat="44.171203019111374" lon="11.33445448054188"><ele>925.0</ele><time>2026-04-10T13:06:28Z</time></trkpt><trkpt lat="44.17110156225027" lon="11.33429874334751"><ele>925.0</ele><time>2026-04-10T13:06:29Z</time></trkpt><trkpt lat="44.17101539349584" lon="11.334141104719782"><ele>925.0</ele><time>2026-04-10T13:06:30Z</time></trkpt><trkpt lat="44.17094492316198" lon="11.333962956618135"><ele>925.0</ele><time>2026-04-10T13:06:31Z</time></trkpt><trkpt lat="44.17090602950853" lon="11.33376483637001"><ele>925.0</ele><time>2026-04-10T13:06:32Z</time></trkpt><trkpt lat="44.170886697184685" lon="11.333551634157995"><ele>925.25</ele><time>2026-04-10T13:06:33Z</time></trkpt><trkpt lat="44.17086982715916" lon="11.333336927384192"><ele>925.5</ele><time>2026-04-10T13:06:34Z</time></trkpt><trkpt lat="44.1708410726653" lon="11.333135097405227"><ele>925.75</ele><time>2026-04-10T13:06:35Z</time></trkpt><trkpt lat="44.170795382098625" lon="11.332950139966428"><ele>926.0</ele><time>2026-04-10T13:06:36Z</time></trkpt><trkpt lat="44.170743845510266" lon="11.33278519814887"><ele>925.75</ele><time>2026-04-10T13:06:37Z</time></trkpt><trkpt lat="44.170677106346034" lon="11.332639900893115"><ele>925.5</ele><time>2026-04-10T13:06:38Z</time></trkpt><trkpt lat="44.17058210407774" lon="11.332531128732368"><ele>925.25</ele><time>2026-04-10T13:06:39Z</time></trkpt><trkpt lat="44.17045815398893" lon="11.332486617953077"><ele>925.0</ele><time>2026-04-10T13:06:40Z</time></trkpt><trkpt lat="44.17032185077302" lon="11.332492544734626"><ele>925.0</ele><time>2026-04-10T13:06:41Z</time></trkpt><trkpt lat="44.170168325821926" lon="11.33253947569974"><ele>925.0</ele><time>2026-04-10T13:06:42Z</time></trkpt><trkpt lat="44.17000202817093" lon="11.332617658420725"><ele>925.0</ele><time>2026-04-10T13:06:43Z</time></trkpt><trkpt lat="44.16982999729916" lon="11.332693983518858"><ele>922.6666666666666</ele><time>2026-04-10T13:06:44Z</time></trkpt><trkpt lat="44.16965996975924" lon="11.332778541164323"><ele>920.3333333333333</ele><time>2026-04-10T13:06:45Z</time></trkpt><trkpt lat="44.16949973876433" lon="11.332849470323183"><ele>918.0</ele><time>2026-04-10T13:06:46Z</time></trkpt><trkpt lat="44.16933896760926" lon="11.332906001980305"><ele>918.0</ele><time>2026-04-10T13:06:47Z</time></trkpt><trkpt lat="44.16917699131922" lon="11.332890429471403"><ele>918.0</ele><time>2026-04-10T13:06:48Z</time></trkpt><trkpt lat="44.16901286832705" lon="11.332854871721215"><ele>918.0</ele><time>2026-04-10T13:06:49Z</time></trkpt><trkpt lat="44.168831829996144" lon="11.332822262022535"><ele>914.3333333333333</ele><time>2026-04-10T13:06:50Z</time></trkpt><trkpt lat="44.16864389759235" lon="11.332755861731478"><ele>910.6666666666666</ele><time>2026-04-10T13:06:51Z</time></trkpt><trkpt lat="44.168464443607235" lon="11.332696518484804"><ele>907.0</ele><time>2026-04-10T13:06:52Z</time></trkpt><trkpt lat="44.16829385046111" lon="11.332634662360668"><ele>903.0</ele><time>2026-04-10T13:06:53Z</time></trkpt><trkpt lat="44.168135271462575" lon="11.332570763290514"><ele>899.0</ele><time>2026-04-10T13:06:54Z</time></trkpt><trkpt lat="44.167991974730306" lon="11.33250802076467"><ele>895.0</ele><time>2026-04-10T13:06:55Z</time></trkpt><trkpt lat="44.16786763507501" lon="11.332461300316236"><ele>891.0</ele><time>2026-04-10T13:06:56Z</time></trkpt><trkpt lat="44.16774508343308" lon="11.33248065275014"><ele>891.0</ele><time>2026-04-10T13:06:57Z</time></trkpt><trkpt lat="44.16763544370553" lon="11.332589520149286"><ele>891.0</ele><time>2026-04-10T13:06:58Z</time></trkpt><trkpt lat="44.167541483832146" lon="11.33276444854847"><ele>891.0</ele><time>2026-04-10T13:06:59Z</time></trkpt><trkpt lat="44.16744052617948" lon="11.332951999080763"><ele>888.5</ele><time>2026-04-10T13:07:00Z</time></trkpt><trkpt lat="44.167326422435465" lon="11.333124457815039"><ele>886.0</ele><time>2026-04-10T13:07:01Z</time></trkpt><trkpt lat="44.16722250455252" lon="11.333271266580981"><ele>883.5</ele><time>2026-04-10T13:07:02Z</time></trkpt><trkpt lat="44.16715657673145" lon="11.333413812582894"><ele>881.0</ele><time>2026-04-10T13:07:03Z</time></trkpt><trkpt lat="44.1671241008282" lon="11.33357335283818"><ele>881.0</ele><time>2026-04-10T13:07:04Z</time></trkpt><trkpt lat="44.16713879775451" lon="11.333735596014096"><ele>881.0</ele><time>2026-04-10T13:07:05Z</time></trkpt><trkpt lat="44.167214572846945" lon="11.333893680320948"><ele>881.0</ele><time>2026-04-10T13:07:06Z</time></trkpt><trkpt lat="44.16730398703621" lon="11.334046769082894"><ele>881.0</ele><time>2026-04-10T13:07:07Z</time></trkpt><trkpt lat="44.167366832139265" lon="11.334182432057451"><ele>880.8</ele><time>2026-04-10T13:07:08Z</time></trkpt><trkpt lat="44.16744339513182" lon="11.334348394281792"><ele>880.5999999999999</ele><time>2026-04-10T13:07:09Z</time></trkpt><trkpt lat="44.16748900502749" lon="11.334495870597117"><ele>880.4</ele><time>2026-04-10T13:07:10Z</time></trkpt><trkpt lat="44.167484075599276" lon="11.334641005343688"><ele>880.2</ele><time>2026-04-10T13:07:11Z</time></trkpt><trkpt lat="44.16748338537195" lon="11.33473096848675"><ele>880.0</ele><time>2026-04-10T13:07:12Z</time></trkpt><trkpt lat="44.1674078383807" lon="11.33484405573012"><ele>876.0</ele><time>2026-04-10T13:07:13Z</time></trkpt><trkpt lat="44.16727174698027" lon="11.33492562434003"><ele>872.0</ele><time>2026-04-10T13:07:14Z</time></trkpt><trkpt lat="44.16712558715914" lon="11.335051883423082"><ele>868.0</ele><time>2026-04-10T13:07:15Z</time></trkpt><trkpt lat="44.16697980263891" lon="11.33518466594203"><ele>868.0</ele><time>2026-04-10T13:07:16Z</time></trkpt><trkpt lat="44.16682068958781" lon="11.335314932098981"><ele>868.0</ele><time>2026-04-10T13:07:17Z</time></trkpt><trkpt lat="44.166663330584164" lon="11.335455953602994"><ele>868.0</ele><time>2026-04-10T13:07:18Z</time></trkpt><trkpt lat="44.16651123987879" lon="11.335599936209938"><ele>866.0</ele><time>2026-04-10T13:07:19Z</time></trkpt><trkpt lat="44.16636565601628" lon="11.335733105056573"><ele>864.0</ele><time>2026-04-10T13:07:20Z</time></trkpt><trkpt lat="44.16622443223105" lon="11.335850944860317"><ele>862.0</ele><time>2026-04-10T13:07:21Z</time></trkpt><trkpt lat="44.16609571815799" lon="11.335965558475362"><ele>862.0</ele><time>2026-04-10T13:07:22Z</time></trkpt><trkpt lat="44.16597323721777" lon="11.336063148729572"><ele>862.0</ele><time>2026-04-10T13:07:23Z</time></trkpt><trkpt lat="44.16585931664709" lon="11.336127195489961"><ele>862.0</ele><time>2026-04-10T13:07:24Z</time></trkpt><trkpt lat="44.16574224271373" lon="11.336181188152072"><ele>862.0</ele><time>2026-04-10T13:07:25Z</time></trkpt><trkpt lat="44.16563740057347" lon="11.33619228766514"><ele>860.0</ele><time>2026-04-10T13:07:26Z</time></trkpt><trkpt lat="44.16554749063949" lon="11.33617576615468"><ele>858.0</ele><time>2026-04-10T13:07:27Z</time></trkpt><trkpt lat="44.16547584903721" lon="11.336102715070176"><ele>856.0</ele><time>2026-04-10T13:07:28Z</time></trkpt><trkpt lat="44.16543522011671" lon="11.335993480525007"><ele>854.0</ele><time>2026-04-10T13:07:29Z</time></trkpt><trkpt lat="44.16545426248449" lon="11.335846641437008"><ele>852.0</ele><time>2026-04-10T13:07:30Z</time></trkpt><trkpt lat="44.16543772585437" lon="11.335679941873563"><ele>851.75</ele><time>2026-04-10T13:07:31Z</time></trkpt><trkpt lat="44.165429164136256" lon="11.335480135288677"><ele>851.5</ele><time>2026-04-10T13:07:32Z</time></trkpt><trkpt lat="44.165400753761226" lon="11.335271165185604"><ele>851.25</ele><time>2026-04-10T13:07:33Z</time></trkpt><trkpt lat="44.16536543054894" lon="11.3350823757717"><ele>851.0</ele><time>2026-04-10T13:07:34Z</time></trkpt><trkpt lat="44.165310941345524" lon="11.334929459931779"><ele>851.0</ele><time>2026-04-10T13:07:35Z</time></trkpt><trkpt lat="44.16522914024802" lon="11.334783259133195"><ele>851.0</ele><time>2026-04-10T13:07:36Z</time></trkpt><trkpt lat="44.16512719662519" lon="11.33465430745322"><ele>851.0</ele><time>2026-04-10T13:07:37Z</time></trkpt><trkpt lat="44.165035741958256" lon="11.334517185496654"><ele>851.0</ele><time>2026-04-10T13:07:38Z</time></trkpt><trkpt lat="44.164961602013044" lon="11.334395863781241"><ele>850.5999999999999</ele><time>2026-04-10T13:07:39Z</time></trkpt><trkpt lat="44.16489332890566" lon="11.334290215723046"><ele>850.2</ele><time>2026-04-10T13:07:40Z</time></trkpt><trkpt lat="44.164822904238775" lon="11.334194585395824"><ele>849.8</ele><time>2026-04-10T13:07:41Z</time></trkpt><trkpt lat="44.16475388448802" lon="11.334079499280227"><ele>849.4000000000001</ele><time>2026-04-10T13:07:42Z</time></trkpt><trkpt lat="44.16468348556244" lon="11.333955957537718"><ele>849.0</ele><time>2026-04-10T13:07:43Z</time></trkpt><trkpt lat="44.16461392227387" lon="11.333811773841918"><ele>848.5</ele><time>2026-04-10T13:07:44Z</time></trkpt><trkpt lat="44.164561979586054" lon="11.333647099998181"><ele>848.0</ele><time>2026-04-10T13:07:45Z</time></trkpt><trkpt lat="44.1645342535862" lon="11.33345835120769"><ele>847.5</ele><time>2026-04-10T13:07:46Z</time></trkpt><trkpt lat="44.164506128423334" lon="11.33327058769677"><ele>847.0</ele><time>2026-04-10T13:07:47Z</time></trkpt><trkpt lat="44.16446248727592" lon="11.333091078583015"><ele>849.0</ele><time>2026-04-10T13:07:48Z</time></trkpt><trkpt lat="44.16438211253594" lon="11.332925447782548"><ele>851.0</ele><time>2026-04-10T13:07:49Z</time></trkpt><trkpt lat="44.16425527751017" lon="11.332776724104805"><ele>853.0</ele><time>2026-04-10T13:07:50Z</time></trkpt><trkpt lat="44.164127200901156" lon="11.33261507294955"><ele>852.3333333333333</ele><time>2026-04-10T13:07:51Z</time></trkpt><trkpt lat="44.16401103398835" lon="11.332426838452003"><ele>851.6666666666667</ele><time>2026-04-10T13:07:52Z</time></trkpt><trkpt lat="44.16391041997298" lon="11.332214450692867"><ele>851.0</ele><time>2026-04-10T13:07:53Z</time></trkpt><trkpt lat="44.163796749084995" lon="11.3320064056971"><ele>851.0</ele><time>2026-04-10T13:07:54Z</time></trkpt><trkpt lat="44.16365976580031" lon="11.331838570455144"><ele>851.0</ele><time>2026-04-10T13:07:55Z</time></trkpt><trkpt lat="44.163494562252254" lon="11.331694297951067"><ele>851.0</ele><time>2026-04-10T13:07:56Z</time></trkpt><trkpt lat="44.16331140528581" lon="11.331574613688487"><ele>850.0</ele><time>2026-04-10T13:07:57Z</time></trkpt><trkpt lat="44.16315507154407" lon="11.331466250144045"><ele>849.0</ele><time>2026-04-10T13:07:58Z</time></trkpt><trkpt lat="44.16301622224928" lon="11.33135850492445"><ele>848.0</ele><time>2026-04-10T13:07:59Z</time></trkpt><trkpt lat="44.16290139236839" lon="11.331254078354194"><ele>849.5</ele><time>2026-04-10T13:08:00Z</time></trkpt><trkpt lat="44.16282613892706" lon="11.331133786970275"><ele>851.0</ele><time>2026-04-10T13:08:01Z</time></trkpt><trkpt lat="44.16280140461243" lon="11.330981955784633"><ele>852.5</ele><time>2026-04-10T13:08:02Z</time></trkpt><trkpt lat="44.16284804292248" lon="11.330804421818234"><ele>854.0</ele><time>2026-04-10T13:08:03Z</time></trkpt><trkpt lat="44.16286875491199" lon="11.330586501515649"><ele>856.75</ele><time>2026-04-10T13:08:04Z</time></trkpt><trkpt lat="44.16289696768995" lon="11.33036873810678"><ele>859.5</ele><time>2026-04-10T13:08:05Z</time></trkpt><trkpt lat="44.16287213300432" lon="11.330168711250531"><ele>862.25</ele><time>2026-04-10T13:08:06Z</time></trkpt><trkpt lat="44.16278555369303" lon="11.330019738840688"><ele>865.0</ele><time>2026-04-10T13:08:07Z</time></trkpt><trkpt lat="44.162687637075216" lon="11.329862643680311"><ele>865.0</ele><time>2026-04-10T13:08:08Z</time></trkpt><trkpt lat="44.16255665668397" lon="11.329741425473337"><ele>865.0</ele><time>2026-04-10T13:08:09Z</time></trkpt><trkpt lat="44.16239953291719" lon="11.329678907608532"><ele>865.0</ele><time>2026-04-10T13:08:10Z</time></trkpt><trkpt lat="44.16223150415869" lon="11.32965834210491"><ele>870.3333333333333</ele><time>2026-04-10T13:08:11Z</time></trkpt><trkpt lat="44.16208081234069" lon="11.329651508400092"><ele>875.6666666666667</ele><time>2026-04-10T13:08:12Z</time></trkpt><trkpt lat="44.16194001513061" lon="11.329614676391103"><ele>881.0</ele><time>2026-04-10T13:08:13Z</time></trkpt><trkpt lat="44.16178616513806" lon="11.329550783767207"><ele>881.0</ele><time>2026-04-10T13:08:14Z</time></trkpt><trkpt lat="44.16164050995328" lon="11.329466276875936"><ele>881.0</ele><time>2026-04-10T13:08:15Z</time></trkpt><trkpt lat="44.161525062609975" lon="11.329369834502046"><ele>881.0</ele><time>2026-04-10T13:08:16Z</time></trkpt><trkpt lat="44.16142723140806" lon="11.329240315157621"><ele>881.0</ele><time>2026-04-10T13:08:17Z</time></trkpt><trkpt lat="44.16134820431671" lon="11.329066942043541"><ele>881.3333333333334</ele><time>2026-04-10T13:08:18Z</time></trkpt><trkpt lat="44.161304029812605" lon="11.328854948204043"><ele>881.6666666666667</ele><time>2026-04-10T13:08:19Z</time></trkpt><trkpt lat="44.161273083726925" lon="11.328612287638528"><ele>882.0</ele><time>2026-04-10T13:08:20Z</time></trkpt><trkpt lat="44.161239593298234" lon="11.32833245210751"><ele>882.0</ele><time>2026-04-10T13:08:21Z</time></trkpt><trkpt lat="44.16119358570754" lon="11.328064499881325"><ele>882.0</ele><time>2026-04-10T13:08:22Z</time></trkpt><trkpt lat="44.16112799998261" lon="11.327788634553398"><ele>882.0</ele><time>2026-04-10T13:08:23Z</time></trkpt><trkpt lat="44.16104030995122" lon="11.327503192352815"><ele>885.0</ele><time>2026-04-10T13:08:24Z</time></trkpt><trkpt lat="44.16092846157865" lon="11.327213677990972"><ele>888.0</ele><time>2026-04-10T13:08:25Z</time></trkpt><trkpt lat="44.16079766243749" lon="11.326907245016756"><ele>885.0</ele><time>2026-04-10T13:08:26Z</time></trkpt><trkpt lat="44.16066502645021" lon="11.326599780126404"><ele>882.0</ele><time>2026-04-10T13:08:27Z</time></trkpt><trkpt lat="44.16054639511348" lon="11.32628275889383"><ele>882.0</ele><time>2026-04-10T13:08:28Z</time></trkpt><trkpt lat="44.16043638049823" lon="11.325952114855367"><ele>882.0</ele><time>2026-04-10T13:08:29Z</time></trkpt><trkpt lat="44.16032576191525" lon="11.325620295170788"><ele>886.0</ele><time>2026-04-10T13:08:30Z</time></trkpt><trkpt lat="44.1602256237837" lon="11.325294163304273"><ele>890.0</ele><time>2026-04-10T13:08:31Z</time></trkpt><trkpt lat="44.160140806212425" lon="11.324997812446087"><ele>893.0</ele><time>2026-04-10T13:08:32Z</time></trkpt><trkpt lat="44.16006919991442" lon="11.324722038863108"><ele>896.0</ele><time>2026-04-10T13:08:33Z</time></trkpt><trkpt lat="44.16000861142105" lon="11.324467658358817"><ele>899.0</ele><time>2026-04-10T13:08:34Z</time></trkpt><trkpt lat="44.15994774310219" lon="11.324225828062092"><ele>899.0</ele><time>2026-04-10T13:08:35Z</time></trkpt><trkpt lat="44.15987460659128" lon="11.324004130390259"><ele>899.0</ele><time>2026-04-10T13:08:36Z</time></trkpt><trkpt lat="44.15976148364506" lon="11.323805947872737"><ele>899.0</ele><time>2026-04-10T13:08:37Z</time></trkpt><trkpt lat="44.159606457995395" lon="11.323645604277889"><ele>899.0</ele><time>2026-04-10T13:08:38Z</time></trkpt><trkpt lat="44.159416899669" lon="11.32352060527491"><ele>899.0</ele><time>2026-04-10T13:08:39Z</time></trkpt><trkpt lat="44.159232665806286" lon="11.323433324239161"><ele>899.0</ele><time>2026-04-10T13:08:40Z</time></trkpt><trkpt lat="44.15906273909323" lon="11.323350581756669"><ele>898.0</ele><time>2026-04-10T13:08:41Z</time></trkpt><trkpt lat="44.158928083949846" lon="11.323201176715752"><ele>897.0</ele><time>2026-04-10T13:08:42Z</time></trkpt><trkpt lat="44.15878977446293" lon="11.323018724165582"><ele>896.0</ele><time>2026-04-10T13:08:43Z</time></trkpt><trkpt lat="44.15863752966291" lon="11.322867684715181"><ele>899.0</ele><time>2026-04-10T13:08:44Z</time></trkpt><trkpt lat="44.158470878582136" lon="11.322720472764377"><ele>902.0</ele><time>2026-04-10T13:08:45Z</time></trkpt><trkpt lat="44.15829442870228" lon="11.322619621634814"><ele>905.0</ele><time>2026-04-10T13:08:46Z</time></trkpt><trkpt lat="44.15812436248395" lon="11.322563238531327"><ele>905.3333333333334</ele><time>2026-04-10T13:08:47Z</time></trkpt><trkpt lat="44.15795453063568" lon="11.322590085846809"><ele>905.6666666666667</ele><time>2026-04-10T13:08:48Z</time></trkpt><trkpt lat="44.157791338952244" lon="11.32268365312046"><ele>906.0</ele><time>2026-04-10T13:08:49Z</time></trkpt><trkpt lat="44.157638979736795" lon="11.322852634837806"><ele>904.3333333333333</ele><time>2026-04-10T13:08:50Z</time></trkpt><trkpt lat="44.15750875065795" lon="11.323073286823004"><ele>902.6666666666666</ele><time>2026-04-10T13:08:51Z</time></trkpt><trkpt lat="44.1573864358446" lon="11.323238647807024"><ele>901.0</ele><time>2026-04-10T13:08:52Z</time></trkpt><trkpt lat="44.15723228906816" lon="11.323328092098077"><ele>901.0</ele><time>2026-04-10T13:08:53Z</time></trkpt><trkpt lat="44.157081063580826" lon="11.323390307056906"><ele>901.0</ele><time>2026-04-10T13:08:54Z</time></trkpt><trkpt lat="44.15692409535324" lon="11.32340009187802"><ele>901.0</ele><time>2026-04-10T13:08:55Z</time></trkpt><trkpt lat="44.15676721151257" lon="11.323342421626633"><ele>901.0</ele><time>2026-04-10T13:08:56Z</time></trkpt><trkpt lat="44.15658493971506" lon="11.323262352384303"><ele>901.0</ele><time>2026-04-10T13:08:57Z</time></trkpt><trkpt lat="44.15641543414439" lon="11.323172437737929"><ele>901.0</ele><time>2026-04-10T13:08:58Z</time></trkpt><trkpt lat="44.15624812435621" lon="11.323123756308522"><ele>900.3333333333333</ele><time>2026-04-10T13:08:59Z</time></trkpt><trkpt lat="44.15607646228059" lon="11.323141258872523"><ele>899.6666666666667</ele><time>2026-04-10T13:09:00Z</time></trkpt><trkpt lat="44.155907593684354" lon="11.323216643757322"><ele>899.0</ele><time>2026-04-10T13:09:01Z</time></trkpt><trkpt lat="44.155743218823176" lon="11.32336541529512"><ele>897.6666666666667</ele><time>2026-04-10T13:09:02Z</time></trkpt><trkpt lat="44.15560855037343" lon="11.323561026915495"><ele>896.3333333333333</ele><time>2026-04-10T13:09:03Z</time></trkpt><trkpt lat="44.15549225527159" lon="11.323798517699114"><ele>895.0</ele><time>2026-04-10T13:09:04Z</time></trkpt><trkpt lat="44.15536184932708" lon="11.324035192833335"><ele>895.0</ele><time>2026-04-10T13:09:05Z</time></trkpt><trkpt lat="44.15520163203031" lon="11.324230612448535"><ele>895.0</ele><time>2026-04-10T13:09:06Z</time></trkpt><trkpt lat="44.15503124428508" lon="11.324399826308044"><ele>895.0</ele><time>2026-04-10T13:09:07Z</time></trkpt><trkpt lat="44.15488214665154" lon="11.324578456324392"><ele>893.6666666666666</ele><time>2026-04-10T13:09:08Z</time></trkpt><trkpt lat="44.1547792035183" lon="11.324779520623505"><ele>892.3333333333333</ele><time>2026-04-10T13:09:09Z</time></trkpt><trkpt lat="44.154693153112426" lon="11.324978381283184"><ele>891.0</ele><time>2026-04-10T13:09:10Z</time></trkpt><trkpt lat="44.15460523422712" lon="11.325121104999912"><ele>891.0</ele><time>2026-04-10T13:09:11Z</time></trkpt><trkpt lat="44.15448576361126" lon="11.325169101296911"><ele>891.0</ele><time>2026-04-10T13:09:12Z</time></trkpt><trkpt lat="44.15434361515617" lon="11.325165676957306"><ele>891.0</ele><time>2026-04-10T13:09:13Z</time></trkpt><trkpt lat="44.15416294360158" lon="11.32513733763125"><ele>891.0</ele><time>2026-04-10T13:09:14Z</time></trkpt><trkpt lat="44.15397607539784" lon="11.325059842520167"><ele>892.6666666666667</ele><time>2026-04-10T13:09:15Z</time></trkpt><trkpt lat="44.15379645760063" lon="11.32494675523921"><ele>894.3333333333334</ele><time>2026-04-10T13:09:16Z</time></trkpt><trkpt lat="44.153639716091575" lon="11.324779212903149"><ele>896.0</ele><time>2026-04-10T13:09:17Z</time></trkpt><trkpt lat="44.15347050858308" lon="11.324635463856309"><ele>896.0</ele><time>2026-04-10T13:09:18Z</time></trkpt><trkpt lat="44.15330411479361" lon="11.324501663193653"><ele>896.0</ele><time>2026-04-10T13:09:19Z</time></trkpt><trkpt lat="44.15313617704311" lon="11.324406261237069"><ele>896.0</ele><time>2026-04-10T13:09:20Z</time></trkpt><trkpt lat="44.15296835327248" lon="11.324399002277133"><ele>898.6666666666667</ele><time>2026-04-10T13:09:21Z</time></trkpt><trkpt lat="44.15278707031253" lon="11.32444369537661"><ele>901.3333333333333</ele><time>2026-04-10T13:09:22Z</time></trkpt><trkpt lat="44.152618529755614" lon="11.324556174140291"><ele>904.0</ele><time>2026-04-10T13:09:23Z</time></trkpt><trkpt lat="44.15246066879523" lon="11.324726819736139"><ele>902.3333333333333</ele><time>2026-04-10T13:09:24Z</time></trkpt><trkpt lat="44.15227754682161" lon="11.324879916165745"><ele>900.6666666666667</ele><time>2026-04-10T13:09:25Z</time></trkpt><trkpt lat="44.15209676135408" lon="11.325029554559233"><ele>899.0</ele><time>2026-04-10T13:09:26Z</time></trkpt><trkpt lat="44.15191229353852" lon="11.32520070848052"><ele>899.0</ele><time>2026-04-10T13:09:27Z</time></trkpt><trkpt lat="44.15172269203176" lon="11.325352479309629"><ele>899.0</ele><time>2026-04-10T13:09:28Z</time></trkpt><trkpt lat="44.151555088466296" lon="11.325497363405088"><ele>899.0</ele><time>2026-04-10T13:09:29Z</time></trkpt><trkpt lat="44.15139714194565" lon="11.325629778204657"><ele>895.0</ele><time>2026-04-10T13:09:30Z</time></trkpt><trkpt lat="44.151241236400836" lon="11.325745752895996"><ele>891.0</ele><time>2026-04-10T13:09:31Z</time></trkpt><trkpt lat="44.151079286208734" lon="11.325799150371804"><ele>887.0</ele><time>2026-04-10T13:09:32Z</time></trkpt><trkpt lat="44.150911051254326" lon="11.325845499930752"><ele>887.0</ele><time>2026-04-10T13:09:33Z</time></trkpt><trkpt lat="44.150718265382686" lon="11.325881274558826"><ele>887.0</ele><time>2026-04-10T13:09:34Z</time></trkpt><trkpt lat="44.150517714734484" lon="11.325871538656573"><ele>887.0</ele><time>2026-04-10T13:09:35Z</time></trkpt><trkpt lat="44.15030601900083" lon="11.325857234393922"><ele>890.0</ele><time>2026-04-10T13:09:36Z</time></trkpt><trkpt lat="44.150106230967886" lon="11.325850980260038"><ele>893.0</ele><time>2026-04-10T13:09:37Z</time></trkpt><trkpt lat="44.14992080978094" lon="11.325845398300741"><ele>896.0</ele><time>2026-04-10T13:09:38Z</time></trkpt><trkpt lat="44.149741975634385" lon="11.325849539540004"><ele>900.0</ele><time>2026-04-10T13:09:39Z</time></trkpt><trkpt lat="44.149559442374304" lon="11.325894241705074"><ele>904.0</ele><time>2026-04-10T13:09:40Z</time></trkpt><trkpt lat="44.149376704049224" lon="11.326017939003059"><ele>908.0</ele><time>2026-04-10T13:09:41Z</time></trkpt><trkpt lat="44.149207820068014" lon="11.326209108348225"><ele>907.0</ele><time>2026-04-10T13:09:42Z</time></trkpt><trkpt lat="44.149038146207346" lon="11.326436492252327"><ele>906.0</ele><time>2026-04-10T13:09:43Z</time></trkpt><trkpt lat="44.14888357557874" lon="11.326631054193568"><ele>905.0</ele><time>2026-04-10T13:09:44Z</time></trkpt><trkpt lat="44.14873715565717" lon="11.326832993431855"><ele>905.0</ele><time>2026-04-10T13:09:45Z</time></trkpt><trkpt lat="44.148598632861344" lon="11.327038518778647"><ele>905.0</ele><time>2026-04-10T13:09:46Z</time></trkpt><trkpt lat="44.14849113950547" lon="11.327200926314235"><ele>905.0</ele><time>2026-04-10T13:09:47Z</time></trkpt><trkpt lat="44.148347793484234" lon="11.327325890857937"><ele>900.25</ele><time>2026-04-10T13:09:48Z</time></trkpt><trkpt lat="44.14823516425272" lon="11.327455033393274"><ele>895.5</ele><time>2026-04-10T13:09:49Z</time></trkpt><trkpt lat="44.14809970514869" lon="11.327486130723836"><ele>890.75</ele><time>2026-04-10T13:09:50Z</time></trkpt><trkpt lat="44.14797251364361" lon="11.327462728187728"><ele>886.0</ele><time>2026-04-10T13:09:51Z</time></trkpt><trkpt lat="44.14783296144698" lon="11.327366780242802"><ele>886.0</ele><time>2026-04-10T13:09:52Z</time></trkpt><trkpt lat="44.14766149050409" lon="11.32726541486016"><ele>886.0</ele><time>2026-04-10T13:09:53Z</time></trkpt><trkpt lat="44.147487932913066" lon="11.327166241164582"><ele>886.0</ele><time>2026-04-10T13:09:54Z</time></trkpt><trkpt lat="44.14728948014571" lon="11.32712866788419"><ele>887.6666666666666</ele><time>2026-04-10T13:09:55Z</time></trkpt><trkpt lat="44.14708280179166" lon="11.327152829298932"><ele>889.3333333333333</ele><time>2026-04-10T13:09:56Z</time></trkpt><trkpt lat="44.146882998275295" lon="11.32719411880703"><ele>891.0</ele><time>2026-04-10T13:09:57Z</time></trkpt><trkpt lat="44.146689300114126" lon="11.327150231868275"><ele>887.0</ele><time>2026-04-10T13:09:58Z</time></trkpt><trkpt lat="44.14650140946294" lon="11.327050135201564"><ele>883.0</ele><time>2026-04-10T13:09:59Z</time></trkpt><trkpt lat="44.146308914594684" lon="11.326924306985092"><ele>879.0</ele><time>2026-04-10T13:10:00Z</time></trkpt><trkpt lat="44.14612162788028" lon="11.326802359638117"><ele>879.0</ele><time>2026-04-10T13:10:01Z</time></trkpt><trkpt lat="44.14595416154464" lon="11.32668330886362"><ele>879.0</ele><time>2026-04-10T13:10:02Z</time></trkpt><trkpt lat="44.14578088012192" lon="11.32659388367713"><ele>879.0</ele><time>2026-04-10T13:10:03Z</time></trkpt><trkpt lat="44.14559035105512" lon="11.326558517921011"><ele>879.6666666666667</ele><time>2026-04-10T13:10:04Z</time></trkpt><trkpt lat="44.1453895388165" lon="11.326561375528243"><ele>880.3333333333334</ele><time>2026-04-10T13:10:05Z</time></trkpt><trkpt lat="44.14520454768798" lon="11.326612743286553"><ele>881.0</ele><time>2026-04-10T13:10:06Z</time></trkpt><trkpt lat="44.14502950772456" lon="11.326721561233125"><ele>881.0</ele><time>2026-04-10T13:10:07Z</time></trkpt><trkpt lat="44.144884122830724" lon="11.326886389942329"><ele>881.0</ele><time>2026-04-10T13:10:08Z</time></trkpt><trkpt lat="44.144777453446046" lon="11.327091980101976"><ele>881.0</ele><time>2026-04-10T13:10:09Z</time></trkpt><trkpt lat="44.14470236800658" lon="11.327295638657509"><ele>878.5</ele><time>2026-04-10T13:10:10Z</time></trkpt><trkpt lat="44.144606767352975" lon="11.327435623704208"><ele>876.0</ele><time>2026-04-10T13:10:11Z</time></trkpt><trkpt lat="44.14449321466064" lon="11.327514713610885"><ele>873.5</ele><time>2026-04-10T13:10:12Z</time></trkpt><trkpt lat="44.144354536802744" lon="11.327525827645186"><ele>871.0</ele><time>2026-04-10T13:10:13Z</time></trkpt><trkpt lat="44.144199585153544" lon="11.327459064515937"><ele>869.3333333333333</ele><time>2026-04-10T13:10:14Z</time></trkpt><trkpt lat="44.14402809110803" lon="11.327371339946493"><ele>867.6666666666667</ele><time>2026-04-10T13:10:15Z</time></trkpt><trkpt lat="44.14384310066934" lon="11.327276222940197"><ele>866.0</ele><time>2026-04-10T13:10:16Z</time></trkpt><trkpt lat="44.14365435272425" lon="11.327176357412846"><ele>868.0</ele><time>2026-04-10T13:10:17Z</time></trkpt><trkpt lat="44.14345517042627" lon="11.327113033140705"><ele>870.0</ele><time>2026-04-10T13:10:18Z</time></trkpt><trkpt lat="44.14323986281969" lon="11.327102484540644"><ele>872.0</ele><time>2026-04-10T13:10:19Z</time></trkpt><trkpt lat="44.143012059360416" lon="11.32713140432178"><ele>872.0</ele><time>2026-04-10T13:10:20Z</time></trkpt><trkpt lat="44.14277924209168" lon="11.327185981202796"><ele>872.0</ele><time>2026-04-10T13:10:21Z</time></trkpt><trkpt lat="44.14254752773439" lon="11.32725840738568"><ele>868.5</ele><time>2026-04-10T13:10:22Z</time></trkpt><trkpt lat="44.1423317864046" lon="11.327363404933807"><ele>865.0</ele><time>2026-04-10T13:10:23Z</time></trkpt><trkpt lat="44.14211983125257" lon="11.327514024379902"><ele>865.0</ele><time>2026-04-10T13:10:24Z</time></trkpt><trkpt lat="44.14190823261554" lon="11.327705936453198"><ele>865.0</ele><time>2026-04-10T13:10:25Z</time></trkpt><trkpt lat="44.141708933532335" lon="11.327892885617937"><ele>863.0</ele><time>2026-04-10T13:10:26Z</time></trkpt><trkpt lat="44.141517886598855" lon="11.32804624332782"><ele>861.0</ele><time>2026-04-10T13:10:27Z</time></trkpt><trkpt lat="44.14134112613727" lon="11.328184338535399"><ele>859.0</ele><time>2026-04-10T13:10:28Z</time></trkpt><trkpt lat="44.14117588203129" lon="11.328314242680932"><ele>859.0</ele><time>2026-04-10T13:10:29Z</time></trkpt><trkpt lat="44.14103914967194" lon="11.32842758478162"><ele>859.0</ele><time>2026-04-10T13:10:30Z</time></trkpt><trkpt lat="44.140930673038106" lon="11.328521434857539"><ele>859.0</ele><time>2026-04-10T13:10:31Z</time></trkpt><trkpt lat="44.14082856225577" lon="11.328582805762613"><ele>859.0</ele><time>2026-04-10T13:10:32Z</time></trkpt><trkpt lat="44.14071271644753" lon="11.328592691265165"><ele>855.25</ele><time>2026-04-10T13:10:33Z</time></trkpt><trkpt lat="44.14061596855343" lon="11.328492825753399"><ele>851.5</ele><time>2026-04-10T13:10:34Z</time></trkpt><trkpt lat="44.14052684108666" lon="11.328368792713064"><ele>847.75</ele><time>2026-04-10T13:10:35Z</time></trkpt><trkpt lat="44.14050322691805" lon="11.328149861541826"><ele>844.0</ele><time>2026-04-10T13:10:36Z</time></trkpt><trkpt lat="44.14046464894126" lon="11.327944142512075"><ele>844.0</ele><time>2026-04-10T13:10:37Z</time></trkpt><trkpt lat="44.14048178158762" lon="11.327746861948794"><ele>844.0</ele><time>2026-04-10T13:10:38Z</time></trkpt><trkpt lat="44.1405631079262" lon="11.327574445308942"><ele>844.0</ele><time>2026-04-10T13:10:39Z</time></trkpt><trkpt lat="44.14067752804726" lon="11.327443248044894"><ele>844.0</ele><time>2026-04-10T13:10:40Z</time></trkpt><trkpt lat="44.14081357524155" lon="11.327298166343958"><ele>844.6666666666666</ele><time>2026-04-10T13:10:41Z</time></trkpt><trkpt lat="44.140985707424676" lon="11.327189683901556"><ele>845.3333333333333</ele><time>2026-04-10T13:10:42Z</time></trkpt><trkpt lat="44.141127517631986" lon="11.327071480268927"><ele>846.0</ele><time>2026-04-10T13:10:43Z</time></trkpt><trkpt lat="44.14124005970062" lon="11.32694281219303"><ele>846.0</ele><time>2026-04-10T13:10:44Z</time></trkpt><trkpt lat="44.141311581617714" lon="11.326769032281419"><ele>846.0</ele><time>2026-04-10T13:10:45Z</time></trkpt><trkpt lat="44.141327643419665" lon="11.326533446272744"><ele>846.0</ele><time>2026-04-10T13:10:46Z</time></trkpt><trkpt lat="44.1413036932382" lon="11.326277808867758"><ele>846.0</ele><time>2026-04-10T13:10:47Z</time></trkpt><trkpt lat="44.14122284193881" lon="11.326021512007586"><ele>846.0</ele><time>2026-04-10T13:10:48Z</time></trkpt><trkpt lat="44.14113396728843" lon="11.325809340598223"><ele>846.0</ele><time>2026-04-10T13:10:49Z</time></trkpt><trkpt lat="44.14106551658045" lon="11.325631741952431"><ele>845.3333333333333</ele><time>2026-04-10T13:10:50Z</time></trkpt><trkpt lat="44.14103218865511" lon="11.32545540483678"><ele>844.6666666666666</ele><time>2026-04-10T13:10:51Z</time></trkpt><trkpt lat="44.14103755307389" lon="11.325258654160077"><ele>844.0</ele><time>2026-04-10T13:10:52Z</time></trkpt><trkpt lat="44.14110325619049" lon="11.32502521080698"><ele>844.0</ele><time>2026-04-10T13:10:53Z</time></trkpt><trkpt lat="44.141175684999325" lon="11.324761527405862"><ele>844.0</ele><time>2026-04-10T13:10:54Z</time></trkpt><trkpt lat="44.14122910615889" lon="11.32448875628577"><ele>844.0</ele><time>2026-04-10T13:10:55Z</time></trkpt><trkpt lat="44.141258742070995" lon="11.324222511110193"><ele>843.0</ele><time>2026-04-10T13:10:56Z</time></trkpt><trkpt lat="44.14127138925315" lon="11.323941388358417"><ele>842.0</ele><time>2026-04-10T13:10:57Z</time></trkpt><trkpt lat="44.14124839573778" lon="11.32366666031258"><ele>841.0</ele><time>2026-04-10T13:10:58Z</time></trkpt><trkpt lat="44.141191499061975" lon="11.32339168946249"><ele>841.0</ele><time>2026-04-10T13:10:59Z</time></trkpt><trkpt lat="44.14107887896695" lon="11.32311368808393"><ele>841.0</ele><time>2026-04-10T13:11:00Z</time></trkpt><trkpt lat="44.140952830114145" lon="11.322820701163836"><ele>840.0</ele><time>2026-04-10T13:11:01Z</time></trkpt><trkpt lat="44.140838375313876" lon="11.322520665241498"><ele>839.0</ele><time>2026-04-10T13:11:02Z</time></trkpt><trkpt lat="44.14075520399607" lon="11.322273398887289"><ele>838.0</ele><time>2026-04-10T13:11:03Z</time></trkpt><trkpt lat="44.14067803328015" lon="11.322062827321679"><ele>838.0</ele><time>2026-04-10T13:11:04Z</time></trkpt><trkpt lat="44.14059871332464" lon="11.321884984170508"><ele>838.0</ele><time>2026-04-10T13:11:05Z</time></trkpt><trkpt lat="44.14050517991553" lon="11.321738772582096"><ele>838.0</ele><time>2026-04-10T13:11:06Z</time></trkpt><trkpt lat="44.14034583723006" lon="11.321694639906903"><ele>838.0</ele><time>2026-04-10T13:11:07Z</time></trkpt><trkpt lat="44.14018719483648" lon="11.321665473979245"><ele>838.0</ele><time>2026-04-10T13:11:08Z</time></trkpt><trkpt lat="44.140042755831566" lon="11.321655703881827"><ele>838.0</ele><time>2026-04-10T13:11:09Z</time></trkpt><trkpt lat="44.13990712046702" lon="11.32159069365282"><ele>838.0</ele><time>2026-04-10T13:11:10Z</time></trkpt><trkpt lat="44.13977461022512" lon="11.321520945946515"><ele>835.3333333333333</ele><time>2026-04-10T13:11:11Z</time></trkpt><trkpt lat="44.13966808622731" lon="11.321323889434717"><ele>832.6666666666667</ele><time>2026-04-10T13:11:12Z</time></trkpt><trkpt lat="44.139510438915735" lon="11.321124042977969"><ele>830.0</ele><time>2026-04-10T13:11:13Z</time></trkpt><trkpt lat="44.139360629854565" lon="11.320918617016197"><ele>830.0</ele><time>2026-04-10T13:11:14Z</time></trkpt><trkpt lat="44.13921881713931" lon="11.32074561255657"><ele>830.0</ele><time>2026-04-10T13:11:15Z</time></trkpt><trkpt lat="44.13908056902722" lon="11.320614738634244"><ele>830.0</ele><time>2026-04-10T13:11:16Z</time></trkpt><trkpt lat="44.13894978176399" lon="11.320529242354063"><ele>828.25</ele><time>2026-04-10T13:11:17Z</time></trkpt><trkpt lat="44.1388347101432" lon="11.320446263915708"><ele>826.5</ele><time>2026-04-10T13:11:18Z</time></trkpt><trkpt lat="44.138741197509184" lon="11.320342438294796"><ele>824.75</ele><time>2026-04-10T13:11:19Z</time></trkpt><trkpt lat="44.13867570916564" lon="11.320191825494886"><ele>823.0</ele><time>2026-04-10T13:11:20Z</time></trkpt><trkpt lat="44.13866471534645" lon="11.319988335262856"><ele>823.0</ele><time>2026-04-10T13:11:21Z</time></trkpt><trkpt lat="44.138747084314105" lon="11.319775853063481"><ele>823.0</ele><time>2026-04-10T13:11:22Z</time></trkpt><trkpt lat="44.13877323897624" lon="11.319526295710995"><ele>823.0</ele><time>2026-04-10T13:11:23Z</time></trkpt><trkpt lat="44.13880088993918" lon="11.319267058114804"><ele>821.3333333333333</ele><time>2026-04-10T13:11:24Z</time></trkpt><trkpt lat="44.13880784164772" lon="11.318990865353603"><ele>819.6666666666667</ele><time>2026-04-10T13:11:25Z</time></trkpt><trkpt lat="44.13881571728168" lon="11.31870180838475"><ele>818.0</ele><time>2026-04-10T13:11:26Z</time></trkpt><trkpt lat="44.1388190558427" lon="11.318406682887703"><ele>818.0</ele><time>2026-04-10T13:11:27Z</time></trkpt><trkpt lat="44.13882923412855" lon="11.318113754731982"><ele>818.0</ele><time>2026-04-10T13:11:28Z</time></trkpt><trkpt lat="44.13886027901423" lon="11.317859529328476"><ele>818.0</ele><time>2026-04-10T13:11:29Z</time></trkpt><trkpt lat="44.13884348670345" lon="11.317620615054603"><ele>819.3333333333334</ele><time>2026-04-10T13:11:30Z</time></trkpt><trkpt lat="44.13880678173497" lon="11.317381636158306"><ele>820.6666666666667</ele><time>2026-04-10T13:11:31Z</time></trkpt><trkpt lat="44.138734679014824" lon="11.317136591955617"><ele>822.0</ele><time>2026-04-10T13:11:32Z</time></trkpt><trkpt lat="44.138629425121245" lon="11.316891737444267"><ele>825.3333333333333</ele><time>2026-04-10T13:11:33Z</time></trkpt><trkpt lat="44.13855620187404" lon="11.316661176969083"><ele>828.6666666666666</ele><time>2026-04-10T13:11:34Z</time></trkpt><trkpt lat="44.138500979661984" lon="11.316437247262458"><ele>832.0</ele><time>2026-04-10T13:11:35Z</time></trkpt><trkpt lat="44.1384628893977" lon="11.316180966450755"><ele>832.6666666666666</ele><time>2026-04-10T13:11:36Z</time></trkpt><trkpt lat="44.13843883338833" lon="11.315896261459176"><ele>833.3333333333333</ele><time>2026-04-10T13:11:37Z</time></trkpt><trkpt lat="44.138413801669316" lon="11.315594315210198"><ele>834.0</ele><time>2026-04-10T13:11:38Z</time></trkpt><trkpt lat="44.13838977131935" lon="11.315287277151853"><ele>834.6666666666667</ele><time>2026-04-10T13:11:39Z</time></trkpt><trkpt lat="44.138373865186125" lon="11.314977353249411"><ele>835.3333333333334</ele><time>2026-04-10T13:11:40Z</time></trkpt><trkpt lat="44.13836918519617" lon="11.314678306184087"><ele>836.0</ele><time>2026-04-10T13:11:41Z</time></trkpt><trkpt lat="44.13836428178351" lon="11.314391838025127"><ele>836.0</ele><time>2026-04-10T13:11:42Z</time></trkpt><trkpt lat="44.13836879296782" lon="11.314107946021167"><ele>836.0</ele><time>2026-04-10T13:11:43Z</time></trkpt><trkpt lat="44.138397334346784" lon="11.313815005772977"><ele>836.0</ele><time>2026-04-10T13:11:44Z</time></trkpt><trkpt lat="44.13843901379348" lon="11.313536221864606"><ele>836.0</ele><time>2026-04-10T13:11:45Z</time></trkpt><trkpt lat="44.13847914998183" lon="11.313288604229662"><ele>836.0</ele><time>2026-04-10T13:11:46Z</time></trkpt><trkpt lat="44.13850536258272" lon="11.313065053793178"><ele>836.0</ele><time>2026-04-10T13:11:47Z</time></trkpt><trkpt lat="44.138500169761066" lon="11.312846947622496"><ele>837.3333333333334</ele><time>2026-04-10T13:11:48Z</time></trkpt><trkpt lat="44.13844046027424" lon="11.312642819896592"><ele>838.6666666666667</ele><time>2026-04-10T13:11:49Z</time></trkpt><trkpt lat="44.13833613386151" lon="11.312473806972115"><ele>840.0</ele><time>2026-04-10T13:11:50Z</time></trkpt><trkpt lat="44.13822386974709" lon="11.31233351671956"><ele>842.25</ele><time>2026-04-10T13:11:51Z</time></trkpt><trkpt lat="44.13815093529033" lon="11.312174163949956"><ele>844.5</ele><time>2026-04-10T13:11:52Z</time></trkpt><trkpt lat="44.13816483187044" lon="11.311973385099396"><ele>846.75</ele><time>2026-04-10T13:11:53Z</time></trkpt><trkpt lat="44.1382284448199" lon="11.311777793306637"><ele>849.0</ele><time>2026-04-10T13:11:54Z</time></trkpt><trkpt lat="44.13827982692513" lon="11.311546139291957"><ele>851.6666666666667</ele><time>2026-04-10T13:11:55Z</time></trkpt><trkpt lat="44.13833519806853" lon="11.311343115676486"><ele>854.3333333333334</ele><time>2026-04-10T13:11:56Z</time></trkpt><trkpt lat="44.13833810141705" lon="11.311141040343948"><ele>857.0</ele><time>2026-04-10T13:11:57Z</time></trkpt><trkpt lat="44.13828044379799" lon="11.31091356546693"><ele>855.0</ele><time>2026-04-10T13:11:58Z</time></trkpt><trkpt lat="44.13819071311742" lon="11.310670185959408"><ele>853.0</ele><time>2026-04-10T13:11:59Z</time></trkpt><trkpt lat="44.1381038235129" lon="11.310421877797046"><ele>851.0</ele><time>2026-04-10T13:12:00Z</time></trkpt><trkpt lat="44.13802932355874" lon="11.310173403198833"><ele>851.0</ele><time>2026-04-10T13:12:01Z</time></trkpt><trkpt lat="44.137976211104636" lon="11.309926062313059"><ele>851.0</ele><time>2026-04-10T13:12:02Z</time></trkpt><trkpt lat="44.1379325605702" lon="11.30967112332479"><ele>851.0</ele><time>2026-04-10T13:12:03Z</time></trkpt><trkpt lat="44.13789008670143" lon="11.309442998793507"><ele>852.3333333333334</ele><time>2026-04-10T13:12:04Z</time></trkpt><trkpt lat="44.13783853585377" lon="11.309246251190102"><ele>853.6666666666667</ele><time>2026-04-10T13:12:05Z</time></trkpt><trkpt lat="44.13774548514828" lon="11.30909177130637"><ele>855.0</ele><time>2026-04-10T13:12:06Z</time></trkpt><trkpt lat="44.137607499446894" lon="11.308963424240522"><ele>856.3333333333333</ele><time>2026-04-10T13:12:07Z</time></trkpt><trkpt lat="44.137430524797765" lon="11.308872119755598"><ele>857.6666666666666</ele><time>2026-04-10T13:12:08Z</time></trkpt><trkpt lat="44.13725353625535" lon="11.30877166655983"><ele>859.0</ele><time>2026-04-10T13:12:09Z</time></trkpt><trkpt lat="44.13709830571254" lon="11.308658807861564"><ele>859.0</ele><time>2026-04-10T13:12:10Z</time></trkpt><trkpt lat="44.1369580748937" lon="11.308557476328073"><ele>859.0</ele><time>2026-04-10T13:12:11Z</time></trkpt><trkpt lat="44.13681598880661" lon="11.30846181652731"><ele>859.0</ele><time>2026-04-10T13:12:12Z</time></trkpt><trkpt lat="44.136697460051515" lon="11.308361974742658"><ele>859.0</ele><time>2026-04-10T13:12:13Z</time></trkpt><trkpt lat="44.13659721019408" lon="11.308242052897825"><ele>859.0</ele><time>2026-04-10T13:12:14Z</time></trkpt><trkpt lat="44.136511736790006" lon="11.308089948782186"><ele>859.0</ele><time>2026-04-10T13:12:15Z</time></trkpt><trkpt lat="44.13642955261533" lon="11.307917068412797"><ele>859.0</ele><time>2026-04-10T13:12:16Z</time></trkpt><trkpt lat="44.136350573057385" lon="11.307728777446679"><ele>858.0</ele><time>2026-04-10T13:12:17Z</time></trkpt><trkpt lat="44.13627405613586" lon="11.307518200072932"><ele>857.0</ele><time>2026-04-10T13:12:18Z</time></trkpt><trkpt lat="44.13620962435836" lon="11.307284902245785"><ele>856.0</ele><time>2026-04-10T13:12:19Z</time></trkpt><trkpt lat="44.1361569124801" lon="11.307062898970159"><ele>858.3333333333333</ele><time>2026-04-10T13:12:20Z</time></trkpt><trkpt lat="44.136091828417086" lon="11.30685033383631"><ele>860.6666666666667</ele><time>2026-04-10T13:12:21Z</time></trkpt><trkpt lat="44.13598949664908" lon="11.306667965754292"><ele>863.0</ele><time>2026-04-10T13:12:22Z</time></trkpt><trkpt lat="44.13586878294543" lon="11.30650149646416"><ele>868.6666666666667</ele><time>2026-04-10T13:12:23Z</time></trkpt><trkpt lat="44.13575460906811" lon="11.30635253787865"><ele>874.3333333333333</ele><time>2026-04-10T13:12:24Z</time></trkpt><trkpt lat="44.13561346109332" lon="11.306254387025136"><ele>880.0</ele><time>2026-04-10T13:12:25Z</time></trkpt><trkpt lat="44.135444143785584" lon="11.306196867558148"><ele>881.0</ele><time>2026-04-10T13:12:26Z</time></trkpt><trkpt lat="44.13525459895367" lon="11.306169386888458"><ele>882.0</ele><time>2026-04-10T13:12:27Z</time></trkpt><trkpt lat="44.13505920663205" lon="11.306123027222412"><ele>883.0</ele><time>2026-04-10T13:12:28Z</time></trkpt><trkpt lat="44.1348714008199" lon="11.30609537304001"><ele>880.0</ele><time>2026-04-10T13:12:29Z</time></trkpt><trkpt lat="44.13471919116769" lon="11.306051644398913"><ele>877.0</ele><time>2026-04-10T13:12:30Z</time></trkpt><trkpt lat="44.13457956176759" lon="11.306019597023278"><ele>874.0</ele><time>2026-04-10T13:12:31Z</time></trkpt><trkpt lat="44.134435437424266" lon="11.305968586147726"><ele>871.0</ele><time>2026-04-10T13:12:32Z</time></trkpt><trkpt lat="44.13428939468441" lon="11.30586577714325"><ele>871.0</ele><time>2026-04-10T13:12:33Z</time></trkpt><trkpt lat="44.13415540632195" lon="11.305706998488171"><ele>871.0</ele><time>2026-04-10T13:12:34Z</time></trkpt><trkpt lat="44.1340224371948" lon="11.305593295065758"><ele>871.0</ele><time>2026-04-10T13:12:35Z</time></trkpt><trkpt lat="44.13392291363416" lon="11.305456268403509"><ele>875.25</ele><time>2026-04-10T13:12:36Z</time></trkpt><trkpt lat="44.13386341475382" lon="11.305276811416189"><ele>879.5</ele><time>2026-04-10T13:12:37Z</time></trkpt><trkpt lat="44.13386439974338" lon="11.30506384665942"><ele>883.75</ele><time>2026-04-10T13:12:38Z</time></trkpt><trkpt lat="44.133839434665944" lon="11.304875218092965"><ele>888.0</ele><time>2026-04-10T13:12:39Z</time></trkpt><trkpt lat="44.133781014831214" lon="11.304724190326487"><ele>888.0</ele><time>2026-04-10T13:12:40Z</time></trkpt><trkpt lat="44.13366070404493" lon="11.304644844370927"><ele>888.0</ele><time>2026-04-10T13:12:41Z</time></trkpt><trkpt lat="44.13353417898806" lon="11.30463094948802"><ele>888.0</ele><time>2026-04-10T13:12:42Z</time></trkpt><trkpt lat="44.133415785092204" lon="11.304706942072771"><ele>888.0</ele><time>2026-04-10T13:12:43Z</time></trkpt><trkpt lat="44.13329724212849" lon="11.304835503178827"><ele>890.3333333333333</ele><time>2026-04-10T13:12:44Z</time></trkpt><trkpt lat="44.133149810912336" lon="11.30494417110889"><ele>892.6666666666666</ele><time>2026-04-10T13:12:45Z</time></trkpt><trkpt lat="44.1329811299552" lon="11.304996216884467"><ele>895.0</ele><time>2026-04-10T13:12:46Z</time></trkpt><trkpt lat="44.132833962332334" lon="11.30501917733448"><ele>895.0</ele><time>2026-04-10T13:12:47Z</time></trkpt><trkpt lat="44.13268029391731" lon="11.305048710017934"><ele>895.0</ele><time>2026-04-10T13:12:48Z</time></trkpt><trkpt lat="44.13252830496954" lon="11.30504222067615"><ele>895.0</ele><time>2026-04-10T13:12:49Z</time></trkpt><trkpt lat="44.132392236670896" lon="11.30507048247665"><ele>895.0</ele><time>2026-04-10T13:12:50Z</time></trkpt><trkpt lat="44.13225188079846" lon="11.305020446561455"><ele>892.3333333333333</ele><time>2026-04-10T13:12:51Z</time></trkpt><trkpt lat="44.13210299084724" lon="11.304920967363644"><ele>889.6666666666667</ele><time>2026-04-10T13:12:52Z</time></trkpt><trkpt lat="44.13194318239298" lon="11.304778505716829"><ele>887.0</ele><time>2026-04-10T13:12:53Z</time></trkpt><trkpt lat="44.13178011821525" lon="11.304641258746354"><ele>892.0</ele><time>2026-04-10T13:12:54Z</time></trkpt><trkpt lat="44.13160921506615" lon="11.304483375098803"><ele>897.0</ele><time>2026-04-10T13:12:55Z</time></trkpt><trkpt lat="44.131413644704146" lon="11.30433678297647"><ele>902.0</ele><time>2026-04-10T13:12:56Z</time></trkpt><trkpt lat="44.131182558623316" lon="11.304261526873235"><ele>902.0</ele><time>2026-04-10T13:12:57Z</time></trkpt><trkpt lat="44.13092472913832" lon="11.304200702776164"><ele>902.0</ele><time>2026-04-10T13:12:58Z</time></trkpt><trkpt lat="44.13065753729243" lon="11.304128589928753"><ele>899.0</ele><time>2026-04-10T13:12:59Z</time></trkpt><trkpt lat="44.130398180175405" lon="11.304044615705687"><ele>896.0</ele><time>2026-04-10T13:13:00Z</time></trkpt><trkpt lat="44.13013931396417" lon="11.30393205897433"><ele>907.0</ele><time>2026-04-10T13:13:01Z</time></trkpt><trkpt lat="44.12989268459671" lon="11.303805161618541"><ele>918.0</ele><time>2026-04-10T13:13:02Z</time></trkpt><trkpt lat="44.12967456981761" lon="11.3037039415743"><ele>918.0</ele><time>2026-04-10T13:13:03Z</time></trkpt><trkpt lat="44.12949882948124" lon="11.30363964816884"><ele>918.0</ele><time>2026-04-10T13:13:04Z</time></trkpt><trkpt lat="44.12935284669611" lon="11.30362430022599"><ele>918.0</ele><time>2026-04-10T13:13:05Z</time></trkpt><trkpt lat="44.12922152170674" lon="11.303650942199454"><ele>918.0</ele><time>2026-04-10T13:13:06Z</time></trkpt><trkpt lat="44.129098170667824" lon="11.303629123283118"><ele>918.0</ele><time>2026-04-10T13:13:07Z</time></trkpt><trkpt lat="44.12902015252917" lon="11.303485847196631"><ele>918.0</ele><time>2026-04-10T13:13:08Z</time></trkpt><trkpt lat="44.12896576997712" lon="11.303288390348028"><ele>918.0</ele><time>2026-04-10T13:13:09Z</time></trkpt><trkpt lat="44.12893040446648" lon="11.303029117576305"><ele>920.3333333333333</ele><time>2026-04-10T13:13:10Z</time></trkpt><trkpt lat="44.12886809191643" lon="11.302798637954407"><ele>922.6666666666666</ele><time>2026-04-10T13:13:11Z</time></trkpt><trkpt lat="44.128747353274534" lon="11.3026353324167"><ele>925.0</ele><time>2026-04-10T13:13:12Z</time></trkpt><trkpt lat="44.128626276796844" lon="11.302499005768187"><ele>925.0</ele><time>2026-04-10T13:13:13Z</time></trkpt><trkpt lat="44.12832493570164" lon="11.302344550107248"><ele>925.0</ele><time>2026-04-10T13:13:14Z</time></trkpt><trkpt lat="44.1281080761862" lon="11.302232491810209"><ele>926.6666666666666</ele><time>2026-04-10T13:13:15Z</time></trkpt><trkpt lat="44.1278899148413" lon="11.302143687728197"><ele>928.3333333333333</ele><time>2026-04-10T13:13:16Z</time></trkpt><trkpt lat="44.1277028982947" lon="11.30203764528357"><ele>930.0</ele><time>2026-04-10T13:13:17Z</time></trkpt><trkpt lat="44.12755047200489" lon="11.301878207383892"><ele>923.0</ele><time>2026-04-10T13:13:18Z</time></trkpt><trkpt lat="44.12738067995964" lon="11.301688729647482"><ele>916.0</ele><time>2026-04-10T13:13:19Z</time></trkpt><trkpt lat="44.12719943574045" lon="11.301481938743054"><ele>924.0</ele><time>2026-04-10T13:13:20Z</time></trkpt><trkpt lat="44.127014395957" lon="11.301272466644065"><ele>932.0</ele><time>2026-04-10T13:13:21Z</time></trkpt><trkpt lat="44.12682313501793" lon="11.301064393565587"><ele>932.0</ele><time>2026-04-10T13:13:22Z</time></trkpt><trkpt lat="44.1266201732867" lon="11.300894382950185"><ele>932.0</ele><time>2026-04-10T13:13:23Z</time></trkpt><trkpt lat="44.12642273711935" lon="11.300770262876679"><ele>928.0</ele><time>2026-04-10T13:13:24Z</time></trkpt><trkpt lat="44.12621988457236" lon="11.300668930586228"><ele>924.0</ele><time>2026-04-10T13:13:25Z</time></trkpt><trkpt lat="44.12602559834197" lon="11.300604975309474"><ele>920.0</ele><time>2026-04-10T13:13:26Z</time></trkpt><trkpt lat="44.125760321316314" lon="11.300605495972768"><ele>917.3333333333334</ele><time>2026-04-10T13:13:27Z</time></trkpt><trkpt lat="44.12553037919915" lon="11.300603508363345"><ele>914.6666666666667</ele><time>2026-04-10T13:13:28Z</time></trkpt><trkpt lat="44.12531146528908" lon="11.30059166989665"><ele>912.0</ele><time>2026-04-10T13:13:29Z</time></trkpt><trkpt lat="44.12510278254616" lon="11.30056594738497"><ele>919.0</ele><time>2026-04-10T13:13:30Z</time></trkpt><trkpt lat="44.124902842693025" lon="11.300541171216828"><ele>926.0</ele><time>2026-04-10T13:13:31Z</time></trkpt><trkpt lat="44.1247163805038" lon="11.300536871515607"><ele>933.0</ele><time>2026-04-10T13:13:32Z</time></trkpt><trkpt lat="44.1245352098765" lon="11.300572734044117"><ele>926.6666666666667</ele><time>2026-04-10T13:13:33Z</time></trkpt><trkpt lat="44.124360948245645" lon="11.300647704983371"><ele>920.3333333333334</ele><time>2026-04-10T13:13:34Z</time></trkpt><trkpt lat="44.12419302225161" lon="11.300727518805642"><ele>914.0</ele><time>2026-04-10T13:13:35Z</time></trkpt><trkpt lat="44.1240462793675" lon="11.30080146341593"><ele>914.0</ele><time>2026-04-10T13:13:36Z</time></trkpt><trkpt lat="44.12389027600989" lon="11.300817928866866"><ele>914.0</ele><time>2026-04-10T13:13:37Z</time></trkpt><trkpt lat="44.12372743444376" lon="11.300793942109863"><ele>914.0</ele><time>2026-04-10T13:13:38Z</time></trkpt><trkpt lat="44.12356659602245" lon="11.300765969900992"><ele>914.0</ele><time>2026-04-10T13:13:39Z</time></trkpt><trkpt lat="44.12341820751183" lon="11.30073944485803"><ele>914.0</ele><time>2026-04-10T13:13:40Z</time></trkpt><trkpt lat="44.12327502624069" lon="11.30071241103886"><ele>914.0</ele><time>2026-04-10T13:13:41Z</time></trkpt><trkpt lat="44.12314373986529" lon="11.300710651422536"><ele>914.0</ele><time>2026-04-10T13:13:42Z</time></trkpt><trkpt lat="44.12301586072301" lon="11.300666961860959"><ele>910.25</ele><time>2026-04-10T13:13:43Z</time></trkpt><trkpt lat="44.12289734321781" lon="11.300580747689246"><ele>906.5</ele><time>2026-04-10T13:13:44Z</time></trkpt><trkpt lat="44.12278709911083" lon="11.300457030879027"><ele>902.75</ele><time>2026-04-10T13:13:45Z</time></trkpt><trkpt lat="44.12268121536359" lon="11.300276478948"><ele>899.0</ele><time>2026-04-10T13:13:46Z</time></trkpt><trkpt lat="44.12256837514925" lon="11.300036226996966"><ele>900.5</ele><time>2026-04-10T13:13:47Z</time></trkpt><trkpt lat="44.12248182260797" lon="11.299734838128682"><ele>902.0</ele><time>2026-04-10T13:13:48Z</time></trkpt><trkpt lat="44.12235958756871" lon="11.299437729599273"><ele>896.3333333333334</ele><time>2026-04-10T13:13:49Z</time></trkpt><trkpt lat="44.12224494403427" lon="11.299163423482755"><ele>890.6666666666667</ele><time>2026-04-10T13:13:50Z</time></trkpt><trkpt lat="44.12214225917707" lon="11.298906704294666"><ele>885.0</ele><time>2026-04-10T13:13:51Z</time></trkpt><trkpt lat="44.12205623342002" lon="11.298659605175652"><ele>885.0</ele><time>2026-04-10T13:13:52Z</time></trkpt><trkpt lat="44.121981894606236" lon="11.298401645777796"><ele>885.0</ele><time>2026-04-10T13:13:53Z</time></trkpt><trkpt lat="44.1219661724087" lon="11.29809470954713"><ele>885.0</ele><time>2026-04-10T13:13:54Z</time></trkpt><trkpt lat="44.12197752852975" lon="11.297766151192839"><ele>885.5</ele><time>2026-04-10T13:13:55Z</time></trkpt><trkpt lat="44.12200063162064" lon="11.297432056053793"><ele>886.0</ele><time>2026-04-10T13:13:56Z</time></trkpt><trkpt lat="44.12202461178202" lon="11.297113629266077"><ele>886.0</ele><time>2026-04-10T13:13:57Z</time></trkpt><trkpt lat="44.12203879152257" lon="11.296826918496372"><ele>886.0</ele><time>2026-04-10T13:13:58Z</time></trkpt><trkpt lat="44.12205048600108" lon="11.296570960979556"><ele>886.0</ele><time>2026-04-10T13:13:59Z</time></trkpt><trkpt lat="44.12205164427657" lon="11.296342468509708"><ele>886.0</ele><time>2026-04-10T13:14:00Z</time></trkpt><trkpt lat="44.12201916751517" lon="11.296134277511173"><ele>886.0</ele><time>2026-04-10T13:14:01Z</time></trkpt><trkpt lat="44.12193247814838" lon="11.295953333389871"><ele>886.0</ele><time>2026-04-10T13:14:02Z</time></trkpt><trkpt lat="44.12180791935039" lon="11.295815508865703"><ele>886.0</ele><time>2026-04-10T13:14:03Z</time></trkpt><trkpt lat="44.12166014667202" lon="11.295736470032562"><ele>886.0</ele><time>2026-04-10T13:14:04Z</time></trkpt><trkpt lat="44.121521391890646" lon="11.295666137480893"><ele>886.0</ele><time>2026-04-10T13:14:05Z</time></trkpt><trkpt lat="44.121409540579826" lon="11.295500003901457"><ele>879.3333333333333</ele><time>2026-04-10T13:14:06Z</time></trkpt><trkpt lat="44.121277099570314" lon="11.295283849106667"><ele>872.6666666666667</ele><time>2026-04-10T13:14:07Z</time></trkpt><trkpt lat="44.12115063046151" lon="11.295036803119327"><ele>866.0</ele><time>2026-04-10T13:14:08Z</time></trkpt><trkpt lat="44.12101570683947" lon="11.294794382879472"><ele>867.6666666666667</ele><time>2026-04-10T13:14:09Z</time></trkpt><trkpt lat="44.1208964915121" lon="11.294531590891964"><ele>869.3333333333333</ele><time>2026-04-10T13:14:10Z</time></trkpt><trkpt lat="44.12080498148184" lon="11.294262584478886"><ele>871.0</ele><time>2026-04-10T13:14:11Z</time></trkpt><trkpt lat="44.12070470086801" lon="11.293986656650546"><ele>866.0</ele><time>2026-04-10T13:14:12Z</time></trkpt><trkpt lat="44.12056820295099" lon="11.293723540474806"><ele>861.0</ele><time>2026-04-10T13:14:13Z</time></trkpt><trkpt lat="44.120390349340845" lon="11.293517396851696"><ele>861.0</ele><time>2026-04-10T13:14:14Z</time></trkpt><trkpt lat="44.12021620831647" lon="11.293347416060453"><ele>861.0</ele><time>2026-04-10T13:14:15Z</time></trkpt><trkpt lat="44.12002796485928" lon="11.293133015464115"><ele>860.6666666666667</ele><time>2026-04-10T13:14:16Z</time></trkpt><trkpt lat="44.11986154548375" lon="11.292947708846043"><ele>860.3333333333334</ele><time>2026-04-10T13:14:17Z</time></trkpt><trkpt lat="44.11971091118511" lon="11.292771130150161"><ele>860.0</ele><time>2026-04-10T13:14:18Z</time></trkpt><trkpt lat="44.11955926311518" lon="11.292589966759218"><ele>860.0</ele><time>2026-04-10T13:14:19Z</time></trkpt><trkpt lat="44.1194227735574" lon="11.292399841289685"><ele>860.0</ele><time>2026-04-10T13:14:20Z</time></trkpt><trkpt lat="44.11931623978915" lon="11.29218643564552"><ele>860.0</ele><time>2026-04-10T13:14:21Z</time></trkpt><trkpt lat="44.11925348406944" lon="11.291921171015922"><ele>860.6666666666667</ele><time>2026-04-10T13:14:22Z</time></trkpt><trkpt lat="44.11921717819275" lon="11.291651444320896"><ele>861.3333333333333</ele><time>2026-04-10T13:14:23Z</time></trkpt><trkpt lat="44.119211095457345" lon="11.29134131737865"><ele>862.0</ele><time>2026-04-10T13:14:24Z</time></trkpt><trkpt lat="44.119205117752124" lon="11.291003614757049"><ele>863.0</ele><time>2026-04-10T13:14:25Z</time></trkpt><trkpt lat="44.11921554085933" lon="11.290661026522349"><ele>864.0</ele><time>2026-04-10T13:14:26Z</time></trkpt><trkpt lat="44.1192110246145" lon="11.290346122010114"><ele>866.0</ele><time>2026-04-10T13:14:27Z</time></trkpt><trkpt lat="44.11920515163938" lon="11.29006931244768"><ele>868.0</ele><time>2026-04-10T13:14:28Z</time></trkpt><trkpt lat="44.11919847281547" lon="11.28981613654156"><ele>870.0</ele><time>2026-04-10T13:14:29Z</time></trkpt><trkpt lat="44.119161867691936" lon="11.289590323144743"><ele>869.6666666666667</ele><time>2026-04-10T13:14:30Z</time></trkpt><trkpt lat="44.1190718976399" lon="11.289382268791208"><ele>869.3333333333334</ele><time>2026-04-10T13:14:31Z</time></trkpt><trkpt lat="44.11892078977659" lon="11.289222418642408"><ele>869.0</ele><time>2026-04-10T13:14:32Z</time></trkpt><trkpt lat="44.118722853009054" lon="11.289088158131475"><ele>869.0</ele><time>2026-04-10T13:14:33Z</time></trkpt><trkpt lat="44.11852356381444" lon="11.28894523031015"><ele>869.0</ele><time>2026-04-10T13:14:34Z</time></trkpt><trkpt lat="44.11832876202582" lon="11.288787356734986"><ele>865.6666666666667</ele><time>2026-04-10T13:14:35Z</time></trkpt><trkpt lat="44.118148493114106" lon="11.288619466430665"><ele>862.3333333333333</ele><time>2026-04-10T13:14:36Z</time></trkpt><trkpt lat="44.11797939018302" lon="11.288468264007514"><ele>859.0</ele><time>2026-04-10T13:14:37Z</time></trkpt><trkpt lat="44.11782575775085" lon="11.288303921010218"><ele>859.3333333333333</ele><time>2026-04-10T13:14:38Z</time></trkpt><trkpt lat="44.11771782317903" lon="11.288090584558697"><ele>859.6666666666667</ele><time>2026-04-10T13:14:39Z</time></trkpt><trkpt lat="44.11764443026131" lon="11.287868626318255"><ele>860.0</ele><time>2026-04-10T13:14:40Z</time></trkpt><trkpt lat="44.1176100087348" lon="11.287606374402507"><ele>860.0</ele><time>2026-04-10T13:14:41Z</time></trkpt><trkpt lat="44.117579033175744" lon="11.28733069613055"><ele>860.0</ele><time>2026-04-10T13:14:42Z</time></trkpt><trkpt lat="44.11755355308135" lon="11.287106157915574"><ele>860.0</ele><time>2026-04-10T13:14:43Z</time></trkpt><trkpt lat="44.1175023783828" lon="11.286908068644099"><ele>861.25</ele><time>2026-04-10T13:14:44Z</time></trkpt><trkpt lat="44.11741949724586" lon="11.286749330397003"><ele>862.5</ele><time>2026-04-10T13:14:45Z</time></trkpt><trkpt lat="44.1172965498795" lon="11.286645722325853"><ele>863.75</ele><time>2026-04-10T13:14:46Z</time></trkpt><trkpt lat="44.11715310750901" lon="11.286614461779184"><ele>865.0</ele><time>2026-04-10T13:14:47Z</time></trkpt><trkpt lat="44.11701344682142" lon="11.286666963876607"><ele>869.3333333333333</ele><time>2026-04-10T13:14:48Z</time></trkpt><trkpt lat="44.11689467126234" lon="11.286778315847027"><ele>873.6666666666667</ele><time>2026-04-10T13:14:49Z</time></trkpt><trkpt lat="44.11681142435878" lon="11.286974462540922"><ele>878.0</ele><time>2026-04-10T13:14:50Z</time></trkpt><trkpt lat="44.11674962815456" lon="11.287209273290243"><ele>874.3333333333334</ele><time>2026-04-10T13:14:51Z</time></trkpt><trkpt lat="44.116676826009474" lon="11.287468031567235"><ele>870.6666666666667</ele><time>2026-04-10T13:14:52Z</time></trkpt><trkpt lat="44.1165795971139" lon="11.287718426244924"><ele>867.0</ele><time>2026-04-10T13:14:53Z</time></trkpt><trkpt lat="44.11650162148781" lon="11.28790589538089"><ele>865.75</ele><time>2026-04-10T13:14:54Z</time></trkpt><trkpt lat="44.11645127155578" lon="11.28810100173833"><ele>864.5</ele><time>2026-04-10T13:14:55Z</time></trkpt><trkpt lat="44.11637463002638" lon="11.288234915103828"><ele>863.25</ele><time>2026-04-10T13:14:56Z</time></trkpt><trkpt lat="44.11626122543739" lon="11.288337209966684"><ele>862.0</ele><time>2026-04-10T13:14:57Z</time></trkpt><trkpt lat="44.11611868829118" lon="11.288388009241572"><ele>862.0</ele><time>2026-04-10T13:14:58.001Z</time></trkpt><trkpt lat="44.115976264238384" lon="11.28833466357309"><ele>862.0</ele><time>2026-04-10T13:14:59.001Z</time></trkpt><trkpt lat="44.115827087" lon="11.288253906248213"><ele>862.0</ele><time>2026-04-10T13:15:00.001Z</time></trkpt><trkpt lat="44.115684347893875" lon="11.288125102348285"><ele>859.6666666666666</ele><time>2026-04-10T13:15:01.001Z</time></trkpt><trkpt lat="44.11558749416509" lon="11.287941348310934"><ele>857.3333333333333</ele><time>2026-04-10T13:15:02.001Z</time></trkpt><trkpt lat="44.115513903331596" lon="11.287707739384754"><ele>855.0</ele><time>2026-04-10T13:15:03.001Z</time></trkpt><trkpt lat="44.11544803201617" lon="11.287427783670713"><ele>857.3333333333333</ele><time>2026-04-10T13:15:04.001Z</time></trkpt><trkpt lat="44.11537824364028" lon="11.287159492252163"><ele>859.6666666666666</ele><time>2026-04-10T13:15:05.001Z</time></trkpt><trkpt lat="44.11528893124236" lon="11.286924050064693"><ele>862.0</ele><time>2026-04-10T13:15:06.001Z</time></trkpt><trkpt lat="44.11516968410551" lon="11.286718127416302"><ele>862.0</ele><time>2026-04-10T13:15:07.001Z</time></trkpt><trkpt lat="44.11500482752539" lon="11.286545596493296"><ele>862.0</ele><time>2026-04-10T13:15:08.001Z</time></trkpt><trkpt lat="44.114810569643524" lon="11.286424870115969"><ele>862.0</ele><time>2026-04-10T13:15:09.001Z</time></trkpt><trkpt lat="44.11459083919882" lon="11.286359933940636"><ele>862.0</ele><time>2026-04-10T13:15:10.001Z</time></trkpt><trkpt lat="44.11434300560411" lon="11.286329158351014"><ele>862.0</ele><time>2026-04-10T13:15:11.001Z</time></trkpt><trkpt lat="44.11410890620324" lon="11.286265427143752"><ele>856.5</ele><time>2026-04-10T13:15:12.001Z</time></trkpt><trkpt lat="44.11388600958759" lon="11.286126396253897"><ele>851.0</ele><time>2026-04-10T13:15:13.001Z</time></trkpt><trkpt lat="44.11365259963288" lon="11.285965827296167"><ele>851.0</ele><time>2026-04-10T13:15:14.001Z</time></trkpt><trkpt lat="44.11340701867743" lon="11.285798954605367"><ele>851.0</ele><time>2026-04-10T13:15:15.001Z</time></trkpt><trkpt lat="44.113164565087324" lon="11.285613090591555"><ele>853.0</ele><time>2026-04-10T13:15:16.001Z</time></trkpt><trkpt lat="44.11292462335336" lon="11.285444360565002"><ele>855.0</ele><time>2026-04-10T13:15:17.001Z</time></trkpt><trkpt lat="44.11271719157405" lon="11.28529988882532"><ele>855.0</ele><time>2026-04-10T13:15:18.001Z</time></trkpt><trkpt lat="44.11252389010086" lon="11.285178712275071"><ele>855.0</ele><time>2026-04-10T13:15:19.001Z</time></trkpt><trkpt lat="44.11233570940854" lon="11.285090363294072"><ele>855.0</ele><time>2026-04-10T13:15:20.001Z</time></trkpt><trkpt lat="44.112154858043695" lon="11.285054739476065"><ele>854.25</ele><time>2026-04-10T13:15:21.001Z</time></trkpt><trkpt lat="44.11201118512776" lon="11.285056576748007"><ele>853.5</ele><time>2026-04-10T13:15:22.001Z</time></trkpt><trkpt lat="44.1118823437186" lon="11.285052172542184"><ele>852.75</ele><time>2026-04-10T13:15:23.001Z</time></trkpt><trkpt lat="44.11175734847606" lon="11.285040194370344"><ele>852.0</ele><time>2026-04-10T13:15:24.001Z</time></trkpt><trkpt lat="44.1116280875273" lon="11.285028526807187"><ele>850.8</ele><time>2026-04-10T13:15:25.001Z</time></trkpt><trkpt lat="44.111513362814165" lon="11.28501300787011"><ele>849.6</ele><time>2026-04-10T13:15:26.001Z</time></trkpt><trkpt lat="44.111408186466655" lon="11.284980082331499"><ele>848.4</ele><time>2026-04-10T13:15:27.001Z</time></trkpt><trkpt lat="44.11132449607266" lon="11.284931150759896"><ele>847.1999999999999</ele><time>2026-04-10T13:15:28.001Z</time></trkpt><trkpt lat="44.111247751843" lon="11.284876535102805"><ele>846.0</ele><time>2026-04-10T13:15:29.001Z</time></trkpt><trkpt lat="44.11118079991125" lon="11.284826522992795"><ele>846.0</ele><time>2026-04-10T13:15:30.001Z</time></trkpt><trkpt lat="44.111120735417344" lon="11.284776443391712"><ele>846.0</ele><time>2026-04-10T13:15:31.001Z</time></trkpt><trkpt lat="44.11106367942825" lon="11.284729851325718"><ele>846.0</ele><time>2026-04-10T13:15:32.001Z</time></trkpt><trkpt lat="44.11100171541237" lon="11.28467995535426"><ele>846.0</ele><time>2026-04-10T13:15:33.001Z</time></trkpt><trkpt lat="44.110931419644565" lon="11.284626479401288"><ele>846.0</ele><time>2026-04-10T13:15:34.001Z</time></trkpt><trkpt lat="44.11086314202458" lon="11.284569703792965"><ele>846.0</ele><time>2026-04-10T13:15:35.001Z</time></trkpt><trkpt lat="44.110796304367895" lon="11.284509106184542"><ele>846.0</ele><time>2026-04-10T13:15:36.001Z</time></trkpt><trkpt lat="44.11072598795273" lon="11.284450956818715"><ele>846.8333333333334</ele><time>2026-04-10T13:15:37.001Z</time></trkpt><trkpt lat="44.11065490140277" lon="11.284396657314323"><ele>847.6666666666667</ele><time>2026-04-10T13:15:38.001Z</time></trkpt><trkpt lat="44.110585256276075" lon="11.284335671638512"><ele>848.5</ele><time>2026-04-10T13:15:39Z</time></trkpt><trkpt lat="44.11051338119853" lon="11.284279222918245"><ele>849.3333333333334</ele><time>2026-04-10T13:15:40Z</time></trkpt><trkpt lat="44.110437085760545" lon="11.284219391215478"><ele>850.1666666666667</ele><time>2026-04-10T13:15:41Z</time></trkpt><trkpt lat="44.110352357357264" lon="11.284144952790685"><ele>851.0</ele><time>2026-04-10T13:15:42Z</time></trkpt><trkpt lat="44.110256339285534" lon="11.284070213631553"><ele>851.0</ele><time>2026-04-10T13:15:43Z</time></trkpt><trkpt lat="44.1101423471232" lon="11.283982153521624"><ele>851.0</ele><time>2026-04-10T13:15:44Z</time></trkpt><trkpt lat="44.11001644074336" lon="11.28388113129256"><ele>851.0</ele><time>2026-04-10T13:15:45Z</time></trkpt><trkpt lat="44.10988472252502" lon="11.283776853885197"><ele>851.0</ele><time>2026-04-10T13:15:46Z</time></trkpt><trkpt lat="44.10973707638252" lon="11.283679211191162"><ele>854.0</ele><time>2026-04-10T13:15:47Z</time></trkpt><trkpt lat="44.109578077752495" lon="11.283598602501968"><ele>857.0</ele><time>2026-04-10T13:15:48Z</time></trkpt><trkpt lat="44.10940943987273" lon="11.283544814730222"><ele>860.0</ele><time>2026-04-10T13:15:49Z</time></trkpt><trkpt lat="44.10925147903023" lon="11.283523112595605"><ele>860.0</ele><time>2026-04-10T13:15:50Z</time></trkpt><trkpt lat="44.10910140917124" lon="11.283499740319918"><ele>860.0</ele><time>2026-04-10T13:15:51Z</time></trkpt><trkpt lat="44.108983303695304" lon="11.283476858147994"><ele>860.0</ele><time>2026-04-10T13:15:52Z</time></trkpt><trkpt lat="44.10888016080142" lon="11.283464875886036"><ele>860.0</ele><time>2026-04-10T13:15:53Z</time></trkpt><trkpt lat="44.10876688168419" lon="11.283465271962621"><ele>861.0</ele><time>2026-04-10T13:15:54Z</time></trkpt><trkpt lat="44.10864625796716" lon="11.28347979282171"><ele>862.0</ele><time>2026-04-10T13:15:55Z</time></trkpt><trkpt lat="44.108516552574685" lon="11.283528649516409"><ele>863.0</ele><time>2026-04-10T13:15:56Z</time></trkpt><trkpt lat="44.10837902163829" lon="11.283606345159352"><ele>864.0</ele><time>2026-04-10T13:15:57Z</time></trkpt><trkpt lat="44.10823057487218" lon="11.283686627782915"><ele>867.6666666666667</ele><time>2026-04-10T13:15:58Z</time></trkpt><trkpt lat="44.108066296278494" lon="11.283742869114587"><ele>871.3333333333334</ele><time>2026-04-10T13:15:59Z</time></trkpt><trkpt lat="44.10790432018581" lon="11.283769497960463"><ele>875.0</ele><time>2026-04-10T13:16:00Z</time></trkpt><trkpt lat="44.1077543290882" lon="11.283784531845525"><ele>875.0</ele><time>2026-04-10T13:16:01Z</time></trkpt><trkpt lat="44.10758473339914" lon="11.283792862295334"><ele>875.0</ele><time>2026-04-10T13:16:02Z</time></trkpt><trkpt lat="44.10740646292006" lon="11.283803523657713"><ele>875.0</ele><time>2026-04-10T13:16:03Z</time></trkpt><trkpt lat="44.107229929895624" lon="11.283817324296804"><ele>875.0</ele><time>2026-04-10T13:16:04Z</time></trkpt><trkpt lat="44.107073695935746" lon="11.28381970308056"><ele>875.0</ele><time>2026-04-10T13:16:05Z</time></trkpt><trkpt lat="44.10691649555244" lon="11.283805609589777"><ele>875.0</ele><time>2026-04-10T13:16:06Z</time></trkpt><trkpt lat="44.10675539617838" lon="11.283755690090894"><ele>875.0</ele><time>2026-04-10T13:16:07Z</time></trkpt><trkpt lat="44.106590932078696" lon="11.283668873154424"><ele>875.0</ele><time>2026-04-10T13:16:08Z</time></trkpt><trkpt lat="44.106437697025164" lon="11.283527026502822"><ele>875.0</ele><time>2026-04-10T13:16:09Z</time></trkpt><trkpt lat="44.10629790531512" lon="11.283343823625344"><ele>876.3333333333334</ele><time>2026-04-10T13:16:10Z</time></trkpt><trkpt lat="44.10617193283104" lon="11.283133471260326"><ele>877.6666666666667</ele><time>2026-04-10T13:16:11Z</time></trkpt><trkpt lat="44.10603837429998" lon="11.28289855652484"><ele>879.0</ele><time>2026-04-10T13:16:12Z</time></trkpt><trkpt lat="44.105893416547495" lon="11.282658166802202"><ele>879.3333333333333</ele><time>2026-04-10T13:16:13Z</time></trkpt><trkpt lat="44.10573625443054" lon="11.282430003091353"><ele>879.6666666666666</ele><time>2026-04-10T13:16:14Z</time></trkpt><trkpt lat="44.105586056560334" lon="11.282201576465546"><ele>880.0</ele><time>2026-04-10T13:16:15Z</time></trkpt><trkpt lat="44.10544793099689" lon="11.281997055975797"><ele>880.0</ele><time>2026-04-10T13:16:16Z</time></trkpt><trkpt lat="44.10532071014999" lon="11.281808058645108"><ele>880.0</ele><time>2026-04-10T13:16:17Z</time></trkpt><trkpt lat="44.10519913579306" lon="11.281631286579913"><ele>880.0</ele><time>2026-04-10T13:16:18Z</time></trkpt><trkpt lat="44.10507505915144" lon="11.281457393348083"><ele>879.3333333333333</ele><time>2026-04-10T13:16:19Z</time></trkpt><trkpt lat="44.10495150665145" lon="11.281286557696584"><ele>878.6666666666667</ele><time>2026-04-10T13:16:20Z</time></trkpt><trkpt lat="44.104829656364274" lon="11.281118543147157"><ele>878.0</ele><time>2026-04-10T13:16:21Z</time></trkpt><trkpt lat="44.10469556078129" lon="11.280942618124906"><ele>878.0</ele><time>2026-04-10T13:16:22Z</time></trkpt><trkpt lat="44.104543466634304" lon="11.28075390341438"><ele>878.0</ele><time>2026-04-10T13:16:23Z</time></trkpt><trkpt lat="44.10437750549799" lon="11.280548198600261"><ele>878.0</ele><time>2026-04-10T13:16:24Z</time></trkpt><trkpt lat="44.104209360538206" lon="11.280330745187868"><ele>875.5</ele><time>2026-04-10T13:16:25Z</time></trkpt><trkpt lat="44.10404008659286" lon="11.280109212098628"><ele>873.0</ele><time>2026-04-10T13:16:26Z</time></trkpt><trkpt lat="44.10387548277588" lon="11.279886132771056"><ele>876.0</ele><time>2026-04-10T13:16:27Z</time></trkpt><trkpt lat="44.1037289992445" lon="11.27967251038627"><ele>879.0</ele><time>2026-04-10T13:16:28Z</time></trkpt><trkpt lat="44.10358321787212" lon="11.279446649275995"><ele>882.0</ele><time>2026-04-10T13:16:29Z</time></trkpt><trkpt lat="44.103439037515685" lon="11.279216438123512"><ele>882.0</ele><time>2026-04-10T13:16:30Z</time></trkpt><trkpt lat="44.103295795752565" lon="11.278992372342172"><ele>882.0</ele><time>2026-04-10T13:16:31Z</time></trkpt><trkpt lat="44.10312155124289" lon="11.278789006908264"><ele>882.0</ele><time>2026-04-10T13:16:32Z</time></trkpt><trkpt lat="44.10292933258714" lon="11.27861134419273"><ele>882.3333333333333</ele><time>2026-04-10T13:16:33Z</time></trkpt><trkpt lat="44.10276332185995" lon="11.278440439413721"><ele>882.6666666666666</ele><time>2026-04-10T13:16:34Z</time></trkpt><trkpt lat="44.10260794185515" lon="11.278294231093184"><ele>883.0</ele><time>2026-04-10T13:16:35Z</time></trkpt><trkpt lat="44.10246085726309" lon="11.27818002966024"><ele>880.6666666666666</ele><time>2026-04-10T13:16:36Z</time></trkpt><trkpt lat="44.10235505081384" lon="11.278030513472006"><ele>878.3333333333333</ele><time>2026-04-10T13:16:37Z</time></trkpt><trkpt lat="44.10227616085086" lon="11.277851382619337"><ele>876.0</ele><time>2026-04-10T13:16:38Z</time></trkpt><trkpt lat="44.10225209151506" lon="11.277622272680066"><ele>876.0</ele><time>2026-04-10T13:16:39Z</time></trkpt><trkpt lat="44.102248578225236" lon="11.277365124483477"><ele>876.0</ele><time>2026-04-10T13:16:40Z</time></trkpt><trkpt lat="44.10223561612228" lon="11.277097650969006"><ele>876.0</ele><time>2026-04-10T13:16:41Z</time></trkpt><trkpt lat="44.102183788983766" lon="11.276817559729746"><ele>879.6666666666667</ele><time>2026-04-10T13:16:42Z</time></trkpt><trkpt lat="44.102105698570014" lon="11.276550323135256"><ele>883.3333333333334</ele><time>2026-04-10T13:16:43Z</time></trkpt><trkpt lat="44.102011911860735" lon="11.276333653834836"><ele>887.0</ele><time>2026-04-10T13:16:44Z</time></trkpt><trkpt lat="44.10190237965534" lon="11.27616082132339"><ele>889.6666666666667</ele><time>2026-04-10T13:16:45Z</time></trkpt><trkpt lat="44.10177704766285" lon="11.276025963517721"><ele>892.3333333333333</ele><time>2026-04-10T13:16:46Z</time></trkpt><trkpt lat="44.10163305052376" lon="11.275943675087014"><ele>895.0</ele><time>2026-04-10T13:16:47Z</time></trkpt><trkpt lat="44.10147249865654" lon="11.27593816390406"><ele>895.0</ele><time>2026-04-10T13:16:48Z</time></trkpt><trkpt lat="44.10134162469956" lon="11.276012162934958"><ele>895.0</ele><time>2026-04-10T13:16:49Z</time></trkpt><trkpt lat="44.10119639902078" lon="11.27607393081339"><ele>895.0</ele><time>2026-04-10T13:16:50Z</time></trkpt><trkpt lat="44.101060231488354" lon="11.276064977697715"><ele>895.0</ele><time>2026-04-10T13:16:51Z</time></trkpt><trkpt lat="44.10092153300042" lon="11.275999246449327"><ele>895.0</ele><time>2026-04-10T13:16:52Z</time></trkpt><trkpt lat="44.10076716656699" lon="11.275902043225752"><ele>895.0</ele><time>2026-04-10T13:16:53Z</time></trkpt><trkpt lat="44.10063349860819" lon="11.275742802485615"><ele>895.0</ele><time>2026-04-10T13:16:54Z</time></trkpt><trkpt lat="44.100516145580904" lon="11.275561421492393"><ele>896.6666666666666</ele><time>2026-04-10T13:16:55Z</time></trkpt><trkpt lat="44.10038018832625" lon="11.275359706025135"><ele>898.3333333333333</ele><time>2026-04-10T13:16:56Z</time></trkpt><trkpt lat="44.100249155687514" lon="11.275194755614988"><ele>900.0</ele><time>2026-04-10T13:16:57Z</time></trkpt><trkpt lat="44.10007843711178" lon="11.275096610169319"><ele>901.3333333333333</ele><time>2026-04-10T13:16:58Z</time></trkpt><trkpt lat="44.09989294780015" lon="11.275005024405885"><ele>902.6666666666666</ele><time>2026-04-10T13:16:59Z</time></trkpt><trkpt lat="44.099687091905125" lon="11.275065025702721"><ele>904.0</ele><time>2026-04-10T13:17:00Z</time></trkpt><trkpt lat="44.0994937425753" lon="11.275080097654502"><ele>904.0</ele><time>2026-04-10T13:17:01Z</time></trkpt><trkpt lat="44.099277762030006" lon="11.275063338149454"><ele>904.0</ele><time>2026-04-10T13:17:02Z</time></trkpt><trkpt lat="44.09905737263259" lon="11.275048293603778"><ele>904.0</ele><time>2026-04-10T13:17:03.001Z</time></trkpt><trkpt lat="44.098863945812234" lon="11.275068973384288"><ele>906.0</ele><time>2026-04-10T13:17:04.001Z</time></trkpt><trkpt lat="44.09871640098004" lon="11.275176991955643"><ele>908.0</ele><time>2026-04-10T13:17:05.001Z</time></trkpt><trkpt lat="44.098575401297545" lon="11.27525850862903"><ele>910.0</ele><time>2026-04-10T13:17:06.001Z</time></trkpt><trkpt lat="44.09844989698488" lon="11.275299768371342"><ele>912.0</ele><time>2026-04-10T13:17:07.001Z</time></trkpt><trkpt lat="44.098302880364926" lon="11.275265763637494"><ele>912.6666666666667</ele><time>2026-04-10T13:17:08.001Z</time></trkpt><trkpt lat="44.098126981690775" lon="11.27519038772403"><ele>913.3333333333334</ele><time>2026-04-10T13:17:09.001Z</time></trkpt><trkpt lat="44.09792052443782" lon="11.275137787734566"><ele>914.0</ele><time>2026-04-10T13:17:10.001Z</time></trkpt><trkpt lat="44.09771102186734" lon="11.275063656541938"><ele>914.0</ele><time>2026-04-10T13:17:11.001Z</time></trkpt><trkpt lat="44.0974907739644" lon="11.275000658362206"><ele>914.0</ele><time>2026-04-10T13:17:12.001Z</time></trkpt><trkpt lat="44.097279222838935" lon="11.274959978290987"><ele>914.0</ele><time>2026-04-10T13:17:13.001Z</time></trkpt><trkpt lat="44.09707474506983" lon="11.274948511305801"><ele>915.6666666666667</ele><time>2026-04-10T13:17:14.001Z</time></trkpt><trkpt lat="44.096860264450804" lon="11.275015828525605"><ele>917.3333333333333</ele><time>2026-04-10T13:17:15.001Z</time></trkpt><trkpt lat="44.09666788789726" lon="11.275131360422566"><ele>919.0</ele><time>2026-04-10T13:17:16.001Z</time></trkpt><trkpt lat="44.09649013676244" lon="11.275178293761822"><ele>919.0</ele><time>2026-04-10T13:17:17.001Z</time></trkpt><trkpt lat="44.09631870115652" lon="11.275228315662332"><ele>919.0</ele><time>2026-04-10T13:17:18.001Z</time></trkpt><trkpt lat="44.096147688957615" lon="11.275274567035869"><ele>919.0</ele><time>2026-04-10T13:17:19.001Z</time></trkpt><trkpt lat="44.09597938676922" lon="11.275313478644874"><ele>919.0</ele><time>2026-04-10T13:17:20.001Z</time></trkpt><trkpt lat="44.09580794184375" lon="11.275326899540016"><ele>919.0</ele><time>2026-04-10T13:17:21.001Z</time></trkpt><trkpt lat="44.09563088285363" lon="11.275313210719833"><ele>919.0</ele><time>2026-04-10T13:17:22.001Z</time></trkpt><trkpt lat="44.09544564905905" lon="11.27531003912398"><ele>917.6666666666666</ele><time>2026-04-10T13:17:23.001Z</time></trkpt><trkpt lat="44.095262890879035" lon="11.275301469027365"><ele>916.3333333333333</ele><time>2026-04-10T13:17:24.001Z</time></trkpt><trkpt lat="44.095084075317786" lon="11.275340204073546"><ele>915.0</ele><time>2026-04-10T13:17:25.001Z</time></trkpt><trkpt lat="44.094916143709845" lon="11.275417932230576"><ele>911.6666666666667</ele><time>2026-04-10T13:17:26.001Z</time></trkpt><trkpt lat="44.094759553243264" lon="11.27554416734103"><ele>908.3333333333334</ele><time>2026-04-10T13:17:27.001Z</time></trkpt><trkpt lat="44.09463454495761" lon="11.275704293279341"><ele>905.0</ele><time>2026-04-10T13:17:28.001Z</time></trkpt><trkpt lat="44.09453800853119" lon="11.275864751849403"><ele>904.8</ele><time>2026-04-10T13:17:29.001Z</time></trkpt><trkpt lat="44.09447739144768" lon="11.27602615070742"><ele>904.6</ele><time>2026-04-10T13:17:30.001Z</time></trkpt><trkpt lat="44.094432297634654" lon="11.276165517899338"><ele>904.4000000000001</ele><time>2026-04-10T13:17:31.001Z</time></trkpt><trkpt lat="44.09437147111201" lon="11.276262149503594"><ele>904.2</ele><time>2026-04-10T13:17:32.001Z</time></trkpt><trkpt lat="44.09429130594951" lon="11.276310982843883"><ele>904.0</ele><time>2026-04-10T13:17:33.001Z</time></trkpt><trkpt lat="44.09419441965828" lon="11.276286737801017"><ele>903.9999999999999</ele><time>2026-04-10T13:17:34.001Z</time></trkpt><trkpt lat="44.09412578716751" lon="11.276268620551685"><ele>904.0</ele><time>2026-04-10T13:17:35.001Z</time></trkpt><trkpt lat="44.09405956851459" lon="11.276293318189808"><ele>904.0</ele><time>2026-04-10T13:17:36.001Z</time></trkpt><trkpt lat="44.09401524370682" lon="11.276370372816059"><ele>904.0</ele><time>2026-04-10T13:17:37.001Z</time></trkpt><trkpt lat="44.09400296399148" lon="11.276487922495047"><ele>903.9999999999999</ele><time>2026-04-10T13:17:38.001Z</time></trkpt><trkpt lat="44.09403571905473" lon="11.276611013567093"><ele>904.0</ele><time>2026-04-10T13:17:39.001Z</time></trkpt><trkpt lat="44.094080963850715" lon="11.276713456151306"><ele>903.9999999999999</ele><time>2026-04-10T13:17:40.001Z</time></trkpt><trkpt lat="44.094104009881335" lon="11.276819393254863"><ele>904.0</ele><time>2026-04-10T13:17:41.001Z</time></trkpt><trkpt lat="44.094104450007826" lon="11.276938301962963"><ele>904.0</ele><time>2026-04-10T13:17:42.001Z</time></trkpt><trkpt lat="44.094062436336735" lon="11.277044352543387"><ele>904.0</ele><time>2026-04-10T13:17:43.001Z</time></trkpt><trkpt lat="44.09401670088551" lon="11.277152930313331"><ele>903.9999999999999</ele><time>2026-04-10T13:17:44.001Z</time></trkpt><trkpt lat="44.093963682078694" lon="11.277274773963487"><ele>904.0</ele><time>2026-04-10T13:17:45.001Z</time></trkpt><trkpt lat="44.093914626004285" lon="11.277425979169431"><ele>902.25</ele><time>2026-04-10T13:17:46.001Z</time></trkpt><trkpt lat="44.09385102137669" lon="11.277565551934197"><ele>900.5</ele><time>2026-04-10T13:17:47.001Z</time></trkpt><trkpt lat="44.09377321672133" lon="11.277728753652324"><ele>898.75</ele><time>2026-04-10T13:17:48.001Z</time></trkpt><trkpt lat="44.093682317275125" lon="11.277907634687567"><ele>897.0</ele><time>2026-04-10T13:17:49.001Z</time></trkpt><trkpt lat="44.09357935948991" lon="11.27806537774826"><ele>898.6666666666667</ele><time>2026-04-10T13:17:50.001Z</time></trkpt><trkpt lat="44.09345735534239" lon="11.278183090249167"><ele>900.3333333333334</ele><time>2026-04-10T13:17:51.001Z</time></trkpt><trkpt lat="44.093308819843664" lon="11.278273266470949"><ele>902.0</ele><time>2026-04-10T13:17:52.001Z</time></trkpt><trkpt lat="44.093147854416294" lon="11.278315719019513"><ele>899.25</ele><time>2026-04-10T13:17:53.001Z</time></trkpt><trkpt lat="44.09300671076419" lon="11.278342606580836"><ele>896.5</ele><time>2026-04-10T13:17:54.001Z</time></trkpt><trkpt lat="44.09288078910385" lon="11.278387085892248"><ele>893.75</ele><time>2026-04-10T13:17:55.001Z</time></trkpt><trkpt lat="44.09276405157716" lon="11.278475466036598"><ele>891.0</ele><time>2026-04-10T13:17:56.001Z</time></trkpt><trkpt lat="44.09267081159362" lon="11.27859751184839"><ele>891.0</ele><time>2026-04-10T13:17:57.001Z</time></trkpt><trkpt lat="44.092602314249454" lon="11.278748158097242"><ele>891.0</ele><time>2026-04-10T13:17:58.001Z</time></trkpt><trkpt lat="44.092564490998356" lon="11.278911820402435"><ele>891.0</ele><time>2026-04-10T13:17:59.001Z</time></trkpt><trkpt lat="44.09251049906845" lon="11.279048220943743"><ele>891.0</ele><time>2026-04-10T13:18:00.001Z</time></trkpt><trkpt lat="44.0924883485824" lon="11.279203593861393"><ele>890.0</ele><time>2026-04-10T13:18:01.001Z</time></trkpt><trkpt lat="44.092465469262144" lon="11.279346181896017"><ele>888.9999999999999</ele><time>2026-04-10T13:18:02.001Z</time></trkpt><trkpt lat="44.09242324553527" lon="11.279485193667949"><ele>887.9999999999999</ele><time>2026-04-10T13:18:03.001Z</time></trkpt><trkpt lat="44.092375788903546" lon="11.279631602757012"><ele>887.0</ele><time>2026-04-10T13:18:04.001Z</time></trkpt><trkpt lat="44.092333279866885" lon="11.279770107565444"><ele>886.0</ele><time>2026-04-10T13:18:05.001Z</time></trkpt><trkpt lat="44.092282596455796" lon="11.279907245395904"><ele>886.0</ele><time>2026-04-10T13:18:06.001Z</time></trkpt><trkpt lat="44.09218814867495" lon="11.280001245201287"><ele>886.0</ele><time>2026-04-10T13:18:07.001Z</time></trkpt><trkpt lat="44.09207195284292" lon="11.28007701963677"><ele>886.0</ele><time>2026-04-10T13:18:08.001Z</time></trkpt><trkpt lat="44.09192660508677" lon="11.280153902102649"><ele>886.0</ele><time>2026-04-10T13:18:09.001Z</time></trkpt><trkpt lat="44.09174367728415" lon="11.280260715503156"><ele>883.6666666666666</ele><time>2026-04-10T13:18:10Z</time></trkpt><trkpt lat="44.09154411374421" lon="11.280376866174713"><ele>881.3333333333333</ele><time>2026-04-10T13:18:11Z</time></trkpt><trkpt lat="44.091341800181695" lon="11.280492047978436"><ele>879.0</ele><time>2026-04-10T13:18:12Z</time></trkpt><trkpt lat="44.091162824615175" lon="11.280606163302673"><ele>884.0</ele><time>2026-04-10T13:18:13Z</time></trkpt><trkpt lat="44.09098617832807" lon="11.280776437801782"><ele>889.0</ele><time>2026-04-10T13:18:14Z</time></trkpt><trkpt lat="44.090832492742756" lon="11.280961572813275"><ele>894.0</ele><time>2026-04-10T13:18:15Z</time></trkpt><trkpt lat="44.0906996083847" lon="11.281106572995142"><ele>894.0</ele><time>2026-04-10T13:18:16Z</time></trkpt><trkpt lat="44.090568287972964" lon="11.281204500497154"><ele>894.0</ele><time>2026-04-10T13:18:17Z</time></trkpt><trkpt lat="44.090437035298805" lon="11.281141516041444"><ele>894.0</ele><time>2026-04-10T13:18:18Z</time></trkpt><trkpt lat="44.090290445541086" lon="11.281100645334364"><ele>894.0</ele><time>2026-04-10T13:18:19Z</time></trkpt><trkpt lat="44.09010751560432" lon="11.281080933280263"><ele>893.0</ele><time>2026-04-10T13:18:20Z</time></trkpt><trkpt lat="44.089918750342235" lon="11.281085412480321"><ele>892.0</ele><time>2026-04-10T13:18:21Z</time></trkpt><trkpt lat="44.089719480656704" lon="11.281163355832257"><ele>891.0</ele><time>2026-04-10T13:18:22Z</time></trkpt><trkpt lat="44.08953511678319" lon="11.281310632433211"><ele>891.0</ele><time>2026-04-10T13:18:23Z</time></trkpt><trkpt lat="44.08937272227069" lon="11.281402804870494"><ele>891.0</ele><time>2026-04-10T13:18:24Z</time></trkpt><trkpt lat="44.0892012213958" lon="11.281438490012222"><ele>891.0</ele><time>2026-04-10T13:18:25Z</time></trkpt><trkpt lat="44.088978938086406" lon="11.281408671514386"><ele>888.6666666666667</ele><time>2026-04-10T13:18:26Z</time></trkpt><trkpt lat="44.08876645752843" lon="11.281375621070008"><ele>886.3333333333334</ele><time>2026-04-10T13:18:27Z</time></trkpt><trkpt lat="44.08857553732265" lon="11.28133133199965"><ele>884.0</ele><time>2026-04-10T13:18:28Z</time></trkpt><trkpt lat="44.0884208182282" lon="11.281345155117139"><ele>884.0</ele><time>2026-04-10T13:18:29Z</time></trkpt><trkpt lat="44.08827147094976" lon="11.2813332544748"><ele>884.0</ele><time>2026-04-10T13:18:30Z</time></trkpt><trkpt lat="44.08812723710069" lon="11.281305398906472"><ele>884.0</ele><time>2026-04-10T13:18:31Z</time></trkpt><trkpt lat="44.08798908916546" lon="11.281224688947072"><ele>884.0</ele><time>2026-04-10T13:18:32Z</time></trkpt><trkpt lat="44.08789559427391" lon="11.281054563603426"><ele>887.3333333333334</ele><time>2026-04-10T13:18:33Z</time></trkpt><trkpt lat="44.087776703398184" lon="11.280856732026445"><ele>890.6666666666667</ele><time>2026-04-10T13:18:34Z</time></trkpt><trkpt lat="44.087645607581436" lon="11.280678119594706"><ele>894.0</ele><time>2026-04-10T13:18:35Z</time></trkpt><trkpt lat="44.08752923102147" lon="11.280553841625048"><ele>891.0</ele><time>2026-04-10T13:18:36Z</time></trkpt><trkpt lat="44.087425146064554" lon="11.280464072437406"><ele>888.0</ele><time>2026-04-10T13:18:37Z</time></trkpt><trkpt lat="44.08731641944819" lon="11.280438037657717"><ele>885.0</ele><time>2026-04-10T13:18:38Z</time></trkpt><trkpt lat="44.08720487644141" lon="11.280477858329373"><ele>882.0</ele><time>2026-04-10T13:18:39Z</time></trkpt><trkpt lat="44.08710742879292" lon="11.280601130102529"><ele>882.0</ele><time>2026-04-10T13:18:40Z</time></trkpt><trkpt lat="44.08701018724442" lon="11.28076001902457"><ele>882.0</ele><time>2026-04-10T13:18:41Z</time></trkpt><trkpt lat="44.08693281424524" lon="11.280901450357659"><ele>882.0</ele><time>2026-04-10T13:18:42Z</time></trkpt><trkpt lat="44.08688488840438" lon="11.281048684434408"><ele>882.0</ele><time>2026-04-10T13:18:43Z</time></trkpt><trkpt lat="44.086877337348454" lon="11.281230811949596"><ele>882.0</ele><time>2026-04-10T13:18:44Z</time></trkpt><trkpt lat="44.08690615124978" lon="11.281404268401037"><ele>882.0</ele><time>2026-04-10T13:18:45Z</time></trkpt><trkpt lat="44.086923437101646" lon="11.281551691593917"><ele>882.0</ele><time>2026-04-10T13:18:46Z</time></trkpt><trkpt lat="44.08689731445047" lon="11.281673310498267"><ele>882.0</ele><time>2026-04-10T13:18:47Z</time></trkpt><trkpt lat="44.08685977812564" lon="11.281776276108753"><ele>882.0</ele><time>2026-04-10T13:18:48Z</time></trkpt><trkpt lat="44.08677229762245" lon="11.281830158283526"><ele>883.25</ele><time>2026-04-10T13:18:49Z</time></trkpt><trkpt lat="44.08665403374839" lon="11.281796069319372"><ele>884.5</ele><time>2026-04-10T13:18:50Z</time></trkpt><trkpt lat="44.086549852687874" lon="11.281704450334518"><ele>885.75</ele><time>2026-04-10T13:18:51Z</time></trkpt><trkpt lat="44.086480602022434" lon="11.281564134064197"><ele>887.0</ele><time>2026-04-10T13:18:52Z</time></trkpt><trkpt lat="44.08641629519329" lon="11.281484669923975"><ele>884.2</ele><time>2026-04-10T13:18:53Z</time></trkpt><trkpt lat="44.08632160446901" lon="11.28151227439642"><ele>881.4000000000001</ele><time>2026-04-10T13:18:54Z</time></trkpt><trkpt lat="44.08624349226152" lon="11.281601353420902"><ele>878.5999999999999</ele><time>2026-04-10T13:18:55Z</time></trkpt><trkpt lat="44.08621116235505" lon="11.281761516623211"><ele>875.8</ele><time>2026-04-10T13:18:56Z</time></trkpt><trkpt lat="44.086210926467224" lon="11.281906160110823"><ele>873.0</ele><time>2026-04-10T13:18:57Z</time></trkpt><trkpt lat="44.08619339352376" lon="11.28201178082931"><ele>873.0</ele><time>2026-04-10T13:18:58Z</time></trkpt><trkpt lat="44.08613736916813" lon="11.282065541854761"><ele>873.0</ele><time>2026-04-10T13:18:59Z</time></trkpt><trkpt lat="44.086056430121864" lon="11.282052496067394"><ele>873.0</ele><time>2026-04-10T13:19:00Z</time></trkpt><trkpt lat="44.0859780970666" lon="11.281954972767172"><ele>873.0</ele><time>2026-04-10T13:19:01Z</time></trkpt><trkpt lat="44.08590579753313" lon="11.281783424992524"><ele>873.0</ele><time>2026-04-10T13:19:02Z</time></trkpt><trkpt lat="44.0857850075966" lon="11.281639752405994"><ele>871.0</ele><time>2026-04-10T13:19:03Z</time></trkpt><trkpt lat="44.08564265441815" lon="11.281537445750368"><ele>869.0</ele><time>2026-04-10T13:19:04Z</time></trkpt><trkpt lat="44.08546989348232" lon="11.281514443264202"><ele>867.0</ele><time>2026-04-10T13:19:05Z</time></trkpt><trkpt lat="44.085328846326966" lon="11.281479901893093"><ele>862.75</ele><time>2026-04-10T13:19:06Z</time></trkpt><trkpt lat="44.08520930859522" lon="11.28143072977299"><ele>858.5</ele><time>2026-04-10T13:19:07Z</time></trkpt><trkpt lat="44.08511195598345" lon="11.281353222587127"><ele>854.25</ele><time>2026-04-10T13:19:08Z</time></trkpt><trkpt lat="44.08506522389191" lon="11.281183081396778"><ele>850.0</ele><time>2026-04-10T13:19:09.001Z</time></trkpt><trkpt lat="44.08500339487644" lon="11.281084240920837"><ele>847.5</ele><time>2026-04-10T13:19:10.001Z</time></trkpt><trkpt lat="44.08491732521072" lon="11.281032111687942"><ele>845.0</ele><time>2026-04-10T13:19:11.001Z</time></trkpt><trkpt lat="44.084797532278216" lon="11.281069158058624"><ele>842.5</ele><time>2026-04-10T13:19:12.001Z</time></trkpt><trkpt lat="44.084661597759" lon="11.281163311529175"><ele>840.0</ele><time>2026-04-10T13:19:13.001Z</time></trkpt><trkpt lat="44.084548258124734" lon="11.281261530273177"><ele>840.0</ele><time>2026-04-10T13:19:14.001Z</time></trkpt><trkpt lat="44.08448275153655" lon="11.281376555673532"><ele>840.0</ele><time>2026-04-10T13:19:15.001Z</time></trkpt><trkpt lat="44.08446710907713" lon="11.281533148678331"><ele>840.0</ele><time>2026-04-10T13:19:16.001Z</time></trkpt><trkpt lat="44.08448493806793" lon="11.28166180020914"><ele>840.0</ele><time>2026-04-10T13:19:17.001Z</time></trkpt><trkpt lat="44.08446208803872" lon="11.281757354502886"><ele>840.0</ele><time>2026-04-10T13:19:18.001Z</time></trkpt><trkpt lat="44.084377246615716" lon="11.281797315330065"><ele>841.75</ele><time>2026-04-10T13:19:19.001Z</time></trkpt><trkpt lat="44.0842724229493" lon="11.28175803205666"><ele>843.5</ele><time>2026-04-10T13:19:20.001Z</time></trkpt><trkpt lat="44.084180881918094" lon="11.28162253985581"><ele>845.25</ele><time>2026-04-10T13:19:21.001Z</time></trkpt><trkpt lat="44.084079283848226" lon="11.281464593494347"><ele>847.0</ele><time>2026-04-10T13:19:22.001Z</time></trkpt><trkpt lat="44.08394512652317" lon="11.281335540458326"><ele>842.0</ele><time>2026-04-10T13:19:23.001Z</time></trkpt><trkpt lat="44.08377191217347" lon="11.281250988705706"><ele>837.0</ele><time>2026-04-10T13:19:24.001Z</time></trkpt><trkpt lat="44.08360234400784" lon="11.281177702813952"><ele>832.0</ele><time>2026-04-10T13:19:25.001Z</time></trkpt><trkpt lat="44.08347365600709" lon="11.281100371206607"><ele>832.0</ele><time>2026-04-10T13:19:26.001Z</time></trkpt><trkpt lat="44.08336146249125" lon="11.2810337426162"><ele>832.0</ele><time>2026-04-10T13:19:27.001Z</time></trkpt><trkpt lat="44.083269285430404" lon="11.281003565328284"><ele>832.0</ele><time>2026-04-10T13:19:28.001Z</time></trkpt><trkpt lat="44.08317467820653" lon="11.281049397950511"><ele>832.0</ele><time>2026-04-10T13:19:29.001Z</time></trkpt><trkpt lat="44.08311551176881" lon="11.28119222493436"><ele>832.0</ele><time>2026-04-10T13:19:30.001Z</time></trkpt><trkpt lat="44.083085656904096" lon="11.281366238327225"><ele>829.0</ele><time>2026-04-10T13:19:31.001Z</time></trkpt><trkpt lat="44.08306344822085" lon="11.281539151843008"><ele>826.0</ele><time>2026-04-10T13:19:32.001Z</time></trkpt><trkpt lat="44.082978926802404" lon="11.28165184932022"><ele>823.0</ele><time>2026-04-10T13:19:33.001Z</time></trkpt><trkpt lat="44.0828450229686" lon="11.28167096159431"><ele>820.0</ele><time>2026-04-10T13:19:34.001Z</time></trkpt><trkpt lat="44.0827660448076" lon="11.28176009371868"><ele>820.0</ele><time>2026-04-10T13:19:35.001Z</time></trkpt><trkpt lat="44.08270823451296" lon="11.281879762560592"><ele>820.0</ele><time>2026-04-10T13:19:36.001Z</time></trkpt><trkpt lat="44.08273047175215" lon="11.282090885741699"><ele>820.0</ele><time>2026-04-10T13:19:37.001Z</time></trkpt><trkpt lat="44.082758133655176" lon="11.282303620084033"><ele>820.0</ele><time>2026-04-10T13:19:38.001Z</time></trkpt><trkpt lat="44.08279708268514" lon="11.282520187068046"><ele>820.25</ele><time>2026-04-10T13:19:39.001Z</time></trkpt><trkpt lat="44.08286444455676" lon="11.282740235345951"><ele>820.5</ele><time>2026-04-10T13:19:40.001Z</time></trkpt><trkpt lat="44.082905416737894" lon="11.282937729743388"><ele>820.75</ele><time>2026-04-10T13:19:41.001Z</time></trkpt><trkpt lat="44.082950110220374" lon="11.283087285326681"><ele>821.0</ele><time>2026-04-10T13:19:42.001Z</time></trkpt><trkpt lat="44.08298330768112" lon="11.283198078910198"><ele>821.0</ele><time>2026-04-10T13:19:43.001Z</time></trkpt><trkpt lat="44.083003595128005" lon="11.283290171010455"><ele>821.0</ele><time>2026-04-10T13:19:44.001Z</time></trkpt><trkpt lat="44.08291539344948" lon="11.283374186540003"><ele>821.0</ele><time>2026-04-10T13:19:46.001Z</time></trkpt><trkpt lat="44.08284350422145" lon="11.283317460296313"><ele>821.0</ele><time>2026-04-10T13:19:47.001Z</time></trkpt><trkpt lat="44.08279018744821" lon="11.283153289883396"><ele>821.0</ele><time>2026-04-10T13:19:48.001Z</time></trkpt><trkpt lat="44.08270838736915" lon="11.282985926077792"><ele>821.0</ele><time>2026-04-10T13:19:49.001Z</time></trkpt><trkpt lat="44.082626201127205" lon="11.282786501690122"><ele>821.0</ele><time>2026-04-10T13:19:50.001Z</time></trkpt><trkpt lat="44.08253160908822" lon="11.282587989128528"><ele>821.0</ele><time>2026-04-10T13:19:51.001Z</time></trkpt><trkpt lat="44.08245789935426" lon="11.282380790986574"><ele>820.6666666666667</ele><time>2026-04-10T13:19:52.001Z</time></trkpt><trkpt lat="44.082428360932184" lon="11.28214797299933"><ele>820.3333333333333</ele><time>2026-04-10T13:19:53.001Z</time></trkpt><trkpt lat="44.0824392135458" lon="11.281894635609847"><ele>820.0</ele><time>2026-04-10T13:19:54.001Z</time></trkpt><trkpt lat="44.08244400601992" lon="11.281644180855226"><ele>819.75</ele><time>2026-04-10T13:19:55.001Z</time></trkpt><trkpt lat="44.0824363022021" lon="11.28143120190208"><ele>819.5</ele><time>2026-04-10T13:19:56Z</time></trkpt><trkpt lat="44.082431420379876" lon="11.281238510514322"><ele>819.25</ele><time>2026-04-10T13:19:57Z</time></trkpt><trkpt lat="44.08238187097509" lon="11.281073053759904"><ele>819.0</ele><time>2026-04-10T13:19:58Z</time></trkpt><trkpt lat="44.08227496204068" lon="11.28095249016183"><ele>820.5</ele><time>2026-04-10T13:19:59Z</time></trkpt><trkpt lat="44.08214390607349" lon="11.28087071387206"><ele>822.0</ele><time>2026-04-10T13:20:00Z</time></trkpt><trkpt lat="44.08200118262971" lon="11.28085576739599"><ele>823.5</ele><time>2026-04-10T13:20:01Z</time></trkpt><trkpt lat="44.08186413714173" lon="11.280912887696646"><ele>825.0</ele><time>2026-04-10T13:20:02Z</time></trkpt><trkpt lat="44.081728387627294" lon="11.281034456523283"><ele>825.0</ele><time>2026-04-10T13:20:03Z</time></trkpt><trkpt lat="44.081609281608856" lon="11.281237365841815"><ele>825.0</ele><time>2026-04-10T13:20:04Z</time></trkpt><trkpt lat="44.08146698341741" lon="11.281428457303813"><ele>825.0</ele><time>2026-04-10T13:20:05Z</time></trkpt><trkpt lat="44.08132761174045" lon="11.28156945179013"><ele>819.6666666666667</ele><time>2026-04-10T13:20:06Z</time></trkpt><trkpt lat="44.08117696248829" lon="11.281674698445643"><ele>814.3333333333334</ele><time>2026-04-10T13:20:07Z</time></trkpt><trkpt lat="44.0809920821855" lon="11.281746596964535"><ele>809.0</ele><time>2026-04-10T13:20:08Z</time></trkpt><trkpt lat="44.080820112069674" lon="11.281838144736314"><ele>808.0</ele><time>2026-04-10T13:20:09Z</time></trkpt><trkpt lat="44.08063950722067" lon="11.281904980552065"><ele>807.0</ele><time>2026-04-10T13:20:10Z</time></trkpt><trkpt lat="44.08042943760453" lon="11.281908156712511"><ele>806.0</ele><time>2026-04-10T13:20:11Z</time></trkpt><trkpt lat="44.08021142744507" lon="11.281948381315367"><ele>806.0</ele><time>2026-04-10T13:20:12Z</time></trkpt><trkpt lat="44.079997782200174" lon="11.281951887345404"><ele>806.0</ele><time>2026-04-10T13:20:13Z</time></trkpt><trkpt lat="44.07979697295957" lon="11.28197532169234"><ele>806.0</ele><time>2026-04-10T13:20:14Z</time></trkpt><trkpt lat="44.07960352745057" lon="11.282003892362578"><ele>801.3333333333334</ele><time>2026-04-10T13:20:15Z</time></trkpt><trkpt lat="44.07942118343182" lon="11.28202381704785"><ele>796.6666666666667</ele><time>2026-04-10T13:20:16Z</time></trkpt><trkpt lat="44.07924886739801" lon="11.282041009138522"><ele>792.0</ele><time>2026-04-10T13:20:17Z</time></trkpt><trkpt lat="44.07907691514778" lon="11.282058881619895"><ele>786.0</ele><time>2026-04-10T13:20:18Z</time></trkpt><trkpt lat="44.07890559894662" lon="11.28206621303042"><ele>780.0</ele><time>2026-04-10T13:20:19Z</time></trkpt><trkpt lat="44.07873560717906" lon="11.282042416993836"><ele>774.0</ele><time>2026-04-10T13:20:20Z</time></trkpt><trkpt lat="44.07856904704548" lon="11.281984409095678"><ele>774.0</ele><time>2026-04-10T13:20:21Z</time></trkpt><trkpt lat="44.07839814027571" lon="11.281901392560115"><ele>774.0</ele><time>2026-04-10T13:20:22Z</time></trkpt><trkpt lat="44.078227762008424" lon="11.28180593106499"><ele>774.0</ele><time>2026-04-10T13:20:23Z</time></trkpt><trkpt lat="44.07805591363012" lon="11.281712368644705"><ele>770.6666666666666</ele><time>2026-04-10T13:20:24Z</time></trkpt><trkpt lat="44.07787974055089" lon="11.281633174607578"><ele>767.3333333333333</ele><time>2026-04-10T13:20:25Z</time></trkpt><trkpt lat="44.07770212243995" lon="11.281554817803979"><ele>764.0</ele><time>2026-04-10T13:20:26Z</time></trkpt><trkpt lat="44.0775330770767" lon="11.28147203180343"><ele>764.3333333333333</ele><time>2026-04-10T13:20:27Z</time></trkpt><trkpt lat="44.07736602670368" lon="11.281395017976747"><ele>764.6666666666666</ele><time>2026-04-10T13:20:28Z</time></trkpt><trkpt lat="44.07720560879383" lon="11.281317435946585"><ele>765.0</ele><time>2026-04-10T13:20:29Z</time></trkpt><trkpt lat="44.077051933600934" lon="11.281212135977205"><ele>765.0</ele><time>2026-04-10T13:20:30Z</time></trkpt><trkpt lat="44.0769069431437" lon="11.28105326962637"><ele>765.0</ele><time>2026-04-10T13:20:31Z</time></trkpt><trkpt lat="44.07676128918993" lon="11.280878986034956"><ele>765.0</ele><time>2026-04-10T13:20:32Z</time></trkpt><trkpt lat="44.07661082983794" lon="11.280758918560037"><ele>761.3333333333334</ele><time>2026-04-10T13:20:33Z</time></trkpt><trkpt lat="44.076442769979096" lon="11.28072215574709"><ele>757.6666666666667</ele><time>2026-04-10T13:20:34Z</time></trkpt><trkpt lat="44.0762829043327" lon="11.280698222706837"><ele>754.0</ele><time>2026-04-10T13:20:35Z</time></trkpt><trkpt lat="44.07613261503864" lon="11.280642664442128"><ele>756.75</ele><time>2026-04-10T13:20:36Z</time></trkpt><trkpt lat="44.07599857929513" lon="11.280548346051592"><ele>759.5</ele><time>2026-04-10T13:20:37Z</time></trkpt><trkpt lat="44.07589894394328" lon="11.280396096693842"><ele>762.25</ele><time>2026-04-10T13:20:38Z</time></trkpt><trkpt lat="44.075829099815664" lon="11.280231609059955"><ele>765.0</ele><time>2026-04-10T13:20:39Z</time></trkpt><trkpt lat="44.07581545029759" lon="11.280038271066681"><ele>765.0</ele><time>2026-04-10T13:20:40Z</time></trkpt><trkpt lat="44.07582414688001" lon="11.279802118361715"><ele>765.0</ele><time>2026-04-10T13:20:41Z</time></trkpt><trkpt lat="44.075839988111426" lon="11.279525423077896"><ele>765.0</ele><time>2026-04-10T13:20:42Z</time></trkpt><trkpt lat="44.07586130579291" lon="11.279226457835644"><ele>765.6666666666666</ele><time>2026-04-10T13:20:43Z</time></trkpt><trkpt lat="44.075870452974286" lon="11.278906501585087"><ele>766.3333333333333</ele><time>2026-04-10T13:20:44Z</time></trkpt><trkpt lat="44.075897051590765" lon="11.278625564799393"><ele>767.0</ele><time>2026-04-10T13:20:45Z</time></trkpt><trkpt lat="44.075916761921555" lon="11.27836378823122"><ele>767.0</ele><time>2026-04-10T13:20:46Z</time></trkpt><trkpt lat="44.07591212301861" lon="11.278110318449096"><ele>767.0</ele><time>2026-04-10T13:20:47Z</time></trkpt><trkpt lat="44.075871710868384" lon="11.27787663567079"><ele>767.0</ele><time>2026-04-10T13:20:48Z</time></trkpt><trkpt lat="44.0758046177889" lon="11.27766950205498"><ele>767.0</ele><time>2026-04-10T13:20:49Z</time></trkpt><trkpt lat="44.075798060129195" lon="11.277465042909078"><ele>767.0</ele><time>2026-04-10T13:20:50Z</time></trkpt><trkpt lat="44.075845507977256" lon="11.277303117616551"><ele>767.0</ele><time>2026-04-10T13:20:51Z</time></trkpt><trkpt lat="44.07589406388046" lon="11.277121172429345"><ele>767.0</ele><time>2026-04-10T13:20:52Z</time></trkpt><trkpt lat="44.075913462829824" lon="11.276962260183007"><ele>767.0</ele><time>2026-04-10T13:20:53Z</time></trkpt><trkpt lat="44.07589467056908" lon="11.276792741860989"><ele>767.0</ele><time>2026-04-10T13:20:54Z</time></trkpt><trkpt lat="44.07580844538137" lon="11.276622787820306"><ele>767.0</ele><time>2026-04-10T13:20:55Z</time></trkpt><trkpt lat="44.07570528994588" lon="11.27649936438715"><ele>767.0</ele><time>2026-04-10T13:20:56Z</time></trkpt><trkpt lat="44.075529597096775" lon="11.276301063823698"><ele>759.6666666666666</ele><time>2026-04-10T13:20:57Z</time></trkpt><trkpt lat="44.0753956859871" lon="11.276127731405467"><ele>752.3333333333334</ele><time>2026-04-10T13:20:58Z</time></trkpt><trkpt lat="44.075294454055594" lon="11.275923464372202"><ele>745.0</ele><time>2026-04-10T13:20:59Z</time></trkpt><trkpt lat="44.07521644576061" lon="11.275688047284605"><ele>747.0</ele><time>2026-04-10T13:21:00Z</time></trkpt><trkpt lat="44.075157354309994" lon="11.275478481939533"><ele>749.0</ele><time>2026-04-10T13:21:01Z</time></trkpt><trkpt lat="44.07507887304644" lon="11.275315285573976"><ele>751.0</ele><time>2026-04-10T13:21:02Z</time></trkpt><trkpt lat="44.07494916152362" lon="11.275181193488795"><ele>745.0</ele><time>2026-04-10T13:21:03Z</time></trkpt><trkpt lat="44.07477813007948" lon="11.27509160678183"><ele>739.0</ele><time>2026-04-10T13:21:04Z</time></trkpt><trkpt lat="44.07461341364066" lon="11.275014124428091"><ele>733.0</ele><time>2026-04-10T13:21:05Z</time></trkpt><trkpt lat="44.07447709237217" lon="11.274880643640785"><ele>734.3333333333334</ele><time>2026-04-10T13:21:06Z</time></trkpt><trkpt lat="44.07434420051898" lon="11.274701208027778"><ele>735.6666666666666</ele><time>2026-04-10T13:21:07Z</time></trkpt><trkpt lat="44.074208556533065" lon="11.274525330370722"><ele>737.0</ele><time>2026-04-10T13:21:08Z</time></trkpt><trkpt lat="44.074110492743245" lon="11.274357220271055"><ele>732.5</ele><time>2026-04-10T13:21:09Z</time></trkpt><trkpt lat="44.07402098400349" lon="11.274223570662311"><ele>728.0</ele><time>2026-04-10T13:21:10Z</time></trkpt><trkpt lat="44.07395022316752" lon="11.27408389005326"><ele>723.5</ele><time>2026-04-10T13:21:11Z</time></trkpt><trkpt lat="44.073936183702465" lon="11.273909896361952"><ele>719.0</ele><time>2026-04-10T13:21:12Z</time></trkpt><trkpt lat="44.07394139500143" lon="11.273721089036243"><ele>717.6666666666666</ele><time>2026-04-10T13:21:13Z</time></trkpt><trkpt lat="44.074002156162656" lon="11.27353529072366"><ele>716.3333333333334</ele><time>2026-04-10T13:21:14Z</time></trkpt><trkpt lat="44.07409061717817" lon="11.273331240376148"><ele>715.0</ele><time>2026-04-10T13:21:15.001Z</time></trkpt><trkpt lat="44.074156552420064" lon="11.273104915613425"><ele>718.0</ele><time>2026-04-10T13:21:16.001Z</time></trkpt><trkpt lat="44.07419452329369" lon="11.272855175936705"><ele>721.0</ele><time>2026-04-10T13:21:17.001Z</time></trkpt><trkpt lat="44.074183013305394" lon="11.272569525476035"><ele>724.0</ele><time>2026-04-10T13:21:18.001Z</time></trkpt><trkpt lat="44.07414107146804" lon="11.272260446483308"><ele>724.0</ele><time>2026-04-10T13:21:19.001Z</time></trkpt><trkpt lat="44.07411077387544" lon="11.27196795728798"><ele>724.0</ele><time>2026-04-10T13:21:20.001Z</time></trkpt><trkpt lat="44.074089785691186" lon="11.27170032850156"><ele>724.0</ele><time>2026-04-10T13:21:21.001Z</time></trkpt><trkpt lat="44.07406473844718" lon="11.271442642168386"><ele>717.3333333333334</ele><time>2026-04-10T13:21:22.001Z</time></trkpt><trkpt lat="44.07402562226467" lon="11.271189847940786"><ele>710.6666666666666</ele><time>2026-04-10T13:21:23.001Z</time></trkpt><trkpt lat="44.07395744161068" lon="11.270947208568675"><ele>704.0</ele><time>2026-04-10T13:21:24.001Z</time></trkpt><trkpt lat="44.07386705664622" lon="11.270711669146989"><ele>703.6666666666666</ele><time>2026-04-10T13:21:25.001Z</time></trkpt><trkpt lat="44.07375186767672" lon="11.270500864946007"><ele>703.3333333333334</ele><time>2026-04-10T13:21:26.001Z</time></trkpt><trkpt lat="44.07362028639396" lon="11.270338512637545"><ele>703.0</ele><time>2026-04-10T13:21:27.001Z</time></trkpt><trkpt lat="44.07348216769541" lon="11.270225550817987"><ele>703.0</ele><time>2026-04-10T13:21:28.001Z</time></trkpt><trkpt lat="44.07335573335394" lon="11.270119875797347"><ele>703.0</ele><time>2026-04-10T13:21:29.001Z</time></trkpt><trkpt lat="44.0732431053763" lon="11.270034878808891"><ele>703.0</ele><time>2026-04-10T13:21:30.001Z</time></trkpt><trkpt lat="44.073124231847316" lon="11.269989430698276"><ele>703.0</ele><time>2026-04-10T13:21:31.001Z</time></trkpt><trkpt lat="44.072995097413646" lon="11.27000199552753"><ele>701.0</ele><time>2026-04-10T13:21:32.001Z</time></trkpt><trkpt lat="44.072881630269904" lon="11.270061989262356"><ele>699.0</ele><time>2026-04-10T13:21:33.001Z</time></trkpt><trkpt lat="44.072799576618664" lon="11.270146403718138"><ele>697.0</ele><time>2026-04-10T13:21:34.001Z</time></trkpt><trkpt lat="44.072752036241006" lon="11.27027296942063"><ele>695.0</ele><time>2026-04-10T13:21:35.001Z</time></trkpt><trkpt lat="44.0727607674182" lon="11.27045598836457"><ele>696.6666666666666</ele><time>2026-04-10T13:21:36.001Z</time></trkpt><trkpt lat="44.07277250242792" lon="11.270684265181577"><ele>698.3333333333334</ele><time>2026-04-10T13:21:37.001Z</time></trkpt><trkpt lat="44.072784731711785" lon="11.270922947069788"><ele>700.0</ele><time>2026-04-10T13:21:38.001Z</time></trkpt><trkpt lat="44.072793071929496" lon="11.271140479217259"><ele>700.0</ele><time>2026-04-10T13:21:39.001Z</time></trkpt><trkpt lat="44.07278973566915" lon="11.271310846621189"><ele>700.0</ele><time>2026-04-10T13:21:40.001Z</time></trkpt><trkpt lat="44.07277410060381" lon="11.271461091642138"><ele>700.0</ele><time>2026-04-10T13:21:41.001Z</time></trkpt><trkpt lat="44.07273878746816" lon="11.271579093686011"><ele>700.0</ele><time>2026-04-10T13:21:42.001Z</time></trkpt><trkpt lat="44.0726669942068" lon="11.271673029697613"><ele>700.0</ele><time>2026-04-10T13:21:43.001Z</time></trkpt><trkpt lat="44.072575531931534" lon="11.271730148541113"><ele>697.75</ele><time>2026-04-10T13:21:44.001Z</time></trkpt><trkpt lat="44.07244922149392" lon="11.271701149719677"><ele>695.5</ele><time>2026-04-10T13:21:45.001Z</time></trkpt><trkpt lat="44.07232952004355" lon="11.271592362500794"><ele>693.25</ele><time>2026-04-10T13:21:46.001Z</time></trkpt><trkpt lat="44.07217797862785" lon="11.271474215169178"><ele>691.0</ele><time>2026-04-10T13:21:47.001Z</time></trkpt><trkpt lat="44.07202157367413" lon="11.271309968726664"><ele>689.3333333333334</ele><time>2026-04-10T13:21:48.001Z</time></trkpt><trkpt lat="44.071868964345676" lon="11.271183726880142"><ele>687.6666666666666</ele><time>2026-04-10T13:21:49.001Z</time></trkpt><trkpt lat="44.07172962736777" lon="11.27105023802373"><ele>686.0</ele><time>2026-04-10T13:21:50Z</time></trkpt><trkpt lat="44.07161634419259" lon="11.270862434589617"><ele>682.0</ele><time>2026-04-10T13:21:51Z</time></trkpt><trkpt lat="44.071496406600076" lon="11.270656173853371"><ele>678.0</ele><time>2026-04-10T13:21:52Z</time></trkpt><trkpt lat="44.07138258264804" lon="11.27047052087511"><ele>674.0</ele><time>2026-04-10T13:21:53Z</time></trkpt><trkpt lat="44.07122429245239" lon="11.270286082466543"><ele>674.0</ele><time>2026-04-10T13:21:54Z</time></trkpt><trkpt lat="44.07103517226375" lon="11.27013614206268"><ele>674.0</ele><time>2026-04-10T13:21:55Z</time></trkpt><trkpt lat="44.07085523287691" lon="11.270013436025934"><ele>674.0</ele><time>2026-04-10T13:21:56Z</time></trkpt><trkpt lat="44.070744197048114" lon="11.269817671711765"><ele>672.0</ele><time>2026-04-10T13:21:57Z</time></trkpt><trkpt lat="44.07054899827726" lon="11.269822067798367"><ele>670.0</ele><time>2026-04-10T13:21:58Z</time></trkpt><trkpt lat="44.07037848029609" lon="11.269796398125164"><ele>668.0</ele><time>2026-04-10T13:21:59Z</time></trkpt><trkpt lat="44.07017913702012" lon="11.269860865616991"><ele>668.0</ele><time>2026-04-10T13:22:00Z</time></trkpt><trkpt lat="44.06997035303816" lon="11.269958438941538"><ele>668.0</ele><time>2026-04-10T13:22:01Z</time></trkpt><trkpt lat="44.069761366378465" lon="11.270033013477972"><ele>668.0</ele><time>2026-04-10T13:22:02Z</time></trkpt><trkpt lat="44.06956080448213" lon="11.270076614878082"><ele>666.0</ele><time>2026-04-10T13:22:03Z</time></trkpt><trkpt lat="44.06936754335386" lon="11.270108109631266"><ele>664.0</ele><time>2026-04-10T13:22:04Z</time></trkpt><trkpt lat="44.06919023840145" lon="11.27013363277003"><ele>662.0</ele><time>2026-04-10T13:22:05Z</time></trkpt><trkpt lat="44.06902363100453" lon="11.270160393762895"><ele>657.6666666666666</ele><time>2026-04-10T13:22:06Z</time></trkpt><trkpt lat="44.068859161145134" lon="11.270175295539977"><ele>653.3333333333334</ele><time>2026-04-10T13:22:07Z</time></trkpt><trkpt lat="44.06869116515423" lon="11.270163555913129"><ele>649.0</ele><time>2026-04-10T13:22:08Z</time></trkpt><trkpt lat="44.06852658436304" lon="11.270105869524896"><ele>649.0</ele><time>2026-04-10T13:22:09Z</time></trkpt><trkpt lat="44.06838131520021" lon="11.269970366312752"><ele>649.0</ele><time>2026-04-10T13:22:10Z</time></trkpt><trkpt lat="44.06822996411624" lon="11.26986158945944"><ele>649.0</ele><time>2026-04-10T13:22:11Z</time></trkpt><trkpt lat="44.068110691647156" lon="11.26970719332064"><ele>644.3333333333334</ele><time>2026-04-10T13:22:12Z</time></trkpt><trkpt lat="44.068026029905134" lon="11.269502061546097"><ele>639.6666666666666</ele><time>2026-04-10T13:22:13Z</time></trkpt><trkpt lat="44.06795185657645" lon="11.269257749701744"><ele>635.0</ele><time>2026-04-10T13:22:14Z</time></trkpt><trkpt lat="44.06789373220657" lon="11.268994365144973"><ele>636.0</ele><time>2026-04-10T13:22:15Z</time></trkpt><trkpt lat="44.067839223813934" lon="11.268755269717781"><ele>637.0</ele><time>2026-04-10T13:22:16Z</time></trkpt><trkpt lat="44.06779603516323" lon="11.26852913712651"><ele>638.0</ele><time>2026-04-10T13:22:17Z</time></trkpt><trkpt lat="44.0677136972434" lon="11.268335543751343"><ele>638.0</ele><time>2026-04-10T13:22:18Z</time></trkpt><trkpt lat="44.067575027615625" lon="11.268206454240977"><ele>638.0</ele><time>2026-04-10T13:22:19Z</time></trkpt><trkpt lat="44.06739191669636" lon="11.268129167248462"><ele>638.0</ele><time>2026-04-10T13:22:20Z</time></trkpt><trkpt lat="44.06721769503566" lon="11.268100614064668"><ele>635.6666666666666</ele><time>2026-04-10T13:22:21Z</time></trkpt><trkpt lat="44.06703755848071" lon="11.268035246860544"><ele>633.3333333333334</ele><time>2026-04-10T13:22:22Z</time></trkpt><trkpt lat="44.06687956952205" lon="11.267874605281769"><ele>631.0</ele><time>2026-04-10T13:22:23Z</time></trkpt><trkpt lat="44.066723516017696" lon="11.26771234537961"><ele>629.0</ele><time>2026-04-10T13:22:24Z</time></trkpt><trkpt lat="44.0665896235315" lon="11.267537907001032"><ele>627.0</ele><time>2026-04-10T13:22:25Z</time></trkpt><trkpt lat="44.06641903772078" lon="11.267407193239544"><ele>625.0</ele><time>2026-04-10T13:22:26Z</time></trkpt><trkpt lat="44.0662074267755" lon="11.267350544536972"><ele>625.0</ele><time>2026-04-10T13:22:27Z</time></trkpt><trkpt lat="44.065984305491796" lon="11.267308745352224"><ele>625.0</ele><time>2026-04-10T13:22:28Z</time></trkpt><trkpt lat="44.06575807544406" lon="11.267260818837656"><ele>625.3333333333334</ele><time>2026-04-10T13:22:29Z</time></trkpt><trkpt lat="44.065538552920216" lon="11.267160720193349"><ele>625.6666666666666</ele><time>2026-04-10T13:22:30Z</time></trkpt><trkpt lat="44.065339021779785" lon="11.267049546850066"><ele>626.0</ele><time>2026-04-10T13:22:31Z</time></trkpt><trkpt lat="44.065145216422714" lon="11.266964184191325"><ele>626.0</ele><time>2026-04-10T13:22:32Z</time></trkpt><trkpt lat="44.06496783157674" lon="11.266926318491262"><ele>626.0</ele><time>2026-04-10T13:22:33Z</time></trkpt><trkpt lat="44.06479013704926" lon="11.266924929346343"><ele>626.0</ele><time>2026-04-10T13:22:34Z</time></trkpt><trkpt lat="44.064634397014835" lon="11.266946752052716"><ele>623.5</ele><time>2026-04-10T13:22:35Z</time></trkpt><trkpt lat="44.06449549646845" lon="11.266929250616425"><ele>621.0</ele><time>2026-04-10T13:22:36Z</time></trkpt><trkpt lat="44.06436308701727" lon="11.266907111731754"><ele>618.5</ele><time>2026-04-10T13:22:37Z</time></trkpt><trkpt lat="44.064252043031814" lon="11.266761233612266"><ele>616.0</ele><time>2026-04-10T13:22:38Z</time></trkpt><trkpt lat="44.06412089308489" lon="11.266590068656607"><ele>611.0</ele><time>2026-04-10T13:22:39Z</time></trkpt><trkpt lat="44.06399530447718" lon="11.26636840187271"><ele>606.0</ele><time>2026-04-10T13:22:40Z</time></trkpt><trkpt lat="44.06385493036556" lon="11.266160353583295"><ele>601.0</ele><time>2026-04-10T13:22:41Z</time></trkpt><trkpt lat="44.063711128710686" lon="11.265964691557727"><ele>601.0</ele><time>2026-04-10T13:22:42Z</time></trkpt><trkpt lat="44.06359719660099" lon="11.265747008999524"><ele>601.0</ele><time>2026-04-10T13:22:43Z</time></trkpt><trkpt lat="44.06347573759519" lon="11.265506336653292"><ele>601.0</ele><time>2026-04-10T13:22:44Z</time></trkpt><trkpt lat="44.0633816961323" lon="11.265223693065597"><ele>601.6666666666667</ele><time>2026-04-10T13:22:45Z</time></trkpt><trkpt lat="44.06328608174804" lon="11.264946026800098"><ele>602.3333333333334</ele><time>2026-04-10T13:22:46Z</time></trkpt><trkpt lat="44.06318193634267" lon="11.264694941720567"><ele>603.0</ele><time>2026-04-10T13:22:47Z</time></trkpt><trkpt lat="44.063036759137105" lon="11.264482558059434"><ele>596.0</ele><time>2026-04-10T13:22:48Z</time></trkpt><trkpt lat="44.0628471162596" lon="11.264304341437958"><ele>589.0</ele><time>2026-04-10T13:22:49Z</time></trkpt><trkpt lat="44.0626227903218" lon="11.26416057248279"><ele>583.5</ele><time>2026-04-10T13:22:50Z</time></trkpt><trkpt lat="44.06239146526839" lon="11.264008137422831"><ele>578.0</ele><time>2026-04-10T13:22:51Z</time></trkpt><trkpt lat="44.062162876598045" lon="11.263864148724759"><ele>577.5</ele><time>2026-04-10T13:22:52Z</time></trkpt><trkpt lat="44.06193323733601" lon="11.263722898835873"><ele>577.0</ele><time>2026-04-10T13:22:53Z</time></trkpt><trkpt lat="44.06170798835356" lon="11.263575234920022"><ele>574.5</ele><time>2026-04-10T13:22:54Z</time></trkpt><trkpt lat="44.061489861240055" lon="11.263429804344982"><ele>572.0</ele><time>2026-04-10T13:22:55Z</time></trkpt><trkpt lat="44.06128032728773" lon="11.26328853058909"><ele>572.0</ele><time>2026-04-10T13:22:56Z</time></trkpt><trkpt lat="44.061072759110544" lon="11.263151676571823"><ele>572.0</ele><time>2026-04-10T13:22:57Z</time></trkpt><trkpt lat="44.06086492097491" lon="11.263040408107818"><ele>573.0</ele><time>2026-04-10T13:22:58Z</time></trkpt><trkpt lat="44.06064863906787" lon="11.262976357568057"><ele>574.0</ele><time>2026-04-10T13:22:59Z</time></trkpt><trkpt lat="44.0604316784364" lon="11.262965393715133"><ele>575.0</ele><time>2026-04-10T13:23:00Z</time></trkpt><trkpt lat="44.06020809240697" lon="11.262975378728443"><ele>575.0</ele><time>2026-04-10T13:23:01Z</time></trkpt><trkpt lat="44.059969906901365" lon="11.2629911026263"><ele>575.0</ele><time>2026-04-10T13:23:02Z</time></trkpt><trkpt lat="44.05972439502515" lon="11.262997832704926"><ele>569.5</ele><time>2026-04-10T13:23:03Z</time></trkpt><trkpt lat="44.059472685679154" lon="11.263001370831404"><ele>564.0</ele><time>2026-04-10T13:23:04Z</time></trkpt><trkpt lat="44.05922908989341" lon="11.26301113710353"><ele>561.0</ele><time>2026-04-10T13:23:05Z</time></trkpt><trkpt lat="44.05899167736803" lon="11.263027606181586"><ele>558.0</ele><time>2026-04-10T13:23:06Z</time></trkpt><trkpt lat="44.05877241838544" lon="11.263040332510768"><ele>558.0</ele><time>2026-04-10T13:23:07Z</time></trkpt><trkpt lat="44.058571882248465" lon="11.26304845032412"><ele>558.0</ele><time>2026-04-10T13:23:08Z</time></trkpt><trkpt lat="44.05838307567485" lon="11.263026654313556"><ele>558.0</ele><time>2026-04-10T13:23:09Z</time></trkpt><trkpt lat="44.0582040175988" lon="11.262939795108872"><ele>557.0</ele><time>2026-04-10T13:23:10Z</time></trkpt><trkpt lat="44.05803871950825" lon="11.262794915743097"><ele>556.0</ele><time>2026-04-10T13:23:11Z</time></trkpt><trkpt lat="44.05788220255524" lon="11.262670639962858"><ele>555.0</ele><time>2026-04-10T13:23:12Z</time></trkpt><trkpt lat="44.057730569842256" lon="11.262542640356209"><ele>555.0</ele><time>2026-04-10T13:23:13Z</time></trkpt><trkpt lat="44.0575750997733" lon="11.262455452519895"><ele>555.0</ele><time>2026-04-10T13:23:14Z</time></trkpt><trkpt lat="44.05743176021697" lon="11.262395731359291"><ele>555.0</ele><time>2026-04-10T13:23:15Z</time></trkpt><trkpt lat="44.057286409215926" lon="11.262381954161539"><ele>552.6666666666666</ele><time>2026-04-10T13:23:16Z</time></trkpt><trkpt lat="44.05713518430419" lon="11.262427847539529"><ele>550.3333333333333</ele><time>2026-04-10T13:23:17Z</time></trkpt><trkpt lat="44.056981058516364" lon="11.262553659362542"><ele>548.0</ele><time>2026-04-10T13:23:18Z</time></trkpt><trkpt lat="44.056831950158475" lon="11.26267341554"><ele>548.0</ele><time>2026-04-10T13:23:19Z</time></trkpt><trkpt lat="44.05670231273875" lon="11.262767525391025"><ele>548.0</ele><time>2026-04-10T13:23:20.001Z</time></trkpt><trkpt lat="44.056569189080875" lon="11.262824334850533"><ele>548.0</ele><time>2026-04-10T13:23:21.001Z</time></trkpt><trkpt lat="44.056437685622576" lon="11.26273814257386"><ele>548.0</ele><time>2026-04-10T13:23:22.001Z</time></trkpt><trkpt lat="44.05632411623341" lon="11.262590815848972"><ele>545.0</ele><time>2026-04-10T13:23:23.001Z</time></trkpt><trkpt lat="44.05614886560213" lon="11.262445391546157"><ele>542.0</ele><time>2026-04-10T13:23:24.001Z</time></trkpt><trkpt lat="44.05596150679287" lon="11.262311346848541"><ele>539.0</ele><time>2026-04-10T13:23:25.001Z</time></trkpt><trkpt lat="44.055734819680495" lon="11.262226158113991"><ele>534.5</ele><time>2026-04-10T13:23:26.001Z</time></trkpt><trkpt lat="44.05549788236099" lon="11.262118247299368"><ele>530.0</ele><time>2026-04-10T13:23:27.001Z</time></trkpt><trkpt lat="44.05523425878049" lon="11.262062513205962"><ele>530.0</ele><time>2026-04-10T13:23:28.001Z</time></trkpt><trkpt lat="44.05499813153985" lon="11.261969797814233"><ele>530.0</ele><time>2026-04-10T13:23:29.001Z</time></trkpt><trkpt lat="44.054775610960945" lon="11.261883529206848"><ele>531.3333333333333</ele><time>2026-04-10T13:23:30.001Z</time></trkpt><trkpt lat="44.054569292768385" lon="11.261802529092538"><ele>532.6666666666666</ele><time>2026-04-10T13:23:31.001Z</time></trkpt><trkpt lat="44.05437393786982" lon="11.261720165580357"><ele>534.0</ele><time>2026-04-10T13:23:32.001Z</time></trkpt><trkpt lat="44.054185473083585" lon="11.261648385225612"><ele>535.6666666666666</ele><time>2026-04-10T13:23:33.001Z</time></trkpt><trkpt lat="44.053998170981856" lon="11.26157747971299"><ele>537.3333333333333</ele><time>2026-04-10T13:23:34.001Z</time></trkpt><trkpt lat="44.053820423606865" lon="11.261508402870604"><ele>539.0</ele><time>2026-04-10T13:23:35.001Z</time></trkpt><trkpt lat="44.05365452717096" lon="11.261415068556309"><ele>535.3333333333333</ele><time>2026-04-10T13:23:36.001Z</time></trkpt><trkpt lat="44.05348994521451" lon="11.26128122767246"><ele>531.6666666666666</ele><time>2026-04-10T13:23:37.001Z</time></trkpt><trkpt lat="44.05334061616873" lon="11.261136729803997"><ele>528.0</ele><time>2026-04-10T13:23:38.001Z</time></trkpt><trkpt lat="44.05319812279439" lon="11.261004764189916"><ele>528.0</ele><time>2026-04-10T13:23:39.001Z</time></trkpt><trkpt lat="44.05306380684825" lon="11.260885163083083"><ele>528.0</ele><time>2026-04-10T13:23:40.001Z</time></trkpt><trkpt lat="44.05294367919508" lon="11.260773367185609"><ele>528.0</ele><time>2026-04-10T13:23:41.001Z</time></trkpt><trkpt lat="44.05282016762462" lon="11.260669632541711"><ele>528.0</ele><time>2026-04-10T13:23:42.001Z</time></trkpt><trkpt lat="44.05268276843056" lon="11.260603351451067"><ele>525.6666666666666</ele><time>2026-04-10T13:23:43.001Z</time></trkpt><trkpt lat="44.052528990054974" lon="11.260568526292296"><ele>523.3333333333333</ele><time>2026-04-10T13:23:44Z</time></trkpt><trkpt lat="44.052373356028056" lon="11.260585513156231"><ele>521.0</ele><time>2026-04-10T13:23:45Z</time></trkpt><trkpt lat="44.05221517165146" lon="11.26064382292585"><ele>521.0</ele><time>2026-04-10T13:23:46Z</time></trkpt><trkpt lat="44.052074124140006" lon="11.260680994279385"><ele>521.0</ele><time>2026-04-10T13:23:47Z</time></trkpt><trkpt lat="44.051941976030626" lon="11.260716483964307"><ele>521.0</ele><time>2026-04-10T13:23:48Z</time></trkpt><trkpt lat="44.051811855798235" lon="11.260755638305294"><ele>521.0</ele><time>2026-04-10T13:23:49Z</time></trkpt><trkpt lat="44.05168401396221" lon="11.26080799899822"><ele>520.4</ele><time>2026-04-10T13:23:50Z</time></trkpt><trkpt lat="44.05155472529468" lon="11.260854405828264"><ele>519.8</ele><time>2026-04-10T13:23:51Z</time></trkpt><trkpt lat="44.05143266742314" lon="11.260893762152959"><ele>519.1999999999999</ele><time>2026-04-10T13:23:52Z</time></trkpt><trkpt lat="44.051341363920606" lon="11.260932636767883"><ele>518.6</ele><time>2026-04-10T13:23:53Z</time></trkpt><trkpt lat="44.05125057943916" lon="11.260968995965811"><ele>518.0</ele><time>2026-04-10T13:23:54Z</time></trkpt><trkpt lat="44.05115798487348" lon="11.260998583106739"><ele>518.0</ele><time>2026-04-10T13:23:55Z</time></trkpt><trkpt lat="44.051041190654374" lon="11.26102724866997"><ele>518.0</ele><time>2026-04-10T13:23:56Z</time></trkpt><trkpt lat="44.05092035356787" lon="11.26109699056076"><ele>518.0</ele><time>2026-04-10T13:23:57Z</time></trkpt><trkpt lat="44.05078522851876" lon="11.261153895757747"><ele>518.0</ele><time>2026-04-10T13:23:58Z</time></trkpt><trkpt lat="44.05063239409499" lon="11.261208795732676"><ele>517.3333333333333</ele><time>2026-04-10T13:23:59Z</time></trkpt><trkpt lat="44.05046760881954" lon="11.261244956384784"><ele>516.6666666666666</ele><time>2026-04-10T13:24:00Z</time></trkpt><trkpt lat="44.050288540332396" lon="11.261273742142277"><ele>516.0</ele><time>2026-04-10T13:24:01Z</time></trkpt><trkpt lat="44.05010639652377" lon="11.261292954255227"><ele>515.3333333333334</ele><time>2026-04-10T13:24:02Z</time></trkpt><trkpt lat="44.04991643832068" lon="11.261296677274832"><ele>514.6666666666667</ele><time>2026-04-10T13:24:03Z</time></trkpt><trkpt lat="44.04972104062059" lon="11.261276882564827"><ele>514.0</ele><time>2026-04-10T13:24:04Z</time></trkpt><trkpt lat="44.04952961302422" lon="11.26123612016878"><ele>514.0</ele><time>2026-04-10T13:24:05Z</time></trkpt><trkpt lat="44.04934585668564" lon="11.261192453328118"><ele>514.0</ele><time>2026-04-10T13:24:06Z</time></trkpt><trkpt lat="44.04917285032504" lon="11.261140104265445"><ele>514.0</ele><time>2026-04-10T13:24:07Z</time></trkpt><trkpt lat="44.04901237078668" lon="11.261073329631012"><ele>515.3333333333334</ele><time>2026-04-10T13:24:08Z</time></trkpt><trkpt lat="44.04886162609502" lon="11.26099567406955"><ele>516.6666666666666</ele><time>2026-04-10T13:24:09Z</time></trkpt><trkpt lat="44.04871820712358" lon="11.260889928180946"><ele>518.0</ele><time>2026-04-10T13:24:10Z</time></trkpt><trkpt lat="44.04858086936657" lon="11.260736325660336"><ele>515.6666666666666</ele><time>2026-04-10T13:24:11Z</time></trkpt><trkpt lat="44.04844307102174" lon="11.260583725379899"><ele>513.3333333333334</ele><time>2026-04-10T13:24:12Z</time></trkpt><trkpt lat="44.048315650736036" lon="11.260446683828611"><ele>511.0</ele><time>2026-04-10T13:24:13Z</time></trkpt><trkpt lat="44.04819628032919" lon="11.2603038522967"><ele>511.0</ele><time>2026-04-10T13:24:14Z</time></trkpt><trkpt lat="44.04808503504145" lon="11.260155500724533"><ele>511.0</ele><time>2026-04-10T13:24:15Z</time></trkpt><trkpt lat="44.04796454626623" lon="11.25999303714295"><ele>511.0</ele><time>2026-04-10T13:24:16Z</time></trkpt><trkpt lat="44.04781446480166" lon="11.2598294616699"><ele>513.6666666666667</ele><time>2026-04-10T13:24:17Z</time></trkpt><trkpt lat="44.047643583979315" lon="11.259664542662756"><ele>516.3333333333334</ele><time>2026-04-10T13:24:18Z</time></trkpt><trkpt lat="44.04746159353603" lon="11.259472904927712"><ele>519.0</ele><time>2026-04-10T13:24:19Z</time></trkpt><trkpt lat="44.04727620821964" lon="11.259278901119313"><ele>519.0</ele><time>2026-04-10T13:24:20Z</time></trkpt><trkpt lat="44.047083805689205" lon="11.259085336221558"><ele>519.0</ele><time>2026-04-10T13:24:21Z</time></trkpt><trkpt lat="44.046892832048755" lon="11.258889100488858"><ele>516.0</ele><time>2026-04-10T13:24:22Z</time></trkpt><trkpt lat="44.04672468570233" lon="11.258707317217675"><ele>513.0</ele><time>2026-04-10T13:24:23Z</time></trkpt><trkpt lat="44.04659439393393" lon="11.258525747362048"><ele>510.0</ele><time>2026-04-10T13:24:24Z</time></trkpt><trkpt lat="44.046476448077456" lon="11.258363792104673"><ele>510.0</ele><time>2026-04-10T13:24:25Z</time></trkpt><trkpt lat="44.046369651462115" lon="11.258227239014998"><ele>510.0</ele><time>2026-04-10T13:24:26Z</time></trkpt><trkpt lat="44.04624400802268" lon="11.258140862396633"><ele>510.0</ele><time>2026-04-10T13:24:27Z</time></trkpt><trkpt lat="44.046091905364996" lon="11.258101677062944"><ele>510.0</ele><time>2026-04-10T13:24:28Z</time></trkpt><trkpt lat="44.04592196996239" lon="11.25813775093806"><ele>507.66666666666663</ele><time>2026-04-10T13:24:29Z</time></trkpt><trkpt lat="44.04574330014367" lon="11.258249130124314"><ele>505.3333333333333</ele><time>2026-04-10T13:24:30Z</time></trkpt><trkpt lat="44.045553857889175" lon="11.25835151213293"><ele>503.0</ele><time>2026-04-10T13:24:31Z</time></trkpt><trkpt lat="44.045375715668605" lon="11.25843623019021"><ele>503.0</ele><time>2026-04-10T13:24:32Z</time></trkpt><trkpt lat="44.04519066112932" lon="11.258477937432868"><ele>503.0</ele><time>2026-04-10T13:24:33Z</time></trkpt><trkpt lat="44.04499748257332" lon="11.258508960082676"><ele>503.0</ele><time>2026-04-10T13:24:34Z</time></trkpt><trkpt lat="44.044792867264725" lon="11.258580760240632"><ele>499.3333333333333</ele><time>2026-04-10T13:24:35Z</time></trkpt><trkpt lat="44.0445781297455" lon="11.258651920684072"><ele>495.66666666666663</ele><time>2026-04-10T13:24:36Z</time></trkpt><trkpt lat="44.04436774232692" lon="11.258711788166842"><ele>492.0</ele><time>2026-04-10T13:24:37Z</time></trkpt><trkpt lat="44.04416520000016" lon="11.258778716403873"><ele>490.33333333333337</ele><time>2026-04-10T13:24:38Z</time></trkpt><trkpt lat="44.043969072259515" lon="11.25883364729141"><ele>488.6666666666667</ele><time>2026-04-10T13:24:39Z</time></trkpt><trkpt lat="44.04376880717699" lon="11.258878910769184"><ele>487.0</ele><time>2026-04-10T13:24:40Z</time></trkpt><trkpt lat="44.043556933640076" lon="11.258899248435656"><ele>487.0</ele><time>2026-04-10T13:24:41Z</time></trkpt><trkpt lat="44.04334964678345" lon="11.25891398552603"><ele>487.0</ele><time>2026-04-10T13:24:42Z</time></trkpt><trkpt lat="44.04315870201094" lon="11.258935530050246"><ele>487.0</ele><time>2026-04-10T13:24:43Z</time></trkpt><trkpt lat="44.04299270922888" lon="11.25896716514433"><ele>489.0</ele><time>2026-04-10T13:24:44Z</time></trkpt><trkpt lat="44.04283436601794" lon="11.25897683849419"><ele>491.0</ele><time>2026-04-10T13:24:45Z</time></trkpt><trkpt lat="44.042690999830654" lon="11.259039289104749"><ele>493.0</ele><time>2026-04-10T13:24:46Z</time></trkpt><trkpt lat="44.04254280099596" lon="11.25902398499836"><ele>493.0</ele><time>2026-04-10T13:24:47Z</time></trkpt><trkpt lat="44.04238775557996" lon="11.258972454698277"><ele>493.0</ele><time>2026-04-10T13:24:48Z</time></trkpt><trkpt lat="44.042222707705854" lon="11.258892466707168"><ele>493.0</ele><time>2026-04-10T13:24:49Z</time></trkpt><trkpt lat="44.04204856000312" lon="11.258811934294148"><ele>491.6666666666667</ele><time>2026-04-10T13:24:50Z</time></trkpt><trkpt lat="44.0418640146846" lon="11.258736679733312"><ele>490.33333333333337</ele><time>2026-04-10T13:24:51Z</time></trkpt><trkpt lat="44.04169396913956" lon="11.258665075658723"><ele>489.0</ele><time>2026-04-10T13:24:52Z</time></trkpt><trkpt lat="44.04152381866747" lon="11.258590796395728"><ele>489.0</ele><time>2026-04-10T13:24:53Z</time></trkpt><trkpt lat="44.041362939825206" lon="11.258516463571224"><ele>489.0</ele><time>2026-04-10T13:24:54Z</time></trkpt><trkpt lat="44.04120432169469" lon="11.258448287161556"><ele>489.0</ele><time>2026-04-10T13:24:55Z</time></trkpt><trkpt lat="44.04105593763357" lon="11.258369822601157"><ele>489.0</ele><time>2026-04-10T13:24:56Z</time></trkpt><trkpt lat="44.04091803828939" lon="11.258262225938244"><ele>489.0</ele><time>2026-04-10T13:24:57Z</time></trkpt><trkpt lat="44.04078909773556" lon="11.25812882674731"><ele>489.0</ele><time>2026-04-10T13:24:58Z</time></trkpt><trkpt lat="44.040678904746315" lon="11.257985758213229"><ele>489.66666666666663</ele><time>2026-04-10T13:24:59Z</time></trkpt><trkpt lat="44.040594441068045" lon="11.25782040367739"><ele>490.3333333333333</ele><time>2026-04-10T13:25:00Z</time></trkpt><trkpt lat="44.040542842391396" lon="11.257605934940567"><ele>491.0</ele><time>2026-04-10T13:25:01Z</time></trkpt><trkpt lat="44.04053449158167" lon="11.257376599143292"><ele>490.75</ele><time>2026-04-10T13:25:02Z</time></trkpt><trkpt lat="44.040528897883824" lon="11.257157503412389"><ele>490.5</ele><time>2026-04-10T13:25:03Z</time></trkpt><trkpt lat="44.04052238684111" lon="11.256958037181194"><ele>490.25</ele><time>2026-04-10T13:25:04Z</time></trkpt><trkpt lat="44.04049628168493" lon="11.256771125656249"><ele>490.0</ele><time>2026-04-10T13:25:05Z</time></trkpt><trkpt lat="44.04041545725245" lon="11.256614873903168"><ele>488.5</ele><time>2026-04-10T13:25:06Z</time></trkpt><trkpt lat="44.040361151536445" lon="11.256448753048486"><ele>487.0</ele><time>2026-04-10T13:25:07Z</time></trkpt><trkpt lat="44.04032520478595" lon="11.256275372827451"><ele>485.5</ele><time>2026-04-10T13:25:08Z</time></trkpt><trkpt lat="44.0403582233167" lon="11.256070047173484"><ele>484.0</ele><time>2026-04-10T13:25:09Z</time></trkpt><trkpt lat="44.040437629392606" lon="11.255862700225759"><ele>484.0</ele><time>2026-04-10T13:25:10Z</time></trkpt><trkpt lat="44.04055715922812" lon="11.255657816863552"><ele>484.0</ele><time>2026-04-10T13:25:11Z</time></trkpt><trkpt lat="44.04066815378834" lon="11.255464201163736"><ele>484.0</ele><time>2026-04-10T13:25:12Z</time></trkpt><trkpt lat="44.04077223771175" lon="11.255280850668276"><ele>479.75</ele><time>2026-04-10T13:25:13Z</time></trkpt><trkpt lat="44.04085814904901" lon="11.255127963663229"><ele>475.5</ele><time>2026-04-10T13:25:14Z</time></trkpt><trkpt lat="44.04093103260271" lon="11.254995683662061"><ele>471.25</ele><time>2026-04-10T13:25:15Z</time></trkpt><trkpt lat="44.04097637475747" lon="11.254867705580311"><ele>467.0</ele><time>2026-04-10T13:25:16Z</time></trkpt><trkpt lat="44.04097795974645" lon="11.254726743840056"><ele>467.0</ele><time>2026-04-10T13:25:17Z</time></trkpt><trkpt lat="44.04092321789394" lon="11.254608305176463"><ele>467.00000000000006</ele><time>2026-04-10T13:25:18Z</time></trkpt><trkpt lat="44.04082630099577" lon="11.254551246254998"><ele>467.00000000000006</ele><time>2026-04-10T13:25:19Z</time></trkpt><trkpt lat="44.040718485514326" lon="11.254581570333496"><ele>467.0</ele><time>2026-04-10T13:25:20Z</time></trkpt><trkpt lat="44.04061179080567" lon="11.254671032833658"><ele>467.0</ele><time>2026-04-10T13:25:21Z</time></trkpt><trkpt lat="44.04049025463709" lon="11.254808933730082"><ele>467.0</ele><time>2026-04-10T13:25:22Z</time></trkpt><trkpt lat="44.04037072136358" lon="11.254941780553452"><ele>467.0</ele><time>2026-04-10T13:25:23Z</time></trkpt><trkpt lat="44.04025277969844" lon="11.255049036676272"><ele>467.0</ele><time>2026-04-10T13:25:24Z</time></trkpt><trkpt lat="44.04012559103004" lon="11.2550956689044"><ele>467.0</ele><time>2026-04-10T13:25:25Z</time></trkpt><trkpt lat="44.03999556883555" lon="11.25508466272969"><ele>463.5</ele><time>2026-04-10T13:25:26Z</time></trkpt><trkpt lat="44.039870356655456" lon="11.255012330551239"><ele>460.0</ele><time>2026-04-10T13:25:27Z</time></trkpt><trkpt lat="44.03976322997124" lon="11.254883985202488"><ele>456.5</ele><time>2026-04-10T13:25:28Z</time></trkpt><trkpt lat="44.039647945670154" lon="11.2547627342872"><ele>453.0</ele><time>2026-04-10T13:25:29Z</time></trkpt><trkpt lat="44.03951965793326" lon="11.254723070231586"><ele>453.0</ele><time>2026-04-10T13:25:30Z</time></trkpt><trkpt lat="44.03938448836155" lon="11.254777463006864"><ele>453.0</ele><time>2026-04-10T13:25:31Z</time></trkpt><trkpt lat="44.03927478558493" lon="11.254897703386526"><ele>453.0</ele><time>2026-04-10T13:25:32Z</time></trkpt><trkpt lat="44.03916770774632" lon="11.255071220053253"><ele>453.0</ele><time>2026-04-10T13:25:33Z</time></trkpt><trkpt lat="44.039025424785805" lon="11.255239713152616"><ele>456.0</ele><time>2026-04-10T13:25:34Z</time></trkpt><trkpt lat="44.038905626571065" lon="11.255423081233484"><ele>459.0</ele><time>2026-04-10T13:25:35Z</time></trkpt><trkpt lat="44.038813054449115" lon="11.25559569755884"><ele>462.0</ele><time>2026-04-10T13:25:36Z</time></trkpt><trkpt lat="44.038699583619" lon="11.255726840168023"><ele>462.0</ele><time>2026-04-10T13:25:37Z</time></trkpt><trkpt lat="44.0385684618369" lon="11.255823237743805"><ele>462.0</ele><time>2026-04-10T13:25:38Z</time></trkpt><trkpt lat="44.03842467547788" lon="11.255867011520511"><ele>462.0</ele><time>2026-04-10T13:25:39Z</time></trkpt><trkpt lat="44.038279438033236" lon="11.255858669066274"><ele>462.0</ele><time>2026-04-10T13:25:40Z</time></trkpt><trkpt lat="44.038124411769395" lon="11.255788559394425"><ele>461.0</ele><time>2026-04-10T13:25:41Z</time></trkpt><trkpt lat="44.03798225165877" lon="11.255701790043767"><ele>460.0</ele><time>2026-04-10T13:25:42Z</time></trkpt><trkpt lat="44.037848135068565" lon="11.255574059913291"><ele>459.0</ele><time>2026-04-10T13:25:43Z</time></trkpt><trkpt lat="44.037737077715" lon="11.255390288805742"><ele>459.0</ele><time>2026-04-10T13:25:44Z</time></trkpt><trkpt lat="44.037654113570845" lon="11.255221766144942"><ele>459.0</ele><time>2026-04-10T13:25:45Z</time></trkpt><trkpt lat="44.037595859446895" lon="11.255042461008948"><ele>459.0</ele><time>2026-04-10T13:25:46Z</time></trkpt><trkpt lat="44.037589749963466" lon="11.25483450278632"><ele>459.0</ele><time>2026-04-10T13:25:47Z</time></trkpt><trkpt lat="44.03762603120057" lon="11.254635458006527"><ele>458.5</ele><time>2026-04-10T13:25:48Z</time></trkpt><trkpt lat="44.037639087212625" lon="11.254448663930905"><ele>458.0</ele><time>2026-04-10T13:25:49Z</time></trkpt><trkpt lat="44.03759322244499" lon="11.254267861666383"><ele>457.5</ele><time>2026-04-10T13:25:50Z</time></trkpt><trkpt lat="44.03750241060882" lon="11.25411665227635"><ele>457.0</ele><time>2026-04-10T13:25:51Z</time></trkpt><trkpt lat="44.03742452715126" lon="11.253975434180957"><ele>457.33333333333337</ele><time>2026-04-10T13:25:52Z</time></trkpt><trkpt lat="44.0373879042221" lon="11.253789985724476"><ele>457.66666666666663</ele><time>2026-04-10T13:25:53Z</time></trkpt><trkpt lat="44.037384891420544" lon="11.253554418842805"><ele>458.0</ele><time>2026-04-10T13:25:54Z</time></trkpt><trkpt lat="44.03736218064766" lon="11.253291922976592"><ele>460.3333333333333</ele><time>2026-04-10T13:25:55Z</time></trkpt><trkpt lat="44.03732131633919" lon="11.253060437194684"><ele>462.66666666666663</ele><time>2026-04-10T13:25:56Z</time></trkpt><trkpt lat="44.037288928013105" lon="11.252822691090133"><ele>465.0</ele><time>2026-04-10T13:25:57Z</time></trkpt><trkpt lat="44.03728214648837" lon="11.25258990829845"><ele>465.0</ele><time>2026-04-10T13:25:58Z</time></trkpt><trkpt lat="44.037303010240834" lon="11.252352563272007"><ele>465.0</ele><time>2026-04-10T13:25:59Z</time></trkpt><trkpt lat="44.03736911301749" lon="11.25210965657497"><ele>465.0</ele><time>2026-04-10T13:26:00Z</time></trkpt><trkpt lat="44.037463059539085" lon="11.251840562416541"><ele>458.0</ele><time>2026-04-10T13:26:01Z</time></trkpt><trkpt lat="44.037564301025874" lon="11.251573734481886"><ele>451.0</ele><time>2026-04-10T13:26:02Z</time></trkpt><trkpt lat="44.037650409711034" lon="11.251341811916669"><ele>444.0</ele><time>2026-04-10T13:26:03Z</time></trkpt><trkpt lat="44.037739268861756" lon="11.251125394441276"><ele>442.5</ele><time>2026-04-10T13:26:04Z</time></trkpt><trkpt lat="44.03781036966197" lon="11.250935678895177"><ele>441.0</ele><time>2026-04-10T13:26:05Z</time></trkpt><trkpt lat="44.03785934660861" lon="11.250769894264"><ele>439.5</ele><time>2026-04-10T13:26:06Z</time></trkpt><trkpt lat="44.03786814391577" lon="11.250628770958818"><ele>438.0</ele><time>2026-04-10T13:26:07Z</time></trkpt><trkpt lat="44.03783424529767" lon="11.250488930481216"><ele>434.75</ele><time>2026-04-10T13:26:08Z</time></trkpt><trkpt lat="44.0377274355881" lon="11.250433142793943"><ele>431.5</ele><time>2026-04-10T13:26:09Z</time></trkpt><trkpt lat="44.03761238209982" lon="11.250448238391504"><ele>428.25</ele><time>2026-04-10T13:26:10Z</time></trkpt><trkpt lat="44.03748436931102" lon="11.250518478232578"><ele>425.0</ele><time>2026-04-10T13:26:11Z</time></trkpt><trkpt lat="44.037341724989375" lon="11.250584175701071"><ele>425.0</ele><time>2026-04-10T13:26:12Z</time></trkpt><trkpt lat="44.037164845099376" lon="11.25061572546376"><ele>425.0</ele><time>2026-04-10T13:26:13Z</time></trkpt><trkpt lat="44.03699443155789" lon="11.250629996970664"><ele>425.0</ele><time>2026-04-10T13:26:14Z</time></trkpt><trkpt lat="44.0368407386909" lon="11.250621777078097"><ele>425.0</ele><time>2026-04-10T13:26:15Z</time></trkpt><trkpt lat="44.036700082908766" lon="11.2505971785209"><ele>425.0</ele><time>2026-04-10T13:26:16Z</time></trkpt><trkpt lat="44.036569813236014" lon="11.250545607751553"><ele>425.0</ele><time>2026-04-10T13:26:17Z</time></trkpt><trkpt lat="44.03646856989081" lon="11.250416565379524"><ele>425.0</ele><time>2026-04-10T13:26:18Z</time></trkpt><trkpt lat="44.03639287546974" lon="11.25023512429103"><ele>429.0</ele><time>2026-04-10T13:26:19Z</time></trkpt><trkpt lat="44.036359012934895" lon="11.249994172483145"><ele>433.0</ele><time>2026-04-10T13:26:20Z</time></trkpt><trkpt lat="44.03636962713108" lon="11.249723252634668"><ele>437.0</ele><time>2026-04-10T13:26:21Z</time></trkpt><trkpt lat="44.036374180151455" lon="11.249479840498037"><ele>437.0</ele><time>2026-04-10T13:26:22Z</time></trkpt><trkpt lat="44.03638788564946" lon="11.24927576312907"><ele>437.0</ele><time>2026-04-10T13:26:23Z</time></trkpt><trkpt lat="44.03638786595611" lon="11.249096722249334"><ele>437.0</ele><time>2026-04-10T13:26:24Z</time></trkpt><trkpt lat="44.03632225850693" lon="11.24890349496747"><ele>437.0</ele><time>2026-04-10T13:26:25Z</time></trkpt><trkpt lat="44.03621596503527" lon="11.248725881436862"><ele>432.3333333333333</ele><time>2026-04-10T13:26:26Z</time></trkpt><trkpt lat="44.036090660407254" lon="11.24856550789052"><ele>427.66666666666663</ele><time>2026-04-10T13:26:27Z</time></trkpt><trkpt lat="44.035936757931914" lon="11.248439190888373"><ele>423.0</ele><time>2026-04-10T13:26:28Z</time></trkpt><trkpt lat="44.03576139737286" lon="11.248353939532384"><ele>423.0</ele><time>2026-04-10T13:26:29Z</time></trkpt><trkpt lat="44.03559972467419" lon="11.248302423581462"><ele>423.0</ele><time>2026-04-10T13:26:30Z</time></trkpt><trkpt lat="44.035457106428076" lon="11.24827588062508"><ele>423.0</ele><time>2026-04-10T13:26:31Z</time></trkpt><trkpt lat="44.035303330048045" lon="11.248299317365039"><ele>423.0</ele><time>2026-04-10T13:26:32Z</time></trkpt><trkpt lat="44.03515656041972" lon="11.248312315995001"><ele>423.0</ele><time>2026-04-10T13:26:33Z</time></trkpt><trkpt lat="44.035002498337576" lon="11.248294549840718"><ele>423.0</ele><time>2026-04-10T13:26:34Z</time></trkpt><trkpt lat="44.034838926337265" lon="11.248200178454931"><ele>422.75</ele><time>2026-04-10T13:26:35Z</time></trkpt><trkpt lat="44.03475917627004" lon="11.248187720547618"><ele>422.5</ele><time>2026-04-10T13:26:36Z</time></trkpt><trkpt lat="44.03465674359671" lon="11.248024720558059"><ele>422.25</ele><time>2026-04-10T13:26:37Z</time></trkpt><trkpt lat="44.03460077871268" lon="11.247803859804572"><ele>422.0</ele><time>2026-04-10T13:26:38Z</time></trkpt><trkpt lat="44.03454362835662" lon="11.247585485808555"><ele>422.0</ele><time>2026-04-10T13:26:39Z</time></trkpt><trkpt lat="44.034477337871024" lon="11.247411233689036"><ele>422.0</ele><time>2026-04-10T13:26:40Z</time></trkpt><trkpt lat="44.03437721605894" lon="11.24726243867556"><ele>422.0</ele><time>2026-04-10T13:26:41Z</time></trkpt><trkpt lat="44.03424227084734" lon="11.247184906134201"><ele>422.0</ele><time>2026-04-10T13:26:42Z</time></trkpt><trkpt lat="44.034058501080814" lon="11.247148260616179"><ele>419.0</ele><time>2026-04-10T13:26:43Z</time></trkpt><trkpt lat="44.03387662449057" lon="11.247066391059978"><ele>416.0</ele><time>2026-04-10T13:26:44Z</time></trkpt><trkpt lat="44.033722653648276" lon="11.24690294807705"><ele>413.0</ele><time>2026-04-10T13:26:45Z</time></trkpt><trkpt lat="44.03356094662165" lon="11.24678325670623"><ele>413.0</ele><time>2026-04-10T13:26:46Z</time></trkpt><trkpt lat="44.03345604943814" lon="11.246694351669884"><ele>413.0</ele><time>2026-04-10T13:26:47Z</time></trkpt><trkpt lat="44.033343648737606" lon="11.246569041446504"><ele>413.0</ele><time>2026-04-10T13:26:48Z</time></trkpt><trkpt lat="44.03332294542457" lon="11.246389288438003"><ele>413.0</ele><time>2026-04-10T13:26:49Z</time></trkpt><trkpt lat="44.033295634549035" lon="11.246184299304447"><ele>414.75</ele><time>2026-04-10T13:26:50Z</time></trkpt><trkpt lat="44.03324141275547" lon="11.246041242330989"><ele>416.5</ele><time>2026-04-10T13:26:51Z</time></trkpt><trkpt lat="44.033171667672676" lon="11.245938521934036"><ele>418.25</ele><time>2026-04-10T13:26:52Z</time></trkpt><trkpt lat="44.03305076693571" lon="11.245889510665151"><ele>420.0</ele><time>2026-04-10T13:26:53Z</time></trkpt><trkpt lat="44.03289387525866" lon="11.245891450914844"><ele>420.0</ele><time>2026-04-10T13:26:54Z</time></trkpt><trkpt lat="44.03275499795928" lon="11.245815664190413"><ele>420.0</ele><time>2026-04-10T13:26:55Z</time></trkpt><trkpt lat="44.0326553733073" lon="11.245643832457096"><ele>420.0</ele><time>2026-04-10T13:26:56Z</time></trkpt><trkpt lat="44.032535793319646" lon="11.245446811688518"><ele>414.33333333333337</ele><time>2026-04-10T13:26:57Z</time></trkpt><trkpt lat="44.032409715782855" lon="11.245234759767262"><ele>408.6666666666667</ele><time>2026-04-10T13:26:58Z</time></trkpt><trkpt lat="44.03229814821728" lon="11.245064001563243"><ele>403.0</ele><time>2026-04-10T13:26:59Z</time></trkpt><trkpt lat="44.03217686554652" lon="11.244941788013577"><ele>403.0</ele><time>2026-04-10T13:27:00Z</time></trkpt><trkpt lat="44.03204903044402" lon="11.244881386196532"><ele>403.0</ele><time>2026-04-10T13:27:01Z</time></trkpt><trkpt lat="44.03192245925348" lon="11.244858949253743"><ele>403.0</ele><time>2026-04-10T13:27:02Z</time></trkpt><trkpt lat="44.0318025422063" lon="11.244919997545624"><ele>403.0</ele><time>2026-04-10T13:27:03Z</time></trkpt><trkpt lat="44.03168134144966" lon="11.245035764211023"><ele>406.2</ele><time>2026-04-10T13:27:04Z</time></trkpt><trkpt lat="44.03157675899646" lon="11.245153210015832"><ele>409.4</ele><time>2026-04-10T13:27:05Z</time></trkpt><trkpt lat="44.03147173351441" lon="11.245181409462834"><ele>412.59999999999997</ele><time>2026-04-10T13:27:06Z</time></trkpt><trkpt lat="44.031387892740824" lon="11.245191721982938"><ele>415.79999999999995</ele><time>2026-04-10T13:27:07Z</time></trkpt><trkpt lat="44.03131105879438" lon="11.24511127317945"><ele>419.0</ele><time>2026-04-10T13:27:08Z</time></trkpt><trkpt lat="44.031284409774244" lon="11.244957020276345"><ele>419.0</ele><time>2026-04-10T13:27:09Z</time></trkpt><trkpt lat="44.03120124856619" lon="11.244811184059662"><ele>419.0</ele><time>2026-04-10T13:27:10Z</time></trkpt><trkpt lat="44.03109392131257" lon="11.244655027013232"><ele>419.0</ele><time>2026-04-10T13:27:11Z</time></trkpt><trkpt lat="44.03094021153415" lon="11.244533375818166"><ele>412.66666666666663</ele><time>2026-04-10T13:27:12Z</time></trkpt><trkpt lat="44.03076095603838" lon="11.244456504925203"><ele>406.33333333333337</ele><time>2026-04-10T13:27:13Z</time></trkpt><trkpt lat="44.03059132134977" lon="11.244368859654488"><ele>400.0</ele><time>2026-04-10T13:27:14Z</time></trkpt><trkpt lat="44.030449290378215" lon="11.244260969781603"><ele>400.0</ele><time>2026-04-10T13:27:15Z</time></trkpt><trkpt lat="44.03032723441056" lon="11.24411882732991"><ele>400.0</ele><time>2026-04-10T13:27:16Z</time></trkpt><trkpt lat="44.03021938080082" lon="11.24397248614307"><ele>400.0</ele><time>2026-04-10T13:27:17Z</time></trkpt><trkpt lat="44.030102070089974" lon="11.243867432174952"><ele>400.0</ele><time>2026-04-10T13:27:18Z</time></trkpt><trkpt lat="44.0299871972523" lon="11.243809012942435"><ele>395.0</ele><time>2026-04-10T13:27:19Z</time></trkpt><trkpt lat="44.0298656461136" lon="11.243807595405947"><ele>390.0</ele><time>2026-04-10T13:27:20Z</time></trkpt><trkpt lat="44.02974088454622" lon="11.243877913366664"><ele>385.0</ele><time>2026-04-10T13:27:21Z</time></trkpt><trkpt lat="44.02962711356677" lon="11.244023808505029"><ele>380.0</ele><time>2026-04-10T13:27:22Z</time></trkpt><trkpt lat="44.02950999766327" lon="11.244221198605679"><ele>380.0</ele><time>2026-04-10T13:27:23Z</time></trkpt><trkpt lat="44.02941387149507" lon="11.24442242773674"><ele>380.0</ele><time>2026-04-10T13:27:24Z</time></trkpt><trkpt lat="44.02933666024764" lon="11.244580510979741"><ele>380.0</ele><time>2026-04-10T13:27:25Z</time></trkpt><trkpt lat="44.02924695851365" lon="11.244727218396458"><ele>384.4</ele><time>2026-04-10T13:27:26Z</time></trkpt><trkpt lat="44.02918552228319" lon="11.244852100730489"><ele>388.8</ele><time>2026-04-10T13:27:27Z</time></trkpt><trkpt lat="44.02914255830368" lon="11.244968739035215"><ele>393.20000000000005</ele><time>2026-04-10T13:27:28Z</time></trkpt><trkpt lat="44.02905997100176" lon="11.245028318989073"><ele>397.6</ele><time>2026-04-10T13:27:29Z</time></trkpt><trkpt lat="44.02895369133289" lon="11.245038005089972"><ele>402.0</ele><time>2026-04-10T13:27:30Z</time></trkpt><trkpt lat="44.02882678674288" lon="11.244972427374018"><ele>401.25</ele><time>2026-04-10T13:27:31Z</time></trkpt><trkpt lat="44.028750461449306" lon="11.244815152161955"><ele>400.5</ele><time>2026-04-10T13:27:32Z</time></trkpt><trkpt lat="44.02869367109385" lon="11.244679932598528"><ele>399.75</ele><time>2026-04-10T13:27:33Z</time></trkpt><trkpt lat="44.028642432445324" lon="11.244547053607636"><ele>399.0</ele><time>2026-04-10T13:27:34Z</time></trkpt><trkpt lat="44.028619338286205" lon="11.244402288657051"><ele>399.0</ele><time>2026-04-10T13:27:35Z</time></trkpt><trkpt lat="44.02859807441632" lon="11.244220190807818"><ele>399.0</ele><time>2026-04-10T13:27:36Z</time></trkpt><trkpt lat="44.02857529820655" lon="11.244022745759883"><ele>399.0</ele><time>2026-04-10T13:27:37Z</time></trkpt><trkpt lat="44.02853976813023" lon="11.243826511102423"><ele>399.0</ele><time>2026-04-10T13:27:38Z</time></trkpt><trkpt lat="44.02850680193048" lon="11.24364701337595"><ele>400.5</ele><time>2026-04-10T13:27:39Z</time></trkpt><trkpt lat="44.02847040933222" lon="11.243487210457674"><ele>402.0</ele><time>2026-04-10T13:27:40Z</time></trkpt><trkpt lat="44.028419789029364" lon="11.243344632268787"><ele>403.5</ele><time>2026-04-10T13:27:41Z</time></trkpt><trkpt lat="44.02833135727474" lon="11.243235717055203"><ele>405.0</ele><time>2026-04-10T13:27:42Z</time></trkpt><trkpt lat="44.028225421326106" lon="11.243170864213653"><ele>405.0</ele><time>2026-04-10T13:27:43Z</time></trkpt><trkpt lat="44.02811884510365" lon="11.243149534840168"><ele>405.0</ele><time>2026-04-10T13:27:44Z</time></trkpt><trkpt lat="44.02801786893206" lon="11.243152441490917"><ele>405.0</ele><time>2026-04-10T13:27:45Z</time></trkpt><trkpt lat="44.02792514511275" lon="11.24312109867946"><ele>405.0</ele><time>2026-04-10T13:27:46Z</time></trkpt><trkpt lat="44.02785562020708" lon="11.243035465124892"><ele>405.0</ele><time>2026-04-10T13:27:47Z</time></trkpt><trkpt lat="44.02782697224504" lon="11.242905517564566"><ele>400.8</ele><time>2026-04-10T13:27:48Z</time></trkpt><trkpt lat="44.02782031981687" lon="11.2427642756892"><ele>396.6</ele><time>2026-04-10T13:27:49Z</time></trkpt><trkpt lat="44.027795554338724" lon="11.242621166403577"><ele>392.4</ele><time>2026-04-10T13:27:50Z</time></trkpt><trkpt lat="44.02775481131928" lon="11.242498127331146"><ele>388.2</ele><time>2026-04-10T13:27:51Z</time></trkpt><trkpt lat="44.027707269740816" lon="11.242394743624072"><ele>384.0</ele><time>2026-04-10T13:27:52Z</time></trkpt><trkpt lat="44.027649810753424" lon="11.242289368105833"><ele>385.4</ele><time>2026-04-10T13:27:53Z</time></trkpt><trkpt lat="44.02760222552237" lon="11.242188336755904"><ele>386.79999999999995</ele><time>2026-04-10T13:27:54Z</time></trkpt><trkpt lat="44.027553450630826" lon="11.24207862611735"><ele>388.20000000000005</ele><time>2026-04-10T13:27:55Z</time></trkpt><trkpt lat="44.0274932879326" lon="11.241951088207083"><ele>389.6</ele><time>2026-04-10T13:27:56Z</time></trkpt><trkpt lat="44.0274194662376" lon="11.241792894211047"><ele>391.0</ele><time>2026-04-10T13:27:57Z</time></trkpt><trkpt lat="44.027343156663235" lon="11.241609257434575"><ele>381.6666666666667</ele><time>2026-04-10T13:27:58Z</time></trkpt><trkpt lat="44.02726614278081" lon="11.241412434215244"><ele>372.33333333333337</ele><time>2026-04-10T13:27:59Z</time></trkpt><trkpt lat="44.02719845556106" lon="11.24122429691623"><ele>363.0</ele><time>2026-04-10T13:28:00Z</time></trkpt><trkpt lat="44.02710946675352" lon="11.241070467665969"><ele>363.0</ele><time>2026-04-10T13:28:01Z</time></trkpt><trkpt lat="44.02698507454671" lon="11.240948346403687"><ele>363.0</ele><time>2026-04-10T13:28:02Z</time></trkpt><trkpt lat="44.026854519521315" lon="11.240854332115477"><ele>363.0</ele><time>2026-04-10T13:28:03Z</time></trkpt><trkpt lat="44.026719436580805" lon="11.240802553239742"><ele>363.0</ele><time>2026-04-10T13:28:04Z</time></trkpt><trkpt lat="44.026567011044996" lon="11.240777705055077"><ele>362.75</ele><time>2026-04-10T13:28:05Z</time></trkpt><trkpt lat="44.02642298001989" lon="11.24076045730569"><ele>362.5</ele><time>2026-04-10T13:28:06Z</time></trkpt><trkpt lat="44.026298852280384" lon="11.24074015277735"><ele>362.25</ele><time>2026-04-10T13:28:07Z</time></trkpt><trkpt lat="44.026183371827855" lon="11.240706353169877"><ele>362.0</ele><time>2026-04-10T13:28:08Z</time></trkpt><trkpt lat="44.02607930207002" lon="11.240666100131966"><ele>362.0</ele><time>2026-04-10T13:28:09Z</time></trkpt><trkpt lat="44.02597735219099" lon="11.240639502765081"><ele>362.0</ele><time>2026-04-10T13:28:10Z</time></trkpt><trkpt lat="44.025875916057004" lon="11.24064987979478"><ele>362.0</ele><time>2026-04-10T13:28:11Z</time></trkpt><trkpt lat="44.02578175590599" lon="11.240700393263223"><ele>362.0</ele><time>2026-04-10T13:28:12Z</time></trkpt><trkpt lat="44.0257029027117" lon="11.24078555058636"><ele>362.0</ele><time>2026-04-10T13:28:13Z</time></trkpt><trkpt lat="44.025647991520316" lon="11.240899724689505"><ele>364.83333333333337</ele><time>2026-04-10T13:28:14Z</time></trkpt><trkpt lat="44.02559289819491" lon="11.241006118219236"><ele>367.6666666666667</ele><time>2026-04-10T13:28:15Z</time></trkpt><trkpt lat="44.02554228771249" lon="11.241091545055891"><ele>370.5</ele><time>2026-04-10T13:28:16Z</time></trkpt><trkpt lat="44.02549637992443" lon="11.241168343991143"><ele>373.3333333333333</ele><time>2026-04-10T13:28:17Z</time></trkpt><trkpt lat="44.02542123733931" lon="11.241163165368198"><ele>376.16666666666663</ele><time>2026-04-10T13:28:18Z</time></trkpt><trkpt lat="44.02535640432158" lon="11.241133937880726"><ele>379.0</ele><time>2026-04-10T13:28:19Z</time></trkpt><trkpt lat="44.02528270640505" lon="11.241060523285842"><ele>379.0</ele><time>2026-04-10T13:28:20Z</time></trkpt><trkpt lat="44.02523605797813" lon="11.24093060850108"><ele>379.0</ele><time>2026-04-10T13:28:21Z</time></trkpt><trkpt lat="44.025179851142326" lon="11.24075767115208"><ele>379.0</ele><time>2026-04-10T13:28:22Z</time></trkpt><trkpt lat="44.02510934430976" lon="11.240538375679032"><ele>379.0</ele><time>2026-04-10T13:28:23Z</time></trkpt><trkpt lat="44.025030403154915" lon="11.240341678267871"><ele>375.66666666666663</ele><time>2026-04-10T13:28:24Z</time></trkpt><trkpt lat="44.02493269524595" lon="11.24015920153677"><ele>372.3333333333333</ele><time>2026-04-10T13:28:25Z</time></trkpt><trkpt lat="44.02478845206053" lon="11.240008979928263"><ele>369.0</ele><time>2026-04-10T13:28:26Z</time></trkpt><trkpt lat="44.02460559871333" lon="11.239865342853383"><ele>359.3333333333333</ele><time>2026-04-10T13:28:27Z</time></trkpt><trkpt lat="44.024446288537725" lon="11.239774248598543"><ele>349.66666666666663</ele><time>2026-04-10T13:28:28Z</time></trkpt><trkpt lat="44.02429176973052" lon="11.239656375458349"><ele>340.0</ele><time>2026-04-10T13:28:29Z</time></trkpt><trkpt lat="44.02416792912882" lon="11.239510535098495"><ele>343.25</ele><time>2026-04-10T13:28:30Z</time></trkpt><trkpt lat="44.024055286000596" lon="11.23936972575794"><ele>346.5</ele><time>2026-04-10T13:28:31Z</time></trkpt><trkpt lat="44.02393522332796" lon="11.239296443953545"><ele>349.75</ele><time>2026-04-10T13:28:32Z</time></trkpt><trkpt lat="44.023797758370236" lon="11.239280246610504"><ele>353.0</ele><time>2026-04-10T13:28:33Z</time></trkpt><trkpt lat="44.02367635852595" lon="11.2393113610458"><ele>353.0</ele><time>2026-04-10T13:28:34Z</time></trkpt><trkpt lat="44.023593874126995" lon="11.239284390237353"><ele>353.0</ele><time>2026-04-10T13:28:35Z</time></trkpt><trkpt lat="44.023511570520775" lon="11.239269489996541"><ele>353.0</ele><time>2026-04-10T13:28:36Z</time></trkpt><trkpt lat="44.02346803772203" lon="11.23914584876201"><ele>353.0</ele><time>2026-04-10T13:28:37Z</time></trkpt><trkpt lat="44.0234195435672" lon="11.238997521424341"><ele>353.0</ele><time>2026-04-10T13:28:38Z</time></trkpt><trkpt lat="44.02335352677417" lon="11.238864246150634"><ele>349.75</ele><time>2026-04-10T13:28:39Z</time></trkpt><trkpt lat="44.02325885440932" lon="11.23876131659296"><ele>346.5</ele><time>2026-04-10T13:28:40Z</time></trkpt><trkpt lat="44.023128523882555" lon="11.238660029766999"><ele>343.25</ele><time>2026-04-10T13:28:41Z</time></trkpt><trkpt lat="44.02300432078331" lon="11.238581957464238"><ele>340.0</ele><time>2026-04-10T13:28:42Z</time></trkpt><trkpt lat="44.02288267480419" lon="11.238521399746297"><ele>340.0</ele><time>2026-04-10T13:28:43Z</time></trkpt><trkpt lat="44.02277778846659" lon="11.238439148986412"><ele>340.0</ele><time>2026-04-10T13:28:44Z</time></trkpt><trkpt lat="44.02268101729345" lon="11.238362605005424"><ele>340.0</ele><time>2026-04-10T13:28:45Z</time></trkpt><trkpt lat="44.02257813448308" lon="11.23832835267492"><ele>340.0</ele><time>2026-04-10T13:28:46Z</time></trkpt><trkpt lat="44.02246079673833" lon="11.23836086685737"><ele>340.0</ele><time>2026-04-10T13:28:47Z</time></trkpt><trkpt lat="44.02233499851303" lon="11.23843037302679"><ele>340.0</ele><time>2026-04-10T13:28:48Z</time></trkpt><trkpt lat="44.02222906514162" lon="11.238518779526208"><ele>340.0</ele><time>2026-04-10T13:28:49Z</time></trkpt><trkpt lat="44.02213095489698" lon="11.238589798536315"><ele>340.0</ele><time>2026-04-10T13:28:50Z</time></trkpt><trkpt lat="44.02204338227483" lon="11.238620211777901"><ele>340.0</ele><time>2026-04-10T13:28:51Z</time></trkpt><trkpt lat="44.02195370302984" lon="11.23860249828782"><ele>340.0</ele><time>2026-04-10T13:28:52Z</time></trkpt><trkpt lat="44.02186271695074" lon="11.238524544250986"><ele>340.0</ele><time>2026-04-10T13:28:53Z</time></trkpt><trkpt lat="44.021776672426455" lon="11.238437015814796"><ele>340.0</ele><time>2026-04-10T13:28:54Z</time></trkpt><trkpt lat="44.021689790134545" lon="11.238389549587806"><ele>340.0</ele><time>2026-04-10T13:28:55Z</time></trkpt><trkpt lat="44.02159340690187" lon="11.238398949832337"><ele>339.8</ele><time>2026-04-10T13:28:56Z</time></trkpt><trkpt lat="44.02149746326132" lon="11.238445500871943"><ele>339.6</ele><time>2026-04-10T13:28:57Z</time></trkpt><trkpt lat="44.02139496048274" lon="11.238460451144364"><ele>339.4</ele><time>2026-04-10T13:28:58Z</time></trkpt><trkpt lat="44.0212965006359" lon="11.238479156717482"><ele>339.2</ele><time>2026-04-10T13:28:59Z</time></trkpt><trkpt lat="44.0212024210157" lon="11.23840894184121"><ele>339.0</ele><time>2026-04-10T13:29:00Z</time></trkpt><trkpt lat="44.0211196408077" lon="11.238318770224259"><ele>339.0</ele><time>2026-04-10T13:29:01Z</time></trkpt><trkpt lat="44.02104641010916" lon="11.238218149988615"><ele>339.0</ele><time>2026-04-10T13:29:02Z</time></trkpt><trkpt lat="44.021006523350295" lon="11.238095880160087"><ele>339.0</ele><time>2026-04-10T13:29:03Z</time></trkpt><trkpt lat="44.02096046458303" lon="11.23799328870889"><ele>339.0</ele><time>2026-04-10T13:29:04Z</time></trkpt><trkpt lat="44.0208984006095" lon="11.237912162573245"><ele>339.0</ele><time>2026-04-10T13:29:05Z</time></trkpt><trkpt lat="44.02081828431813" lon="11.237865750272052"><ele>336.0</ele><time>2026-04-10T13:29:06Z</time></trkpt><trkpt lat="44.020709737183964" lon="11.237864588673768"><ele>333.0</ele><time>2026-04-10T13:29:07Z</time></trkpt><trkpt lat="44.020593811009604" lon="11.237942057504577"><ele>330.0</ele><time>2026-04-10T13:29:08Z</time></trkpt><trkpt lat="44.020454459174225" lon="11.23802781968848"><ele>327.0</ele><time>2026-04-10T13:29:09Z</time></trkpt><trkpt lat="44.02030428186811" lon="11.238158914305947"><ele>327.0</ele><time>2026-04-10T13:29:10Z</time></trkpt><trkpt lat="44.020161454651586" lon="11.23828517683124"><ele>327.0</ele><time>2026-04-10T13:29:11Z</time></trkpt><trkpt lat="44.020017999168076" lon="11.23837206060533"><ele>327.0</ele><time>2026-04-10T13:29:12Z</time></trkpt><trkpt lat="44.01986274735596" lon="11.238382623639602"><ele>324.25</ele><time>2026-04-10T13:29:13Z</time></trkpt><trkpt lat="44.01970712937654" lon="11.238366987535194"><ele>321.5</ele><time>2026-04-10T13:29:14Z</time></trkpt><trkpt lat="44.01956230034844" lon="11.238395729706676"><ele>318.75</ele><time>2026-04-10T13:29:15Z</time></trkpt><trkpt lat="44.01944387168002" lon="11.238489777681593"><ele>316.0</ele><time>2026-04-10T13:29:16Z</time></trkpt><trkpt lat="44.01933751933925" lon="11.238656989013963"><ele>316.0</ele><time>2026-04-10T13:29:17Z</time></trkpt><trkpt lat="44.019256143912486" lon="11.238846295118112"><ele>316.0</ele><time>2026-04-10T13:29:18Z</time></trkpt><trkpt lat="44.01918461413843" lon="11.23900044793566"><ele>316.0</ele><time>2026-04-10T13:29:19Z</time></trkpt><trkpt lat="44.01910553054819" lon="11.239134396410964"><ele>316.0</ele><time>2026-04-10T13:29:20Z</time></trkpt><trkpt lat="44.018997044323285" lon="11.239216203770527"><ele>318.0</ele><time>2026-04-10T13:29:21Z</time></trkpt><trkpt lat="44.01887181971252" lon="11.239229819478425"><ele>320.0</ele><time>2026-04-10T13:29:22Z</time></trkpt><trkpt lat="44.018726859732524" lon="11.239174053860571"><ele>322.0</ele><time>2026-04-10T13:29:23Z</time></trkpt><trkpt lat="44.018580020612774" lon="11.239100472747866"><ele>324.0</ele><time>2026-04-10T13:29:24Z</time></trkpt><trkpt lat="44.01842439732361" lon="11.239006999245081"><ele>326.25</ele><time>2026-04-10T13:29:25Z</time></trkpt><trkpt lat="44.018287672587036" lon="11.238916494461266"><ele>328.5</ele><time>2026-04-10T13:29:26Z</time></trkpt><trkpt lat="44.018166157783234" lon="11.238796691335446"><ele>330.75</ele><time>2026-04-10T13:29:27Z</time></trkpt><trkpt lat="44.01808872560061" lon="11.238637708676317"><ele>333.0</ele><time>2026-04-10T13:29:28Z</time></trkpt><trkpt lat="44.01805303966746" lon="11.238445805335326"><ele>333.0</ele><time>2026-04-10T13:29:29Z</time></trkpt><trkpt lat="44.01807706024696" lon="11.2382478784063"><ele>333.0</ele><time>2026-04-10T13:29:30Z</time></trkpt><trkpt lat="44.01810836169088" lon="11.238052428593443"><ele>333.0</ele><time>2026-04-10T13:29:31Z</time></trkpt><trkpt lat="44.01812905253729" lon="11.237869602836124"><ele>333.0</ele><time>2026-04-10T13:29:32Z</time></trkpt><trkpt lat="44.01811401647927" lon="11.237708867157155"><ele>328.3333333333333</ele><time>2026-04-10T13:29:33Z</time></trkpt><trkpt lat="44.01804091413885" lon="11.237574037259426"><ele>323.66666666666663</ele><time>2026-04-10T13:29:34Z</time></trkpt><trkpt lat="44.017902029257776" lon="11.23749154190863"><ele>319.0</ele><time>2026-04-10T13:29:35Z</time></trkpt><trkpt lat="44.017734011174596" lon="11.23739727848567"><ele>313.0</ele><time>2026-04-10T13:29:36Z</time></trkpt><trkpt lat="44.017532884932805" lon="11.237293549895474"><ele>307.0</ele><time>2026-04-10T13:29:37Z</time></trkpt><trkpt lat="44.017318047432006" lon="11.23718134467098"><ele>301.0</ele><time>2026-04-10T13:29:38Z</time></trkpt><trkpt lat="44.01709354142581" lon="11.237062638300511"><ele>301.0</ele><time>2026-04-10T13:29:40Z</time></trkpt><trkpt lat="44.016902884156764" lon="11.237003863191546"><ele>301.0</ele><time>2026-04-10T13:29:41Z</time></trkpt><trkpt lat="44.01675213627296" lon="11.236933974305817"><ele>301.0</ele><time>2026-04-10T13:29:42Z</time></trkpt><trkpt lat="44.01657961799682" lon="11.236853008055517"><ele>299.3333333333333</ele><time>2026-04-10T13:29:43Z</time></trkpt><trkpt lat="44.01642733297054" lon="11.236774850785377"><ele>297.6666666666667</ele><time>2026-04-10T13:29:44Z</time></trkpt><trkpt lat="44.01630230514515" lon="11.236635593596114"><ele>296.0</ele><time>2026-04-10T13:29:45Z</time></trkpt><trkpt lat="44.01620814073447" lon="11.236468214013414"><ele>296.0</ele><time>2026-04-10T13:29:46Z</time></trkpt><trkpt lat="44.016111633199465" lon="11.23628003024166"><ele>296.0</ele><time>2026-04-10T13:29:47Z</time></trkpt><trkpt lat="44.01601160355626" lon="11.236155475472627"><ele>296.0</ele><time>2026-04-10T13:29:48Z</time></trkpt><trkpt lat="44.015889600442726" lon="11.236048970666644"><ele>296.0</ele><time>2026-04-10T13:29:49Z</time></trkpt><trkpt lat="44.015731222404035" lon="11.235990906851624"><ele>296.0</ele><time>2026-04-10T13:29:50Z</time></trkpt><trkpt lat="44.01554493690261" lon="11.235970269093462"><ele>296.0</ele><time>2026-04-10T13:29:51Z</time></trkpt><trkpt lat="44.015328124359975" lon="11.235950707832448"><ele>296.0</ele><time>2026-04-10T13:29:52Z</time></trkpt><trkpt lat="44.01510215381553" lon="11.235951046026932"><ele>292.5</ele><time>2026-04-10T13:29:53Z</time></trkpt><trkpt lat="44.01487152629613" lon="11.235963766891619"><ele>289.0</ele><time>2026-04-10T13:29:54Z</time></trkpt><trkpt lat="44.014626862495774" lon="11.236003700622396"><ele>289.0</ele><time>2026-04-10T13:29:55Z</time></trkpt><trkpt lat="44.01440703487129" lon="11.236056089668804"><ele>289.0</ele><time>2026-04-10T13:29:56Z</time></trkpt><trkpt lat="44.01420920312097" lon="11.236092933897057"><ele>289.0</ele><time>2026-04-10T13:29:57Z</time></trkpt><trkpt lat="44.0140340628291" lon="11.23611537089736"><ele>288.0</ele><time>2026-04-10T13:29:58Z</time></trkpt><trkpt lat="44.01386206054316" lon="11.236150050515132"><ele>287.0</ele><time>2026-04-10T13:29:59Z</time></trkpt><trkpt lat="44.01368183923011" lon="11.236235178641147"><ele>286.0</ele><time>2026-04-10T13:30:00Z</time></trkpt><trkpt lat="44.01349922686432" lon="11.236372178238774"><ele>286.0</ele><time>2026-04-10T13:30:01Z</time></trkpt><trkpt lat="44.0133313687001" lon="11.236552943950363"><ele>286.0</ele><time>2026-04-10T13:30:02Z</time></trkpt><trkpt lat="44.01313387676584" lon="11.23664107456076"><ele>286.0</ele><time>2026-04-10T13:30:03Z</time></trkpt><trkpt lat="44.01294485803179" lon="11.236750904469949"><ele>286.0</ele><time>2026-04-10T13:30:04Z</time></trkpt><trkpt lat="44.01276000252923" lon="11.23682927191595"><ele>286.0</ele><time>2026-04-10T13:30:05Z</time></trkpt><trkpt lat="44.01258853008609" lon="11.23691156962658"><ele>286.0</ele><time>2026-04-10T13:30:06Z</time></trkpt><trkpt lat="44.01243351876481" lon="11.236999357880542"><ele>285.5</ele><time>2026-04-10T13:30:07Z</time></trkpt><trkpt lat="44.012273279767584" lon="11.237071322002992"><ele>285.0</ele><time>2026-04-10T13:30:08Z</time></trkpt><trkpt lat="44.01214702604354" lon="11.237173716589528"><ele>284.5</ele><time>2026-04-10T13:30:09Z</time></trkpt><trkpt lat="44.012034716404436" lon="11.237244423833289"><ele>284.0</ele><time>2026-04-10T13:30:10Z</time></trkpt><trkpt lat="44.01194188811301" lon="11.237297426854004"><ele>284.0</ele><time>2026-04-10T13:30:11Z</time></trkpt><trkpt lat="44.0118721970418" lon="11.237305778102527"><ele>284.0</ele><time>2026-04-10T13:30:12Z</time></trkpt><trkpt lat="44.01181130346192" lon="11.237281000766556"><ele>284.0</ele><time>2026-04-10T13:30:13Z</time></trkpt><trkpt lat="44.01175891661385" lon="11.237220852849813"><ele>284.0</ele><time>2026-04-10T13:30:14Z</time></trkpt><trkpt lat="44.011734976160874" lon="11.237107895444865"><ele>284.0</ele><time>2026-04-10T13:30:15Z</time></trkpt><trkpt lat="44.01167202980258" lon="11.237016597546084"><ele>284.0</ele><time>2026-04-10T13:30:16Z</time></trkpt><trkpt lat="44.01155670754718" lon="11.237004776861419"><ele>283.8</ele><time>2026-04-10T13:30:17Z</time></trkpt><trkpt lat="44.01146349159427" lon="11.237011656539927"><ele>283.59999999999997</ele><time>2026-04-10T13:30:18Z</time></trkpt><trkpt lat="44.01139198323022" lon="11.237129518376536"><ele>283.4</ele><time>2026-04-10T13:30:19Z</time></trkpt><trkpt lat="44.01134342512295" lon="11.237257826381597"><ele>283.2</ele><time>2026-04-10T13:30:20Z</time></trkpt><trkpt lat="44.01133815374033" lon="11.237402184073474"><ele>283.0</ele><time>2026-04-10T13:30:21Z</time></trkpt><trkpt lat="44.01136641951034" lon="11.237536920981107"><ele>283.0</ele><time>2026-04-10T13:30:22Z</time></trkpt><trkpt lat="44.011391938453954" lon="11.237650356605762"><ele>283.0</ele><time>2026-04-10T13:30:23Z</time></trkpt><trkpt lat="44.01131644817932" lon="11.237782202246667"><ele>283.0</ele><time>2026-04-10T13:30:25Z</time></trkpt><trkpt lat="44.01123501843911" lon="11.237850682474164"><ele>283.0</ele><time>2026-04-10T13:30:26Z</time></trkpt><trkpt lat="44.0111146527482" lon="11.237961858102317"><ele>283.0</ele><time>2026-04-10T13:30:27Z</time></trkpt><trkpt lat="44.01097611606351" lon="11.238101949922632"><ele>282.0</ele><time>2026-04-10T13:30:28Z</time></trkpt><trkpt lat="44.01082319281265" lon="11.238246020039636"><ele>281.0</ele><time>2026-04-10T13:30:29Z</time></trkpt><trkpt lat="44.01066438554344" lon="11.238405726827802"><ele>280.0</ele><time>2026-04-10T13:30:30Z</time></trkpt><trkpt lat="44.010496893092764" lon="11.238595479386074"><ele>280.0</ele><time>2026-04-10T13:30:31Z</time></trkpt><trkpt lat="44.010321025982726" lon="11.238799411656723"><ele>280.0</ele><time>2026-04-10T13:30:32Z</time></trkpt><trkpt lat="44.01014534896376" lon="11.23900435568939"><ele>280.0</ele><time>2026-04-10T13:30:33Z</time></trkpt><trkpt lat="44.009959212289736" lon="11.239194774299149"><ele>280.0</ele><time>2026-04-10T13:30:34Z</time></trkpt><trkpt lat="44.00977695808565" lon="11.239403687295384"><ele>280.0</ele><time>2026-04-10T13:30:35Z</time></trkpt><trkpt lat="44.009594974350996" lon="11.239604374442655"><ele>280.0</ele><time>2026-04-10T13:30:36Z</time></trkpt><trkpt lat="44.009408324154904" lon="11.239790371774829"><ele>280.3333333333333</ele><time>2026-04-10T13:30:37Z</time></trkpt><trkpt lat="44.00922238926828" lon="11.239949278473519"><ele>280.6666666666667</ele><time>2026-04-10T13:30:38Z</time></trkpt><trkpt lat="44.00904221541395" lon="11.240078115897491"><ele>281.0</ele><time>2026-04-10T13:30:39Z</time></trkpt><trkpt lat="44.008864855286085" lon="11.240182332596143"><ele>280.33333333333337</ele><time>2026-04-10T13:30:40Z</time></trkpt><trkpt lat="44.008687939450695" lon="11.240270974165453"><ele>279.6666666666667</ele><time>2026-04-10T13:30:41Z</time></trkpt><trkpt lat="44.00849794022761" lon="11.240337858940151"><ele>279.0</ele><time>2026-04-10T13:30:42Z</time></trkpt><trkpt lat="44.00829816233341" lon="11.240393289306505"><ele>279.0</ele><time>2026-04-10T13:30:43Z</time></trkpt><trkpt lat="44.008097053535316" lon="11.240441852097865"><ele>279.0</ele><time>2026-04-10T13:30:44Z</time></trkpt><trkpt lat="44.00788018206673" lon="11.240467853519263"><ele>279.0</ele><time>2026-04-10T13:30:45Z</time></trkpt><trkpt lat="44.007646323054836" lon="11.240459412675692"><ele>278.0</ele><time>2026-04-10T13:30:46Z</time></trkpt><trkpt lat="44.007391064408424" lon="11.240426930350456"><ele>277.0</ele><time>2026-04-10T13:30:47Z</time></trkpt><trkpt lat="44.00712589792258" lon="11.240369423391751"><ele>277.0</ele><time>2026-04-10T13:30:48Z</time></trkpt><trkpt lat="44.00683861416467" lon="11.240311449126995"><ele>277.0</ele><time>2026-04-10T13:30:49Z</time></trkpt><trkpt lat="44.00653725074329" lon="11.240234199021117"><ele>278.5</ele><time>2026-04-10T13:30:50Z</time></trkpt><trkpt lat="44.00624225822524" lon="11.240162502200237"><ele>280.0</ele><time>2026-04-10T13:30:51Z</time></trkpt><trkpt lat="44.00597747485302" lon="11.24010350323479"><ele>279.0</ele><time>2026-04-10T13:30:52Z</time></trkpt><trkpt lat="44.00573203802832" lon="11.240048980486552"><ele>278.0</ele><time>2026-04-10T13:30:53Z</time></trkpt><trkpt lat="44.00550492854286" lon="11.240005754629838"><ele>278.0</ele><time>2026-04-10T13:30:54Z</time></trkpt><trkpt lat="44.00528195838625" lon="11.240008906589209"><ele>278.0</ele><time>2026-04-10T13:30:55Z</time></trkpt><trkpt lat="44.0050743676376" lon="11.24003937221358"><ele>278.0</ele><time>2026-04-10T13:30:56Z</time></trkpt><trkpt lat="44.00486855895797" lon="11.240112737639269"><ele>276.5</ele><time>2026-04-10T13:30:57Z</time></trkpt><trkpt lat="44.004646463230806" lon="11.240240894779827"><ele>275.0</ele><time>2026-04-10T13:30:58Z</time></trkpt><trkpt lat="44.00442963070045" lon="11.240420793528152"><ele>274.5</ele><time>2026-04-10T13:30:59Z</time></trkpt><trkpt lat="44.00423049851449" lon="11.240658059729526"><ele>274.0</ele><time>2026-04-10T13:31:00Z</time></trkpt><trkpt lat="44.004053905441" lon="11.240951393890619"><ele>274.0</ele><time>2026-04-10T13:31:01Z</time></trkpt><trkpt lat="44.003880254068854" lon="11.2412566095787"><ele>274.0</ele><time>2026-04-10T13:31:02Z</time></trkpt><trkpt lat="44.00371547783936" lon="11.24154283741901"><ele>274.5</ele><time>2026-04-10T13:31:03Z</time></trkpt><trkpt lat="44.0035529448432" lon="11.24180845555242"><ele>275.0</ele><time>2026-04-10T13:31:04Z</time></trkpt><trkpt lat="44.003358544724534" lon="11.242027593407343"><ele>275.0</ele><time>2026-04-10T13:31:05Z</time></trkpt><trkpt lat="44.0031424236287" lon="11.24223017446663"><ele>275.0</ele><time>2026-04-10T13:31:06Z</time></trkpt><trkpt lat="44.002902176200806" lon="11.242398656270378"><ele>275.0</ele><time>2026-04-10T13:31:07Z</time></trkpt><trkpt lat="44.0026544670168" lon="11.242564434509228"><ele>275.0</ele><time>2026-04-10T13:31:08Z</time></trkpt><trkpt lat="44.00241486201514" lon="11.242713544313117"><ele>272.0</ele><time>2026-04-10T13:31:09Z</time></trkpt><trkpt lat="44.00219374442476" lon="11.242857596007804"><ele>269.0</ele><time>2026-04-10T13:31:10Z</time></trkpt><trkpt lat="44.00198191272617" lon="11.242997471376887"><ele>269.0</ele><time>2026-04-10T13:31:11Z</time></trkpt><trkpt lat="44.001786029324016" lon="11.243124912833155"><ele>269.0</ele><time>2026-04-10T13:31:12Z</time></trkpt><trkpt lat="44.00160152112525" lon="11.243242210066672"><ele>269.0</ele><time>2026-04-10T13:31:13Z</time></trkpt><trkpt lat="44.00142356945106" lon="11.243361662739508"><ele>270.0</ele><time>2026-04-10T13:31:14Z</time></trkpt><trkpt lat="44.00125314494936" lon="11.243471920577525"><ele>271.0</ele><time>2026-04-10T13:31:15Z</time></trkpt><trkpt lat="44.00108272711971" lon="11.243548576168548"><ele>272.0</ele><time>2026-04-10T13:31:16Z</time></trkpt><trkpt lat="44.00088892261832" lon="11.243590578808282"><ele>271.0</ele><time>2026-04-10T13:31:17Z</time></trkpt><trkpt lat="44.0006801760638" lon="11.243585726845588"><ele>270.0</ele><time>2026-04-10T13:31:18Z</time></trkpt><trkpt lat="44.00049632477087" lon="11.243552262746906"><ele>269.0</ele><time>2026-04-10T13:31:19Z</time></trkpt><trkpt lat="44.00034690766827" lon="11.243491977457738"><ele>269.0</ele><time>2026-04-10T13:31:20Z</time></trkpt><trkpt lat="44.00021870940458" lon="11.243425041443386"><ele>269.0</ele><time>2026-04-10T13:31:21Z</time></trkpt><trkpt lat="44.000112351176504" lon="11.243354511276626"><ele>269.0</ele><time>2026-04-10T13:31:22Z</time></trkpt><trkpt lat="44.000033286514196" lon="11.243268206888127"><ele>269.0</ele><time>2026-04-10T13:31:23Z</time></trkpt><trkpt lat="43.999973435292624" lon="11.243158442893703"><ele>268.8</ele><time>2026-04-10T13:31:24Z</time></trkpt><trkpt lat="43.99991850004652" lon="11.24305200842656"><ele>268.59999999999997</ele><time>2026-04-10T13:31:25Z</time></trkpt><trkpt lat="43.999849502348894" lon="11.242993994443975"><ele>268.4</ele><time>2026-04-10T13:31:26Z</time></trkpt><trkpt lat="43.99976334249326" lon="11.24299894460875"><ele>268.2</ele><time>2026-04-10T13:31:27Z</time></trkpt><trkpt lat="43.99966771649126" lon="11.243034201222635"><ele>268.0</ele><time>2026-04-10T13:31:28Z</time></trkpt><trkpt lat="43.999559798568015" lon="11.24309170222403"><ele>268.0</ele><time>2026-04-10T13:31:29Z</time></trkpt><trkpt lat="43.999437384666166" lon="11.243088705577838"><ele>268.0</ele><time>2026-04-10T13:31:30Z</time></trkpt><trkpt lat="43.99930609336567" lon="11.243027711053045"><ele>268.0</ele><time>2026-04-10T13:31:31Z</time></trkpt><trkpt lat="43.99917310997484" lon="11.242949160076522"><ele>268.0</ele><time>2026-04-10T13:31:32Z</time></trkpt><trkpt lat="43.999028813209954" lon="11.242879238712607"><ele>268.0</ele><time>2026-04-10T13:31:33Z</time></trkpt><trkpt lat="43.99887383754969" lon="11.242824708483052"><ele>268.0</ele><time>2026-04-10T13:31:34Z</time></trkpt><trkpt lat="43.99871437206833" lon="11.242762688660717"><ele>268.0</ele><time>2026-04-10T13:31:35Z</time></trkpt><trkpt lat="43.998563218146295" lon="11.242691783439183"><ele>268.0</ele><time>2026-04-10T13:31:36Z</time></trkpt><trkpt lat="43.99840441097288" lon="11.242613291809025"><ele>268.0</ele><time>2026-04-10T13:31:37Z</time></trkpt><trkpt lat="43.99822986978653" lon="11.242533949529564"><ele>268.0</ele><time>2026-04-10T13:31:38Z</time></trkpt><trkpt lat="43.99805564014133" lon="11.242446476969379"><ele>266.66666666666663</ele><time>2026-04-10T13:31:39Z</time></trkpt><trkpt lat="43.997884890746825" lon="11.242356964237135"><ele>265.3333333333333</ele><time>2026-04-10T13:31:40Z</time></trkpt><trkpt lat="43.99771877354105" lon="11.24227486253299"><ele>264.0</ele><time>2026-04-10T13:31:41Z</time></trkpt><trkpt lat="43.997554075893206" lon="11.24219947150096"><ele>264.0</ele><time>2026-04-10T13:31:42Z</time></trkpt><trkpt lat="43.99737515934076" lon="11.242119792522466"><ele>264.0</ele><time>2026-04-10T13:31:43Z</time></trkpt><trkpt lat="43.99719705001767" lon="11.242042953711398"><ele>264.0</ele><time>2026-04-10T13:31:44Z</time></trkpt><trkpt lat="43.99702951024565" lon="11.241975848886215"><ele>264.0</ele><time>2026-04-10T13:31:45Z</time></trkpt><trkpt lat="43.996873845661696" lon="11.24190875285005"><ele>264.0</ele><time>2026-04-10T13:31:46Z</time></trkpt><trkpt lat="43.99672845150543" lon="11.241835928904695"><ele>264.0</ele><time>2026-04-10T13:31:47Z</time></trkpt><trkpt lat="43.99660455678895" lon="11.241742822473558"><ele>263.25</ele><time>2026-04-10T13:31:48Z</time></trkpt><trkpt lat="43.996504783299756" lon="11.241607399543575"><ele>262.5</ele><time>2026-04-10T13:31:49Z</time></trkpt><trkpt lat="43.996425505909485" lon="11.24145935758128"><ele>261.75</ele><time>2026-04-10T13:31:50Z</time></trkpt><trkpt lat="43.99637686895917" lon="11.241291373204906"><ele>261.0</ele><time>2026-04-10T13:31:51Z</time></trkpt><trkpt lat="43.996331278188755" lon="11.241125077411272"><ele>261.0</ele><time>2026-04-10T13:31:52Z</time></trkpt><trkpt lat="43.99629619283564" lon="11.24098208553268"><ele>261.0</ele><time>2026-04-10T13:31:53Z</time></trkpt><trkpt lat="43.996267654359116" lon="11.24085777917174"><ele>261.0</ele><time>2026-04-10T13:31:54Z</time></trkpt><trkpt lat="43.99625078746307" lon="11.240759293321766"><ele>261.0</ele><time>2026-04-10T13:31:55Z</time></trkpt><trkpt lat="43.99622537546942" lon="11.240650073576896"><ele>261.0</ele><time>2026-04-10T13:31:57Z</time></trkpt><trkpt lat="43.9961909376664" lon="11.240507822065485"><ele>261.6</ele><time>2026-04-10T13:32:22Z</time></trkpt><trkpt lat="43.99616174738141" lon="11.240402933348244"><ele>262.20000000000005</ele><time>2026-04-10T13:32:23Z</time></trkpt><trkpt lat="43.99612735354841" lon="11.24028896870622"><ele>262.79999999999995</ele><time>2026-04-10T13:32:24Z</time></trkpt><trkpt lat="43.99607443946146" lon="11.24019110715102"><ele>263.4</ele><time>2026-04-10T13:32:25Z</time></trkpt><trkpt lat="43.996037927660225" lon="11.240093828184907"><ele>264.0</ele><time>2026-04-10T13:32:26Z</time></trkpt><trkpt lat="43.99589298571456" lon="11.240108625886123"><ele>264.25</ele><time>2026-04-10T13:32:27Z</time></trkpt><trkpt lat="43.99577248059454" lon="11.240121156482646"><ele>264.5</ele><time>2026-04-10T13:32:28Z</time></trkpt><trkpt lat="43.99565354174165" lon="11.240144923696796"><ele>264.75</ele><time>2026-04-10T13:32:29Z</time></trkpt><trkpt lat="43.99553049471579" lon="11.240164212665775"><ele>265.0</ele><time>2026-04-10T13:32:30Z</time></trkpt><trkpt lat="43.99541387133476" lon="11.240175276353556"><ele>265.0</ele><time>2026-04-10T13:32:31Z</time></trkpt><trkpt lat="43.995306673249004" lon="11.240185829917534"><ele>265.0</ele><time>2026-04-10T13:32:32Z</time></trkpt><trkpt lat="43.99520315685409" lon="11.24019691437225"><ele>265.0</ele><time>2026-04-10T13:32:33Z</time></trkpt><trkpt lat="43.99509123422667" lon="11.240214262728665"><ele>265.0</ele><time>2026-04-10T13:32:34Z</time></trkpt><trkpt lat="43.994981550337044" lon="11.240228323934364"><ele>265.0</ele><time>2026-04-10T13:32:35Z</time></trkpt><trkpt lat="43.99488525048616" lon="11.240239869728581"><ele>265.0</ele><time>2026-04-10T13:32:36Z</time></trkpt><trkpt lat="43.994784658188344" lon="11.240251817426211"><ele>265.0</ele><time>2026-04-10T13:32:37Z</time></trkpt><trkpt lat="43.994684762394854" lon="11.240262304670722"><ele>265.0</ele><time>2026-04-10T13:32:38Z</time></trkpt><trkpt lat="43.99457798928091" lon="11.240274021204643"><ele>265.0</ele><time>2026-04-10T13:32:39Z</time></trkpt><trkpt lat="43.994468605985126" lon="11.240279385948826"><ele>265.0</ele><time>2026-04-10T13:32:40Z</time></trkpt><trkpt lat="43.99435805716481" lon="11.240288511121598"><ele>265.0</ele><time>2026-04-10T13:32:41Z</time></trkpt><trkpt lat="43.99423902660258" lon="11.240304782600418"><ele>265.0</ele><time>2026-04-10T13:32:42Z</time></trkpt><trkpt lat="43.99412526405871" lon="11.2403238033819"><ele>265.0</ele><time>2026-04-10T13:32:43Z</time></trkpt><trkpt lat="43.99401846456935" lon="11.240337045632732"><ele>265.0</ele><time>2026-04-10T13:32:44Z</time></trkpt><trkpt lat="43.99392184383474" lon="11.240348154987089"><ele>265.0</ele><time>2026-04-10T13:32:45Z</time></trkpt><trkpt lat="43.99383179862726" lon="11.240359181108232"><ele>264.6</ele><time>2026-04-10T13:32:46Z</time></trkpt><trkpt lat="43.99374542640695" lon="11.240366676812666"><ele>264.2</ele><time>2026-04-10T13:32:47Z</time></trkpt><trkpt lat="43.993651852535535" lon="11.240368082667167"><ele>263.8</ele><time>2026-04-10T13:32:48Z</time></trkpt><trkpt lat="43.993547111690376" lon="11.240352376342832"><ele>263.4</ele><time>2026-04-10T13:32:49Z</time></trkpt><trkpt lat="43.99345415937893" lon="11.240287998714539"><ele>263.0</ele><time>2026-04-10T13:32:50Z</time></trkpt><trkpt lat="43.99336922594406" lon="11.240206492954513"><ele>263.0</ele><time>2026-04-10T13:32:51Z</time></trkpt><trkpt lat="43.99327303154702" lon="11.240112330953126"><ele>263.0</ele><time>2026-04-10T13:32:52Z</time></trkpt><trkpt lat="43.99317155146295" lon="11.240017084556273"><ele>263.0</ele><time>2026-04-10T13:32:53Z</time></trkpt><trkpt lat="43.99307597372466" lon="11.239899497964664"><ele>263.0</ele><time>2026-04-10T13:32:54Z</time></trkpt><trkpt lat="43.99299542249216" lon="11.23976185482754"><ele>263.0</ele><time>2026-04-10T13:32:55Z</time></trkpt><trkpt lat="43.992933877134085" lon="11.239589904778065"><ele>263.0</ele><time>2026-04-10T13:32:56Z</time></trkpt><trkpt lat="43.99287579885374" lon="11.239394847216928"><ele>263.0</ele><time>2026-04-10T13:32:57Z</time></trkpt><trkpt lat="43.99280777992797" lon="11.239189230281111"><ele>263.0</ele><time>2026-04-10T13:32:58Z</time></trkpt><trkpt lat="43.992732683282604" lon="11.23897458615029"><ele>263.0</ele><time>2026-04-10T13:32:59Z</time></trkpt><trkpt lat="43.99265817527617" lon="11.238760481855648"><ele>263.0</ele><time>2026-04-10T13:33:00Z</time></trkpt><trkpt lat="43.99259195679498" lon="11.238558709177891"><ele>263.0</ele><time>2026-04-10T13:33:01Z</time></trkpt><trkpt lat="43.992521417693006" lon="11.238354254432142"><ele>263.0</ele><time>2026-04-10T13:33:02Z</time></trkpt><trkpt lat="43.99244864378736" lon="11.238141141262318"><ele>263.0</ele><time>2026-04-10T13:33:03Z</time></trkpt><trkpt lat="43.99237701117087" lon="11.237927923291625"><ele>263.0</ele><time>2026-04-10T13:33:04Z</time></trkpt><trkpt lat="43.99230487019302" lon="11.237721601343056"><ele>263.0</ele><time>2026-04-10T13:33:05Z</time></trkpt><trkpt lat="43.99223406801159" lon="11.237514278474839"><ele>263.0</ele><time>2026-04-10T13:33:06Z</time></trkpt><trkpt lat="43.99216221582761" lon="11.237303246420964"><ele>263.0</ele><time>2026-04-10T13:33:07Z</time></trkpt><trkpt lat="43.992092401436935" lon="11.237093463692819"><ele>263.0</ele><time>2026-04-10T13:33:08Z</time></trkpt><trkpt lat="43.99202337242831" lon="11.236898751534962"><ele>263.0</ele><time>2026-04-10T13:33:09Z</time></trkpt><trkpt lat="43.991967530564025" lon="11.2367176075801"><ele>263.0</ele><time>2026-04-10T13:33:10Z</time></trkpt><trkpt lat="43.991910433001" lon="11.236554575084142"><ele>263.0</ele><time>2026-04-10T13:33:11Z</time></trkpt><trkpt lat="43.991852338192864" lon="11.236409019969452"><ele>263.0</ele><time>2026-04-10T13:33:12Z</time></trkpt><trkpt lat="43.99180306319504" lon="11.236269423599573"><ele>263.0</ele><time>2026-04-10T13:33:13Z</time></trkpt><trkpt lat="43.99175937491762" lon="11.236144350955042"><ele>263.4</ele><time>2026-04-10T13:33:14Z</time></trkpt><trkpt lat="43.991734482173236" lon="11.236021462920899"><ele>263.8</ele><time>2026-04-10T13:33:15Z</time></trkpt><trkpt lat="43.991741718261274" lon="11.235893070251043"><ele>264.2</ele><time>2026-04-10T13:33:16Z</time></trkpt><trkpt lat="43.99176701471322" lon="11.235753193666602"><ele>264.6</ele><time>2026-04-10T13:33:17Z</time></trkpt><trkpt lat="43.99174873920044" lon="11.235642856742125"><ele>265.0</ele><time>2026-04-10T13:33:18Z</time></trkpt><trkpt lat="43.99167859873933" lon="11.23556207987744"><ele>264.75</ele><time>2026-04-10T13:33:19Z</time></trkpt><trkpt lat="43.991569137823554" lon="11.235511809920261"><ele>264.5</ele><time>2026-04-10T13:33:20Z</time></trkpt><trkpt lat="43.99143202494098" lon="11.235480140391928"><ele>264.25</ele><time>2026-04-10T13:33:21Z</time></trkpt><trkpt lat="43.991296180748606" lon="11.23540529052245"><ele>264.0</ele><time>2026-04-10T13:33:22Z</time></trkpt><trkpt lat="43.99116307112359" lon="11.235289217626232"><ele>264.0</ele><time>2026-04-10T13:33:23Z</time></trkpt><trkpt lat="43.991017511446046" lon="11.235161499238037"><ele>264.0</ele><time>2026-04-10T13:33:24Z</time></trkpt><trkpt lat="43.990854817506246" lon="11.235055895141612"><ele>264.0</ele><time>2026-04-10T13:33:25Z</time></trkpt><trkpt lat="43.99067682762883" lon="11.234974547369175"><ele>263.3333333333333</ele><time>2026-04-10T13:33:26Z</time></trkpt><trkpt lat="43.99047861970435" lon="11.234896276038636"><ele>262.66666666666663</ele><time>2026-04-10T13:33:27Z</time></trkpt><trkpt lat="43.99027990742858" lon="11.234802097737504"><ele>262.0</ele><time>2026-04-10T13:33:28Z</time></trkpt><trkpt lat="43.990080802039046" lon="11.234708794352583"><ele>261.3333333333333</ele><time>2026-04-10T13:33:29Z</time></trkpt><trkpt lat="43.989885195801506" lon="11.234619841867058"><ele>260.6666666666667</ele><time>2026-04-10T13:33:30Z</time></trkpt><trkpt lat="43.989700680254806" lon="11.234530878902795"><ele>260.0</ele><time>2026-04-10T13:33:31Z</time></trkpt><trkpt lat="43.989524293352325" lon="11.234436466672188"><ele>260.0</ele><time>2026-04-10T13:33:32Z</time></trkpt><trkpt lat="43.98935442501993" lon="11.234336785171129"><ele>260.0</ele><time>2026-04-10T13:33:33Z</time></trkpt><trkpt lat="43.98919824714054" lon="11.234235881770017"><ele>260.0</ele><time>2026-04-10T13:33:34Z</time></trkpt><trkpt lat="43.98904410870582" lon="11.234124402828625"><ele>259.33333333333337</ele><time>2026-04-10T13:33:35Z</time></trkpt><trkpt lat="43.98888980700478" lon="11.233991801146075"><ele>258.6666666666667</ele><time>2026-04-10T13:33:36Z</time></trkpt><trkpt lat="43.98874188700054" lon="11.233836427043721"><ele>258.0</ele><time>2026-04-10T13:33:37Z</time></trkpt><trkpt lat="43.988601375068214" lon="11.233667387462978"><ele>257.6666666666667</ele><time>2026-04-10T13:33:38Z</time></trkpt><trkpt lat="43.988464341334264" lon="11.23350765486222"><ele>257.33333333333337</ele><time>2026-04-10T13:33:39Z</time></trkpt><trkpt lat="43.98833190854816" lon="11.233371548047861"><ele>257.0</ele><time>2026-04-10T13:33:40Z</time></trkpt><trkpt lat="43.98820896736851" lon="11.233239872070353"><ele>257.25</ele><time>2026-04-10T13:33:41Z</time></trkpt><trkpt lat="43.988078818759334" lon="11.233134576846997"><ele>257.5</ele><time>2026-04-10T13:33:42Z</time></trkpt><trkpt lat="43.987946699818714" lon="11.23305670995356"><ele>257.75</ele><time>2026-04-10T13:33:43Z</time></trkpt><trkpt lat="43.98781195922911" lon="11.233011479956835"><ele>258.0</ele><time>2026-04-10T13:33:44Z</time></trkpt><trkpt lat="43.987658442352675" lon="11.232968296383481"><ele>258.6666666666667</ele><time>2026-04-10T13:33:45Z</time></trkpt><trkpt lat="43.98749452684358" lon="11.23293014279719"><ele>259.33333333333337</ele><time>2026-04-10T13:33:46Z</time></trkpt><trkpt lat="43.987315653170256" lon="11.232913138597183"><ele>260.0</ele><time>2026-04-10T13:33:47Z</time></trkpt><trkpt lat="43.9871333689108" lon="11.232911933869913"><ele>260.0</ele><time>2026-04-10T13:33:48Z</time></trkpt><trkpt lat="43.986925274592195" lon="11.232916449487389"><ele>260.0</ele><time>2026-04-10T13:33:49Z</time></trkpt><trkpt lat="43.986730056608366" lon="11.232897034530582"><ele>260.0</ele><time>2026-04-10T13:33:50Z</time></trkpt><trkpt lat="43.98655405348117" lon="11.232902289194426"><ele>261.0</ele><time>2026-04-10T13:33:51Z</time></trkpt><trkpt lat="43.98638542426549" lon="11.232940861421998"><ele>262.0</ele><time>2026-04-10T13:33:52Z</time></trkpt><trkpt lat="43.986217730302485" lon="11.232997964863232"><ele>263.0</ele><time>2026-04-10T13:33:53Z</time></trkpt><trkpt lat="43.98608044012785" lon="11.233058443698912"><ele>263.0</ele><time>2026-04-10T13:33:54Z</time></trkpt><trkpt lat="43.98596289527931" lon="11.233125065652004"><ele>263.0</ele><time>2026-04-10T13:33:55Z</time></trkpt><trkpt lat="43.985856923219984" lon="11.233182320561543"><ele>263.0</ele><time>2026-04-10T13:33:56Z</time></trkpt><trkpt lat="43.98577622647735" lon="11.233228693716349"><ele>263.0</ele><time>2026-04-10T13:33:57Z</time></trkpt><trkpt lat="43.985702651614695" lon="11.233263864261957"><ele>263.0</ele><time>2026-04-10T13:33:58Z</time></trkpt><trkpt lat="43.985641830809406" lon="11.233291010902082"><ele>262.6666666666667</ele><time>2026-04-10T13:33:59Z</time></trkpt><trkpt lat="43.98557199538732" lon="11.23331975267384"><ele>262.33333333333337</ele><time>2026-04-10T13:34:01Z</time></trkpt><trkpt lat="43.98549389588212" lon="11.233317669121154"><ele>262.0</ele><time>2026-04-10T13:34:04Z</time></trkpt><trkpt lat="43.985416684500954" lon="11.233318094315415"><ele>261.6666666666667</ele><time>2026-04-10T13:34:06Z</time></trkpt><trkpt lat="43.98534091720057" lon="11.233315937580677"><ele>261.3333333333333</ele><time>2026-04-10T13:34:08Z</time></trkpt><trkpt lat="43.98525094990641" lon="11.233306304697207"><ele>261.0</ele><time>2026-04-10T13:34:10Z</time></trkpt><trkpt lat="43.98515559423394" lon="11.233291175995529"><ele>261.0</ele><time>2026-04-10T13:34:12Z</time></trkpt><trkpt lat="43.985041086956635" lon="11.233266198307811"><ele>261.0</ele><time>2026-04-10T13:34:14Z</time></trkpt><trkpt lat="43.984930920075634" lon="11.233240991889895"><ele>261.0</ele><time>2026-04-10T13:34:16Z</time></trkpt><trkpt lat="43.984807662932575" lon="11.233215467810078"><ele>261.0</ele><time>2026-04-10T13:34:18Z</time></trkpt><trkpt lat="43.98474034269686" lon="11.233203399542768"><ele>261.0</ele><time>2026-04-10T13:34:19Z</time></trkpt><trkpt lat="43.98467226684706" lon="11.233194762349944"><ele>264.0</ele><time>2026-04-10T13:34:20Z</time></trkpt><trkpt lat="43.98455683689561" lon="11.233186763736635"><ele>267.0</ele><time>2026-04-10T13:34:22Z</time></trkpt><trkpt lat="43.984433528703484" lon="11.233194719286448"><ele>270.0</ele><time>2026-04-10T13:34:24Z</time></trkpt><trkpt lat="43.984322175124355" lon="11.233166259550591"><ele>273.0</ele><time>2026-04-10T13:34:26Z</time></trkpt><trkpt lat="43.984221575780474" lon="11.23309388876286"><ele>272.5</ele><time>2026-04-10T13:34:28Z</time></trkpt><trkpt lat="43.98415508554987" lon="11.233063964025579"><ele>272.0</ele><time>2026-04-10T13:34:29Z</time></trkpt><trkpt lat="43.98408947284335" lon="11.233034434231513"><ele>271.5</ele><time>2026-04-10T13:34:30Z</time></trkpt><trkpt lat="43.98402918916842" lon="11.233006986188649"><ele>271.0</ele><time>2026-04-10T13:34:31Z</time></trkpt><trkpt lat="43.98392222961299" lon="11.232957395857136"><ele>270.5</ele><time>2026-04-10T13:34:33Z</time></trkpt><trkpt lat="43.98384901289441" lon="11.232923449926858"><ele>270.0</ele><time>2026-04-10T13:34:34Z</time></trkpt><trkpt lat="43.983746176541516" lon="11.232880720723772"><ele>270.0</ele><time>2026-04-10T13:34:35Z</time></trkpt><trkpt lat="43.9836328985813" lon="11.232844594949178"><ele>270.0</ele><time>2026-04-10T13:34:36Z</time></trkpt><trkpt lat="43.98350922016415" lon="11.232834314795504"><ele>270.0</ele><time>2026-04-10T13:34:37Z</time></trkpt><trkpt lat="43.983397686160124" lon="11.232800864612527"><ele>270.0</ele><time>2026-04-10T13:34:38Z</time></trkpt><trkpt lat="43.98329684318722" lon="11.232773484974937"><ele>269.5</ele><time>2026-04-10T13:34:39Z</time></trkpt><trkpt lat="43.98318285354055" lon="11.23274338082697"><ele>269.0</ele><time>2026-04-10T13:34:40Z</time></trkpt><trkpt lat="43.983042799796664" lon="11.232718420120875"><ele>268.5</ele><time>2026-04-10T13:34:41Z</time></trkpt><trkpt lat="43.98289492058485" lon="11.23269224509523"><ele>268.0</ele><time>2026-04-10T13:34:42Z</time></trkpt><trkpt lat="43.982734853583736" lon="11.232663351172198"><ele>268.0</ele><time>2026-04-10T13:34:43Z</time></trkpt><trkpt lat="43.982575269737715" lon="11.232634335952811"><ele>268.0</ele><time>2026-04-10T13:34:44Z</time></trkpt><trkpt lat="43.98241005597135" lon="11.232605207878084"><ele>268.0</ele><time>2026-04-10T13:34:45Z</time></trkpt><trkpt lat="43.98224907946158" lon="11.23256931425368"><ele>267.75</ele><time>2026-04-10T13:34:46Z</time></trkpt><trkpt lat="43.98210040707032" lon="11.232537981618808"><ele>267.5</ele><time>2026-04-10T13:34:47Z</time></trkpt><trkpt lat="43.981965607301944" lon="11.232514073795302"><ele>267.25</ele><time>2026-04-10T13:34:48Z</time></trkpt><trkpt lat="43.98184103251887" lon="11.232495268597381"><ele>267.0</ele><time>2026-04-10T13:34:49Z</time></trkpt><trkpt lat="43.98172134673084" lon="11.232473718587736"><ele>267.0</ele><time>2026-04-10T13:34:50Z</time></trkpt><trkpt lat="43.98161618017256" lon="11.232460879153301"><ele>267.0</ele><time>2026-04-10T13:34:51Z</time></trkpt><trkpt lat="43.98151273011723" lon="11.232450746407485"><ele>267.0</ele><time>2026-04-10T13:34:52Z</time></trkpt><trkpt lat="43.9814111665517" lon="11.232438625615194"><ele>267.0</ele><time>2026-04-10T13:34:53Z</time></trkpt><trkpt lat="43.981330262622826" lon="11.232456491163356"><ele>267.0</ele><time>2026-04-10T13:34:54Z</time></trkpt><trkpt lat="43.98125217525932" lon="11.23234309625156"><ele>267.5</ele><time>2026-04-10T13:34:55Z</time></trkpt><trkpt lat="43.98119414943029" lon="11.232245003830549"><ele>268.0</ele><time>2026-04-10T13:34:56Z</time></trkpt><trkpt lat="43.98113850555916" lon="11.232101327159802"><ele>268.5</ele><time>2026-04-10T13:34:57Z</time></trkpt><trkpt lat="43.981094942205964" lon="11.23190527218075"><ele>269.0</ele><time>2026-04-10T13:34:58Z</time></trkpt><trkpt lat="43.98104308698528" lon="11.231684909607601"><ele>270.33333333333337</ele><time>2026-04-10T13:34:59Z</time></trkpt><trkpt lat="43.980986039310544" lon="11.23144343587155"><ele>271.6666666666667</ele><time>2026-04-10T13:35:00Z</time></trkpt><trkpt lat="43.98093435728211" lon="11.231193513225687"><ele>273.0</ele><time>2026-04-10T13:35:01Z</time></trkpt><trkpt lat="43.98088336389444" lon="11.230937038432444"><ele>271.0</ele><time>2026-04-10T13:35:02Z</time></trkpt><trkpt lat="43.98083293773214" lon="11.230661306469019"><ele>269.0</ele><time>2026-04-10T13:35:03Z</time></trkpt><trkpt lat="43.98078079693423" lon="11.230396342492506"><ele>267.0</ele><time>2026-04-10T13:35:04Z</time></trkpt><trkpt lat="43.98073285483846" lon="11.23015597308379"><ele>267.0</ele><time>2026-04-10T13:35:05Z</time></trkpt><trkpt lat="43.9806903064051" lon="11.229929548018434"><ele>267.0</ele><time>2026-04-10T13:35:06Z</time></trkpt><trkpt lat="43.98066101107165" lon="11.229684078487985"><ele>267.0</ele><time>2026-04-10T13:35:07Z</time></trkpt><trkpt lat="43.98065136240012" lon="11.229411647072338"><ele>267.0</ele><time>2026-04-10T13:35:08Z</time></trkpt><trkpt lat="43.980657712551704" lon="11.229127551490894"><ele>267.0</ele><time>2026-04-10T13:35:09Z</time></trkpt><trkpt lat="43.98066889228117" lon="11.228840599564606"><ele>267.0</ele><time>2026-04-10T13:35:10Z</time></trkpt><trkpt lat="43.98069940184644" lon="11.228548338723154"><ele>266.3333333333333</ele><time>2026-04-10T13:35:11Z</time></trkpt><trkpt lat="43.98074229234666" lon="11.228261607656071"><ele>265.66666666666663</ele><time>2026-04-10T13:35:12Z</time></trkpt><trkpt lat="43.98078743578921" lon="11.227987686078185"><ele>265.0</ele><time>2026-04-10T13:35:13Z</time></trkpt><trkpt lat="43.98082337796553" lon="11.227726942009243"><ele>264.0</ele><time>2026-04-10T13:35:14Z</time></trkpt><trkpt lat="43.980831365078295" lon="11.227472219582658"><ele>263.0</ele><time>2026-04-10T13:35:15Z</time></trkpt><trkpt lat="43.98080672774772" lon="11.227232538264916"><ele>262.0</ele><time>2026-04-10T13:35:16Z</time></trkpt><trkpt lat="43.9807601069675" lon="11.227017194337886"><ele>261.5</ele><time>2026-04-10T13:35:17Z</time></trkpt><trkpt lat="43.980715696060805" lon="11.2268384422631"><ele>261.0</ele><time>2026-04-10T13:35:18Z</time></trkpt><trkpt lat="43.98068288583445" lon="11.226664639891041"><ele>260.5</ele><time>2026-04-10T13:35:19Z</time></trkpt><trkpt lat="43.980679031659264" lon="11.226498538405426"><ele>260.0</ele><time>2026-04-10T13:35:20Z</time></trkpt><trkpt lat="43.98069960630817" lon="11.226347109031549"><ele>260.0</ele><time>2026-04-10T13:35:21Z</time></trkpt><trkpt lat="43.980692289155314" lon="11.226204757272237"><ele>260.0</ele><time>2026-04-10T13:35:22Z</time></trkpt><trkpt lat="43.980639579040826" lon="11.226087084668846"><ele>260.0</ele><time>2026-04-10T13:35:23Z</time></trkpt><trkpt lat="43.980553835643676" lon="11.22599761017856"><ele>260.0</ele><time>2026-04-10T13:35:24Z</time></trkpt><trkpt lat="43.98043516836883" lon="11.225957110017298"><ele>260.0</ele><time>2026-04-10T13:35:25Z</time></trkpt><trkpt lat="43.98028309478909" lon="11.225952512269611"><ele>260.0</ele><time>2026-04-10T13:35:26Z</time></trkpt><trkpt lat="43.980120942225" lon="11.225939576519046"><ele>260.0</ele><time>2026-04-10T13:35:27Z</time></trkpt><trkpt lat="43.979944116871444" lon="11.225872558267216"><ele>260.0</ele><time>2026-04-10T13:35:28Z</time></trkpt><trkpt lat="43.97976391798883" lon="11.22571886988529"><ele>260.0</ele><time>2026-04-10T13:35:29Z</time></trkpt><trkpt lat="43.97955087068027" lon="11.22560701705495"><ele>260.0</ele><time>2026-04-10T13:35:30Z</time></trkpt><trkpt lat="43.97933972747659" lon="11.225488742503266"><ele>261.0</ele><time>2026-04-10T13:35:31Z</time></trkpt><trkpt lat="43.97910798980913" lon="11.225363510954763"><ele>262.0</ele><time>2026-04-10T13:35:32Z</time></trkpt><trkpt lat="43.97886975189698" lon="11.225234463551939"><ele>262.0</ele><time>2026-04-10T13:35:33Z</time></trkpt><trkpt lat="43.97862476615908" lon="11.225112062918312"><ele>262.0</ele><time>2026-04-10T13:35:34Z</time></trkpt><trkpt lat="43.978373050129754" lon="11.22500223184583"><ele>264.0</ele><time>2026-04-10T13:35:35Z</time></trkpt><trkpt lat="43.978110238207876" lon="11.22488744640849"><ele>266.0</ele><time>2026-04-10T13:35:36Z</time></trkpt><trkpt lat="43.977840619532394" lon="11.224766088658898"><ele>269.0</ele><time>2026-04-10T13:35:37Z</time></trkpt><trkpt lat="43.977565994049975" lon="11.224645602854162"><ele>272.0</ele><time>2026-04-10T13:35:38Z</time></trkpt><trkpt lat="43.97729431153663" lon="11.224531618043786"><ele>275.5</ele><time>2026-04-10T13:35:39Z</time></trkpt><trkpt lat="43.977044684341344" lon="11.224432135136293"><ele>279.0</ele><time>2026-04-10T13:35:40Z</time></trkpt><trkpt lat="43.97681728534642" lon="11.224334967673435"><ele>279.0</ele><time>2026-04-10T13:35:41Z</time></trkpt><trkpt lat="43.976620622040805" lon="11.224249875389763"><ele>279.0</ele><time>2026-04-10T13:35:42Z</time></trkpt><trkpt lat="43.97646192474514" lon="11.224177950959"><ele>279.0</ele><time>2026-04-10T13:35:43Z</time></trkpt><trkpt lat="43.97633143108719" lon="11.224080233075748"><ele>283.0</ele><time>2026-04-10T13:35:44Z</time></trkpt><trkpt lat="43.976206497148254" lon="11.223977654144104"><ele>287.0</ele><time>2026-04-10T13:35:45Z</time></trkpt><trkpt lat="43.9761249721694" lon="11.223786136966293"><ele>291.0</ele><time>2026-04-10T13:35:46Z</time></trkpt><trkpt lat="43.97608824955501" lon="11.223585713617151"><ele>291.0</ele><time>2026-04-10T13:35:47Z</time></trkpt><trkpt lat="43.97609186396098" lon="11.22336461736176"><ele>291.0</ele><time>2026-04-10T13:35:48Z</time></trkpt><trkpt lat="43.976092187295606" lon="11.223094404404055"><ele>291.0</ele><time>2026-04-10T13:35:49Z</time></trkpt><trkpt lat="43.97612878293673" lon="11.222789561468119"><ele>293.5</ele><time>2026-04-10T13:35:50Z</time></trkpt><trkpt lat="43.97614994367765" lon="11.222476187832036"><ele>296.0</ele><time>2026-04-10T13:35:51Z</time></trkpt><trkpt lat="43.97616131216223" lon="11.222145884765968"><ele>296.0</ele><time>2026-04-10T13:35:52Z</time></trkpt><trkpt lat="43.97618062002176" lon="11.221799614174264"><ele>296.0</ele><time>2026-04-10T13:35:53Z</time></trkpt><trkpt lat="43.97620092209678" lon="11.221472345691243"><ele>296.33333333333337</ele><time>2026-04-10T13:35:54Z</time></trkpt><trkpt lat="43.97620617926002" lon="11.221181679657468"><ele>296.6666666666667</ele><time>2026-04-10T13:35:55Z</time></trkpt><trkpt lat="43.97618250996408" lon="11.220913905264258"><ele>297.0</ele><time>2026-04-10T13:35:56Z</time></trkpt><trkpt lat="43.976099938549396" lon="11.220639894448244"><ele>300.5</ele><time>2026-04-10T13:35:57Z</time></trkpt><trkpt lat="43.97596393163528" lon="11.220372471944897"><ele>304.0</ele><time>2026-04-10T13:35:58Z</time></trkpt><trkpt lat="43.97580088071336" lon="11.22008550318182"><ele>301.0</ele><time>2026-04-10T13:35:59Z</time></trkpt><trkpt lat="43.975651373912896" lon="11.21979827046792"><ele>298.0</ele><time>2026-04-10T13:36:00Z</time></trkpt><trkpt lat="43.97550996863067" lon="11.21952336398869"><ele>298.0</ele><time>2026-04-10T13:36:01Z</time></trkpt><trkpt lat="43.97538741838402" lon="11.21927408916536"><ele>298.0</ele><time>2026-04-10T13:36:02Z</time></trkpt><trkpt lat="43.97527003947393" lon="11.219049523589023"><ele>298.0</ele><time>2026-04-10T13:36:03Z</time></trkpt><trkpt lat="43.9751366546827" lon="11.218842763466945"><ele>299.0</ele><time>2026-04-10T13:36:04Z</time></trkpt><trkpt lat="43.97497418392875" lon="11.218669111138349"><ele>300.0</ele><time>2026-04-10T13:36:05Z</time></trkpt><trkpt lat="43.97479389031905" lon="11.218524492263528"><ele>301.0</ele><time>2026-04-10T13:36:06Z</time></trkpt><trkpt lat="43.974619475059356" lon="11.218413006078169"><ele>301.0</ele><time>2026-04-10T13:36:07Z</time></trkpt><trkpt lat="43.974449292647726" lon="11.218320049802525"><ele>301.0</ele><time>2026-04-10T13:36:08Z</time></trkpt><trkpt lat="43.97428348041123" lon="11.21824320878943"><ele>301.0</ele><time>2026-04-10T13:36:09Z</time></trkpt><trkpt lat="43.97412104639186" lon="11.218134345597974"><ele>303.66666666666663</ele><time>2026-04-10T13:36:10Z</time></trkpt><trkpt lat="43.97396709974568" lon="11.217953012158372"><ele>306.3333333333333</ele><time>2026-04-10T13:36:11Z</time></trkpt><trkpt lat="43.97380711743318" lon="11.217781532466335"><ele>309.0</ele><time>2026-04-10T13:36:12Z</time></trkpt><trkpt lat="43.973647089482654" lon="11.21763201933811"><ele>309.0</ele><time>2026-04-10T13:36:13Z</time></trkpt><trkpt lat="43.97347336676699" lon="11.217454736633023"><ele>309.0</ele><time>2026-04-10T13:36:14Z</time></trkpt><trkpt lat="43.97329281965001" lon="11.217258847633213"><ele>309.0</ele><time>2026-04-10T13:36:15Z</time></trkpt><trkpt lat="43.97308612623064" lon="11.217061813201969"><ele>308.3333333333333</ele><time>2026-04-10T13:36:16Z</time></trkpt><trkpt lat="43.972897822100364" lon="11.216889165141396"><ele>307.66666666666663</ele><time>2026-04-10T13:36:17Z</time></trkpt><trkpt lat="43.97273838473451" lon="11.216747019870121"><ele>307.0</ele><time>2026-04-10T13:36:18Z</time></trkpt><trkpt lat="43.97252591574968" lon="11.216753325040475"><ele>307.0</ele><time>2026-04-10T13:36:19Z</time></trkpt><trkpt lat="43.972332496807795" lon="11.216735487427297"><ele>307.0</ele><time>2026-04-10T13:36:20Z</time></trkpt><trkpt lat="43.97208687035338" lon="11.216779827855717"><ele>307.0</ele><time>2026-04-10T13:36:21Z</time></trkpt><trkpt lat="43.971847433799574" lon="11.216842948550845"><ele>310.0</ele><time>2026-04-10T13:36:22Z</time></trkpt><trkpt lat="43.97163984059163" lon="11.216893273511133"><ele>313.0</ele><time>2026-04-10T13:36:23Z</time></trkpt><trkpt lat="43.97145057915056" lon="11.216925501371824"><ele>316.0</ele><time>2026-04-10T13:36:24Z</time></trkpt><trkpt lat="43.97125831811913" lon="11.216906896843012"><ele>316.0</ele><time>2026-04-10T13:36:25Z</time></trkpt><trkpt lat="43.9710835424002" lon="11.21684468537993"><ele>316.0</ele><time>2026-04-10T13:36:26Z</time></trkpt><trkpt lat="43.970920109419424" lon="11.216835403499063"><ele>316.0</ele><time>2026-04-10T13:36:27Z</time></trkpt><trkpt lat="43.970768075885054" lon="11.216891661090779"><ele>318.0</ele><time>2026-04-10T13:36:28Z</time></trkpt><trkpt lat="43.97061548673669" lon="11.217018095484544"><ele>320.0</ele><time>2026-04-10T13:36:29Z</time></trkpt><trkpt lat="43.97044202711392" lon="11.217172913758068"><ele>322.0</ele><time>2026-04-10T13:36:30Z</time></trkpt><trkpt lat="43.97024655567336" lon="11.217276108251223"><ele>322.0</ele><time>2026-04-10T13:36:31Z</time></trkpt><trkpt lat="43.97003080730386" lon="11.217297417390087"><ele>322.0</ele><time>2026-04-10T13:36:32Z</time></trkpt><trkpt lat="43.96979295649585" lon="11.217227804321066"><ele>322.5</ele><time>2026-04-10T13:36:33Z</time></trkpt><trkpt lat="43.96953479383319" lon="11.217150057060849"><ele>323.0</ele><time>2026-04-10T13:36:34Z</time></trkpt><trkpt lat="43.969283730358406" lon="11.217069460065684"><ele>319.5</ele><time>2026-04-10T13:36:35Z</time></trkpt><trkpt lat="43.96904816832736" lon="11.217026724805493"><ele>316.0</ele><time>2026-04-10T13:36:36Z</time></trkpt><trkpt lat="43.96881573556703" lon="11.217013094806974"><ele>316.0</ele><time>2026-04-10T13:36:37Z</time></trkpt><trkpt lat="43.968586351018246" lon="11.217024976859985"><ele>316.0</ele><time>2026-04-10T13:36:38Z</time></trkpt><trkpt lat="43.96837037015089" lon="11.217074203800042"><ele>316.0</ele><time>2026-04-10T13:36:39Z</time></trkpt><trkpt lat="43.9681703879805" lon="11.217123867464155"><ele>312.66666666666663</ele><time>2026-04-10T13:36:40Z</time></trkpt><trkpt lat="43.967991944866576" lon="11.217120304159417"><ele>309.3333333333333</ele><time>2026-04-10T13:36:41Z</time></trkpt><trkpt lat="43.967813613670366" lon="11.217046572422497"><ele>306.0</ele><time>2026-04-10T13:36:42Z</time></trkpt><trkpt lat="43.96762388945887" lon="11.216909604787388"><ele>305.3333333333333</ele><time>2026-04-10T13:36:43Z</time></trkpt><trkpt lat="43.96742913850779" lon="11.216715785368242"><ele>304.66666666666663</ele><time>2026-04-10T13:36:44Z</time></trkpt><trkpt lat="43.96725343816148" lon="11.216574283123753"><ele>304.0</ele><time>2026-04-10T13:36:45Z</time></trkpt><trkpt lat="43.96702901924383" lon="11.216481664704174"><ele>304.0</ele><time>2026-04-10T13:36:46Z</time></trkpt><trkpt lat="43.96679859473657" lon="11.21647019317382"><ele>304.0</ele><time>2026-04-10T13:36:47Z</time></trkpt><trkpt lat="43.96656376219685" lon="11.21652607200987"><ele>299.5</ele><time>2026-04-10T13:36:48Z</time></trkpt><trkpt lat="43.966333218400706" lon="11.216645647623324"><ele>295.0</ele><time>2026-04-10T13:36:49Z</time></trkpt><trkpt lat="43.966119427838805" lon="11.216707543679687"><ele>295.0</ele><time>2026-04-10T13:36:50Z</time></trkpt><trkpt lat="43.96587901148986" lon="11.21675052214354"><ele>295.0</ele><time>2026-04-10T13:36:51Z</time></trkpt><trkpt lat="43.965637083974435" lon="11.216743269685209"><ele>295.0</ele><time>2026-04-10T13:36:52Z</time></trkpt><trkpt lat="43.96538092299855" lon="11.216703895948356"><ele>295.0</ele><time>2026-04-10T13:36:53Z</time></trkpt><trkpt lat="43.965102042475074" lon="11.216616231498884"><ele>297.0</ele><time>2026-04-10T13:36:54Z</time></trkpt><trkpt lat="43.9648385757369" lon="11.216535674402326"><ele>299.0</ele><time>2026-04-10T13:36:55Z</time></trkpt><trkpt lat="43.96461127056343" lon="11.216463222028315"><ele>300.33333333333337</ele><time>2026-04-10T13:36:56Z</time></trkpt><trkpt lat="43.96438863924322" lon="11.216426343602151"><ele>301.6666666666667</ele><time>2026-04-10T13:36:57Z</time></trkpt><trkpt lat="43.96416711936816" lon="11.216453754086892"><ele>303.0</ele><time>2026-04-10T13:36:58Z</time></trkpt><trkpt lat="43.96395848114538" lon="11.21652549550107"><ele>303.0</ele><time>2026-04-10T13:36:59Z</time></trkpt><trkpt lat="43.96376647781697" lon="11.216597694147772"><ele>303.0</ele><time>2026-04-10T13:37:00Z</time></trkpt><trkpt lat="43.96358156455075" lon="11.21665025481361"><ele>303.0</ele><time>2026-04-10T13:37:01Z</time></trkpt><trkpt lat="43.963392748743765" lon="11.216654435436745"><ele>302.6666666666667</ele><time>2026-04-10T13:37:02Z</time></trkpt><trkpt lat="43.963191815868285" lon="11.216587531634534"><ele>302.33333333333337</ele><time>2026-04-10T13:37:03Z</time></trkpt><trkpt lat="43.9629923756635" lon="11.216455352844028"><ele>302.0</ele><time>2026-04-10T13:37:04Z</time></trkpt><trkpt lat="43.96279182371465" lon="11.21628778425976"><ele>304.0</ele><time>2026-04-10T13:37:05Z</time></trkpt><trkpt lat="43.96258730549319" lon="11.2161157076987"><ele>306.0</ele><time>2026-04-10T13:37:06Z</time></trkpt><trkpt lat="43.96237642718919" lon="11.215947335150007"><ele>306.0</ele><time>2026-04-10T13:37:07Z</time></trkpt><trkpt lat="43.96214493910491" lon="11.215802504971728"><ele>306.0</ele><time>2026-04-10T13:37:08Z</time></trkpt><trkpt lat="43.96190268247092" lon="11.215618062899278"><ele>306.0</ele><time>2026-04-10T13:37:09Z</time></trkpt><trkpt lat="43.961672471845844" lon="11.215450379232651"><ele>306.0</ele><time>2026-04-10T13:37:10Z</time></trkpt><trkpt lat="43.96144840033867" lon="11.21530075138507"><ele>306.0</ele><time>2026-04-10T13:37:11Z</time></trkpt><trkpt lat="43.96122194066616" lon="11.215139980825741"><ele>306.0</ele><time>2026-04-10T13:37:12Z</time></trkpt><trkpt lat="43.96100601850907" lon="11.21497941627663"><ele>306.5</ele><time>2026-04-10T13:37:13Z</time></trkpt><trkpt lat="43.96079954255649" lon="11.214817789488846"><ele>307.0</ele><time>2026-04-10T13:37:14Z</time></trkpt><trkpt lat="43.96060722110622" lon="11.214667263446154"><ele>307.0</ele><time>2026-04-10T13:37:15Z</time></trkpt><trkpt lat="43.96043071545501" lon="11.214534603792545"><ele>307.0</ele><time>2026-04-10T13:37:16Z</time></trkpt><trkpt lat="43.960247256341155" lon="11.214437912609442"><ele>307.0</ele><time>2026-04-10T13:37:17Z</time></trkpt><trkpt lat="43.96004014556177" lon="11.21439094380263"><ele>309.0</ele><time>2026-04-10T13:37:18Z</time></trkpt><trkpt lat="43.959817739296184" lon="11.214402668826354"><ele>311.0</ele><time>2026-04-10T13:37:19Z</time></trkpt><trkpt lat="43.959581154161356" lon="11.214463926028513"><ele>311.0</ele><time>2026-04-10T13:37:20Z</time></trkpt><trkpt lat="43.959350128750756" lon="11.214479815735666"><ele>311.0</ele><time>2026-04-10T13:37:21Z</time></trkpt><trkpt lat="43.95913963946989" lon="11.214450828580409"><ele>311.0</ele><time>2026-04-10T13:37:22Z</time></trkpt><trkpt lat="43.9589363533919" lon="11.214376976445894"><ele>311.0</ele><time>2026-04-10T13:37:23Z</time></trkpt><trkpt lat="43.95875725903904" lon="11.214203648621105"><ele>311.0</ele><time>2026-04-10T13:37:24Z</time></trkpt><trkpt lat="43.95856858651891" lon="11.214046132628333"><ele>311.0</ele><time>2026-04-10T13:37:25Z</time></trkpt><trkpt lat="43.958403196024655" lon="11.213892910513186"><ele>314.0</ele><time>2026-04-10T13:37:26Z</time></trkpt><trkpt lat="43.95824832342776" lon="11.213748655383226"><ele>317.0</ele><time>2026-04-10T13:37:27Z</time></trkpt><trkpt lat="43.958114727947255" lon="11.213626554616678"><ele>320.0</ele><time>2026-04-10T13:37:28Z</time></trkpt><trkpt lat="43.95797333451161" lon="11.213509061075582"><ele>320.0</ele><time>2026-04-10T13:37:29Z</time></trkpt><trkpt lat="43.95782848756405" lon="11.21341361988496"><ele>320.0</ele><time>2026-04-10T13:37:30Z</time></trkpt><trkpt lat="43.95769691795253" lon="11.213346928522522"><ele>320.0</ele><time>2026-04-10T13:37:31Z</time></trkpt><trkpt lat="43.95753467257685" lon="11.213286450190468"><ele>324.6666666666667</ele><time>2026-04-10T13:37:32Z</time></trkpt><trkpt lat="43.95734571232072" lon="11.213285623377276"><ele>329.3333333333333</ele><time>2026-04-10T13:37:33Z</time></trkpt><trkpt lat="43.95713046906393" lon="11.213318576571622"><ele>334.0</ele><time>2026-04-10T13:37:34Z</time></trkpt><trkpt lat="43.956900235162095" lon="11.213342147899537"><ele>340.0</ele><time>2026-04-10T13:37:35Z</time></trkpt><trkpt lat="43.95666692653317" lon="11.213353020836013"><ele>346.0</ele><time>2026-04-10T13:37:36Z</time></trkpt><trkpt lat="43.95642965054453" lon="11.213322090810077"><ele>346.0</ele><time>2026-04-10T13:37:37Z</time></trkpt><trkpt lat="43.956203343021926" lon="11.21327954616871"><ele>346.0</ele><time>2026-04-10T13:37:38Z</time></trkpt><trkpt lat="43.955956298419046" lon="11.213242888965373"><ele>350.5</ele><time>2026-04-10T13:37:39Z</time></trkpt><trkpt lat="43.95571383247867" lon="11.213219164399929"><ele>355.0</ele><time>2026-04-10T13:37:40Z</time></trkpt><trkpt lat="43.9554741593002" lon="11.21323229609071"><ele>355.0</ele><time>2026-04-10T13:37:41Z</time></trkpt><trkpt lat="43.95522928383469" lon="11.213304590853317"><ele>355.0</ele><time>2026-04-10T13:37:42Z</time></trkpt><trkpt lat="43.955004497426884" lon="11.213401686025701"><ele>359.3333333333333</ele><time>2026-04-10T13:37:43Z</time></trkpt><trkpt lat="43.954809011924176" lon="11.213500566159874"><ele>363.6666666666667</ele><time>2026-04-10T13:37:44Z</time></trkpt><trkpt lat="43.954614914891934" lon="11.213567620984838"><ele>368.0</ele><time>2026-04-10T13:37:45Z</time></trkpt><trkpt lat="43.95443868207497" lon="11.21360606585603"><ele>368.0</ele><time>2026-04-10T13:37:46Z</time></trkpt><trkpt lat="43.95426521237907" lon="11.213538221468673"><ele>368.0</ele><time>2026-04-10T13:37:47Z</time></trkpt><trkpt lat="43.95409092937812" lon="11.213447869028798"><ele>368.0</ele><time>2026-04-10T13:37:48Z</time></trkpt><trkpt lat="43.9539164752208" lon="11.21332564759361"><ele>371.33333333333337</ele><time>2026-04-10T13:37:49Z</time></trkpt><trkpt lat="43.953751361686734" lon="11.213283036714023"><ele>374.6666666666667</ele><time>2026-04-10T13:37:50Z</time></trkpt><trkpt lat="43.95357785359149" lon="11.213276651950931"><ele>378.0</ele><time>2026-04-10T13:37:51Z</time></trkpt><trkpt lat="43.953382092264214" lon="11.213344174394857"><ele>377.3333333333333</ele><time>2026-04-10T13:37:52Z</time></trkpt><trkpt lat="43.95317454456314" lon="11.21335502256139"><ele>376.66666666666663</ele><time>2026-04-10T13:37:53Z</time></trkpt><trkpt lat="43.95296667630606" lon="11.213314748715817"><ele>376.0</ele><time>2026-04-10T13:37:54Z</time></trkpt><trkpt lat="43.95277967828659" lon="11.213253313909219"><ele>379.66666666666663</ele><time>2026-04-10T13:37:55Z</time></trkpt><trkpt lat="43.952600920250134" lon="11.213128388478621"><ele>383.3333333333333</ele><time>2026-04-10T13:37:56Z</time></trkpt><trkpt lat="43.95239962244913" lon="11.21299766444171"><ele>387.0</ele><time>2026-04-10T13:37:57Z</time></trkpt><trkpt lat="43.95221135735832" lon="11.212826032134599"><ele>387.0</ele><time>2026-04-10T13:37:58Z</time></trkpt><trkpt lat="43.952033979688366" lon="11.212666849307258"><ele>387.0</ele><time>2026-04-10T13:37:59Z</time></trkpt><trkpt lat="43.95186557615272" lon="11.212481595118101"><ele>387.0</ele><time>2026-04-10T13:38:00Z</time></trkpt><trkpt lat="43.95170021460739" lon="11.212250130680724"><ele>393.5</ele><time>2026-04-10T13:38:01Z</time></trkpt><trkpt lat="43.95151644452059" lon="11.212014801812167"><ele>400.0</ele><time>2026-04-10T13:38:02Z</time></trkpt><trkpt lat="43.95135552716248" lon="11.211746163360697"><ele>400.0</ele><time>2026-04-10T13:38:03Z</time></trkpt><trkpt lat="43.95119208319071" lon="11.211506607600542"><ele>400.0</ele><time>2026-04-10T13:38:04Z</time></trkpt><trkpt lat="43.95104993264292" lon="11.21128433569245"><ele>399.33333333333337</ele><time>2026-04-10T13:38:05Z</time></trkpt><trkpt lat="43.950951861467246" lon="11.211052381773461"><ele>398.66666666666663</ele><time>2026-04-10T13:38:06Z</time></trkpt><trkpt lat="43.950896214281805" lon="11.21077348363561"><ele>398.0</ele><time>2026-04-10T13:38:07.001Z</time></trkpt><trkpt lat="43.95084231027652" lon="11.210459921283976"><ele>398.0</ele><time>2026-04-10T13:38:08Z</time></trkpt><trkpt lat="43.950801947857855" lon="11.210168218921686"><ele>398.0</ele><time>2026-04-10T13:38:09Z</time></trkpt><trkpt lat="43.95075935094071" lon="11.209904692450321"><ele>398.0</ele><time>2026-04-10T13:38:10Z</time></trkpt><trkpt lat="43.950720139628025" lon="11.209663829561794"><ele>399.5</ele><time>2026-04-10T13:38:11Z</time></trkpt><trkpt lat="43.95067684088708" lon="11.209481227062895"><ele>401.0</ele><time>2026-04-10T13:38:12Z</time></trkpt><trkpt lat="43.95060375474017" lon="11.209327491528384"><ele>402.5</ele><time>2026-04-10T13:38:13Z</time></trkpt><trkpt lat="43.95057236970666" lon="11.209133813464016"><ele>404.0</ele><time>2026-04-10T13:38:14Z</time></trkpt><trkpt lat="43.950352527374044" lon="11.209204096103242"><ele>404.0</ele><time>2026-04-10T13:38:15Z</time></trkpt><trkpt lat="43.950226955519675" lon="11.209263195691179"><ele>404.0</ele><time>2026-04-10T13:38:16Z</time></trkpt><trkpt lat="43.950112393361586" lon="11.20937853360148"><ele>404.0</ele><time>2026-04-10T13:38:17Z</time></trkpt><trkpt lat="43.95003132268541" lon="11.209575571895835"><ele>404.0</ele><time>2026-04-10T13:38:18Z</time></trkpt><trkpt lat="43.94997689403832" lon="11.209814348289374"><ele>403.66666666666663</ele><time>2026-04-10T13:38:19Z</time></trkpt><trkpt lat="43.94990413893437" lon="11.210076087019415"><ele>403.33333333333337</ele><time>2026-04-10T13:38:20Z</time></trkpt><trkpt lat="43.949807133156966" lon="11.210304870050253"><ele>403.0</ele><time>2026-04-10T13:38:21Z</time></trkpt><trkpt lat="43.949697084732406" lon="11.210493196402677"><ele>403.0</ele><time>2026-04-10T13:38:22Z</time></trkpt><trkpt lat="43.94955877220798" lon="11.210638747626401"><ele>403.0</ele><time>2026-04-10T13:38:23Z</time></trkpt><trkpt lat="43.949380690849715" lon="11.210764187810497"><ele>403.0</ele><time>2026-04-10T13:38:24Z</time></trkpt><trkpt lat="43.94919580207857" lon="11.210817146893639"><ele>402.6666666666667</ele><time>2026-04-10T13:38:25Z</time></trkpt><trkpt lat="43.948993353150165" lon="11.210789658118928"><ele>402.33333333333337</ele><time>2026-04-10T13:38:26Z</time></trkpt><trkpt lat="43.94879271957625" lon="11.21069467300727"><ele>402.0</ele><time>2026-04-10T13:38:27Z</time></trkpt><trkpt lat="43.94862383354112" lon="11.210525897898087"><ele>406.33333333333337</ele><time>2026-04-10T13:38:28Z</time></trkpt><trkpt lat="43.948482251893125" lon="11.210414867485943"><ele>410.6666666666667</ele><time>2026-04-10T13:38:29Z</time></trkpt><trkpt lat="43.9483166721724" lon="11.21039089677346"><ele>415.0</ele><time>2026-04-10T13:38:30Z</time></trkpt><trkpt lat="43.94816072118581" lon="11.210456700540972"><ele>415.0</ele><time>2026-04-10T13:38:31Z</time></trkpt><trkpt lat="43.94802226300864" lon="11.210575038259263"><ele>415.0</ele><time>2026-04-10T13:38:32Z</time></trkpt><trkpt lat="43.94789891847748" lon="11.210744846833185"><ele>415.0</ele><time>2026-04-10T13:38:33Z</time></trkpt><trkpt lat="43.947777836212055" lon="11.210882251756637"><ele>410.33333333333337</ele><time>2026-04-10T13:38:34Z</time></trkpt><trkpt lat="43.94767850708543" lon="11.211006608296554"><ele>405.66666666666663</ele><time>2026-04-10T13:38:35Z</time></trkpt><trkpt lat="43.9475918643459" lon="11.211129123299875"><ele>401.0</ele><time>2026-04-10T13:38:36Z</time></trkpt><trkpt lat="43.947779778686495" lon="11.211762777147499"><ele>400.66666666666663</ele><time>2026-04-10T13:38:37Z</time></trkpt><trkpt lat="43.94765413663642" lon="11.21195021221632"><ele>400.33333333333337</ele><time>2026-04-10T13:38:38Z</time></trkpt><trkpt lat="43.94748761397117" lon="11.212085248172208"><ele>400.0</ele><time>2026-04-10T13:38:39Z</time></trkpt><trkpt lat="43.94731509945285" lon="11.21220212862677"><ele>403.0</ele><time>2026-04-10T13:38:40Z</time></trkpt><trkpt lat="43.94717993407671" lon="11.212368818525261"><ele>406.0</ele><time>2026-04-10T13:38:41Z</time></trkpt><trkpt lat="43.94708517724249" lon="11.21261288996128"><ele>409.0</ele><time>2026-04-10T13:38:42Z</time></trkpt><trkpt lat="43.94701625417508" lon="11.2128420193665"><ele>409.0</ele><time>2026-04-10T13:38:43Z</time></trkpt><trkpt lat="43.94691686244628" lon="11.213006453546027"><ele>409.0</ele><time>2026-04-10T13:38:44Z</time></trkpt><trkpt lat="43.94675070384272" lon="11.213123119203804"><ele>409.0</ele><time>2026-04-10T13:38:45Z</time></trkpt><trkpt lat="43.946535883759296" lon="11.213169103559157"><ele>413.5</ele><time>2026-04-10T13:38:46Z</time></trkpt><trkpt lat="43.94629380340656" lon="11.213188527284274"><ele>418.0</ele><time>2026-04-10T13:38:47Z</time></trkpt><trkpt lat="43.94605229424635" lon="11.213228305547737"><ele>423.5</ele><time>2026-04-10T13:38:48Z</time></trkpt><trkpt lat="43.94583343399675" lon="11.213353354575712"><ele>429.0</ele><time>2026-04-10T13:38:49Z</time></trkpt><trkpt lat="43.94563275529566" lon="11.213516057045545"><ele>429.0</ele><time>2026-04-10T13:38:50Z</time></trkpt><trkpt lat="43.9454608144678" lon="11.213654236761098"><ele>429.0</ele><time>2026-04-10T13:38:51Z</time></trkpt><trkpt lat="43.94530830386362" lon="11.213728146214708"><ele>429.0</ele><time>2026-04-10T13:38:52Z</time></trkpt><trkpt lat="43.945157257569576" lon="11.213750753795278"><ele>428.6</ele><time>2026-04-10T13:38:53Z</time></trkpt><trkpt lat="43.94502737220195" lon="11.213744123231805"><ele>428.2</ele><time>2026-04-10T13:38:54Z</time></trkpt><trkpt lat="43.944931517952526" lon="11.21371921296584"><ele>427.80000000000007</ele><time>2026-04-10T13:38:55Z</time></trkpt><trkpt lat="43.944836398523904" lon="11.213736997838089"><ele>427.40000000000003</ele><time>2026-04-10T13:38:56Z</time></trkpt><trkpt lat="43.94474196621536" lon="11.213838663059978"><ele>427.0</ele><time>2026-04-10T13:38:57Z</time></trkpt><trkpt lat="43.94463881362833" lon="11.214005905351593"><ele>427.0</ele><time>2026-04-10T13:38:58Z</time></trkpt><trkpt lat="43.94452841460416" lon="11.21421011111943"><ele>427.0</ele><time>2026-04-10T13:38:59Z</time></trkpt><trkpt lat="43.94440944321562" lon="11.214420501593395"><ele>427.0</ele><time>2026-04-10T13:39:00Z</time></trkpt><trkpt lat="43.9442846717393" lon="11.214635260687565"><ele>425.0</ele><time>2026-04-10T13:39:01Z</time></trkpt><trkpt lat="43.94416397286365" lon="11.214838079506384"><ele>423.0</ele><time>2026-04-10T13:39:02Z</time></trkpt><trkpt lat="43.944048081081924" lon="11.215026731182595"><ele>421.0</ele><time>2026-04-10T13:39:03Z</time></trkpt><trkpt lat="43.943927574901764" lon="11.215232812308908"><ele>421.0</ele><time>2026-04-10T13:39:04Z</time></trkpt><trkpt lat="43.943809220296465" lon="11.215431889247757"><ele>421.0</ele><time>2026-04-10T13:39:05Z</time></trkpt><trkpt lat="43.94368901999848" lon="11.215614364098743"><ele>421.0</ele><time>2026-04-10T13:39:06Z</time></trkpt><trkpt lat="43.9435460655348" lon="11.215769648452714"><ele>418.6666666666667</ele><time>2026-04-10T13:39:07Z</time></trkpt><trkpt lat="43.94336637609803" lon="11.215867629598701"><ele>416.33333333333337</ele><time>2026-04-10T13:39:08Z</time></trkpt><trkpt lat="43.943162912469965" lon="11.215910613058576"><ele>414.0</ele><time>2026-04-10T13:39:09Z</time></trkpt><trkpt lat="43.942945251693665" lon="11.21597724834844"><ele>414.0</ele><time>2026-04-10T13:39:10Z</time></trkpt><trkpt lat="43.94273306914525" lon="11.216093900602603"><ele>414.0</ele><time>2026-04-10T13:39:11Z</time></trkpt><trkpt lat="43.942541903749294" lon="11.216209394379414"><ele>414.0</ele><time>2026-04-10T13:39:12Z</time></trkpt><trkpt lat="43.94237732588311" lon="11.21631361379431"><ele>412.66666666666663</ele><time>2026-04-10T13:39:13Z</time></trkpt><trkpt lat="43.94223300837968" lon="11.216456035386603"><ele>411.3333333333333</ele><time>2026-04-10T13:39:14Z</time></trkpt><trkpt lat="43.942134036586246" lon="11.216625261312078"><ele>410.0</ele><time>2026-04-10T13:39:15Z</time></trkpt><trkpt lat="43.94206256757693" lon="11.216787369112733"><ele>410.0</ele><time>2026-04-10T13:39:16Z</time></trkpt><trkpt lat="43.942007846697784" lon="11.216933731576683"><ele>410.0</ele><time>2026-04-10T13:39:17Z</time></trkpt><trkpt lat="43.94193853064177" lon="11.217055150596876"><ele>410.0</ele><time>2026-04-10T13:39:18Z</time></trkpt><trkpt lat="43.94183692782896" lon="11.217094406154313"><ele>410.0</ele><time>2026-04-10T13:39:19Z</time></trkpt><trkpt lat="43.941726620164026" lon="11.217125993947322"><ele>410.0</ele><time>2026-04-10T13:39:20Z</time></trkpt><trkpt lat="43.9416198090527" lon="11.217052200986869"><ele>407.0</ele><time>2026-04-10T13:39:21Z</time></trkpt><trkpt lat="43.94152008284894" lon="11.216952825008963"><ele>404.0</ele><time>2026-04-10T13:39:22Z</time></trkpt><trkpt lat="43.94144260938137" lon="11.21682006476686"><ele>401.0</ele><time>2026-04-10T13:39:23Z</time></trkpt><trkpt lat="43.94146511187771" lon="11.216621880015097"><ele>398.0</ele><time>2026-04-10T13:39:24Z</time></trkpt><trkpt lat="43.94148752850246" lon="11.216404915635717"><ele>399.3333333333333</ele><time>2026-04-10T13:39:25Z</time></trkpt><trkpt lat="43.94153765807101" lon="11.216163457678682"><ele>400.66666666666663</ele><time>2026-04-10T13:39:26Z</time></trkpt><trkpt lat="43.94164494646353" lon="11.215990902686547"><ele>402.0</ele><time>2026-04-10T13:39:27Z</time></trkpt><trkpt lat="43.94177982588" lon="11.215887020135447"><ele>402.0</ele><time>2026-04-10T13:39:28Z</time></trkpt><trkpt lat="43.941899254894864" lon="11.215835789069766"><ele>402.0</ele><time>2026-04-10T13:39:29Z</time></trkpt><trkpt lat="43.94199646115806" lon="11.215793636912252"><ele>402.0</ele><time>2026-04-10T13:39:30Z</time></trkpt><trkpt lat="43.94204295687868" lon="11.21569887264498"><ele>402.0</ele><time>2026-04-10T13:39:31Z</time></trkpt><trkpt lat="43.94207466636946" lon="11.215543339718069"><ele>402.0</ele><time>2026-04-10T13:39:32Z</time></trkpt><trkpt lat="43.942072658708135" lon="11.215371814667535"><ele>400.25</ele><time>2026-04-10T13:39:33Z</time></trkpt><trkpt lat="43.942000646832454" lon="11.215249341823785"><ele>398.5</ele><time>2026-04-10T13:39:34Z</time></trkpt><trkpt lat="43.94188705563729" lon="11.21515491224767"><ele>396.75</ele><time>2026-04-10T13:39:35Z</time></trkpt><trkpt lat="43.941754048761375" lon="11.215122447446234"><ele>395.0</ele><time>2026-04-10T13:39:36Z</time></trkpt><trkpt lat="43.94160177577986" lon="11.215179245437588"><ele>391.0</ele><time>2026-04-10T13:39:37Z</time></trkpt><trkpt lat="43.94141896276201" lon="11.215292626416336"><ele>387.0</ele><time>2026-04-10T13:39:38Z</time></trkpt><trkpt lat="43.94123134872553" lon="11.215414649789869"><ele>383.0</ele><time>2026-04-10T13:39:39Z</time></trkpt><trkpt lat="43.94102276405177" lon="11.215524262332957"><ele>381.5</ele><time>2026-04-10T13:39:40Z</time></trkpt><trkpt lat="43.94079928898856" lon="11.215619832597062"><ele>380.0</ele><time>2026-04-10T13:39:41Z</time></trkpt><trkpt lat="43.94058205573817" lon="11.215707076898543"><ele>380.0</ele><time>2026-04-10T13:39:42Z</time></trkpt><trkpt lat="43.94037798775908" lon="11.215788679911784"><ele>380.0</ele><time>2026-04-10T13:39:43Z</time></trkpt><trkpt lat="43.940178971890674" lon="11.215849505838449"><ele>380.0</ele><time>2026-04-10T13:39:44Z</time></trkpt><trkpt lat="43.93997727094639" lon="11.215894194541532"><ele>377.33333333333337</ele><time>2026-04-10T13:39:45Z</time></trkpt><trkpt lat="43.939778287105135" lon="11.215941690872095"><ele>374.6666666666667</ele><time>2026-04-10T13:39:46Z</time></trkpt><trkpt lat="43.93959459696985" lon="11.215984473875434"><ele>372.0</ele><time>2026-04-10T13:39:47Z</time></trkpt><trkpt lat="43.939411717028385" lon="11.215944571371548"><ele>372.0</ele><time>2026-04-10T13:39:48Z</time></trkpt><trkpt lat="43.93923657824094" lon="11.21585786918154"><ele>372.0</ele><time>2026-04-10T13:39:49Z</time></trkpt><trkpt lat="43.9390603456592" lon="11.215706918431962"><ele>372.0</ele><time>2026-04-10T13:39:50Z</time></trkpt><trkpt lat="43.9388552547997" lon="11.215592716398652"><ele>366.0</ele><time>2026-04-10T13:39:51Z</time></trkpt><trkpt lat="43.93864179837484" lon="11.215491040622252"><ele>360.0</ele><time>2026-04-10T13:39:52Z</time></trkpt><trkpt lat="43.93844328936941" lon="11.215407493998061"><ele>354.0</ele><time>2026-04-10T13:39:53Z</time></trkpt><trkpt lat="43.9382520925856" lon="11.215332446322922"><ele>352.6666666666667</ele><time>2026-04-10T13:39:54Z</time></trkpt><trkpt lat="43.93807627344197" lon="11.215254378567314"><ele>351.33333333333337</ele><time>2026-04-10T13:39:55Z</time></trkpt><trkpt lat="43.93790642831909" lon="11.215184473189183"><ele>350.0</ele><time>2026-04-10T13:39:56Z</time></trkpt><trkpt lat="43.937748843461705" lon="11.2151224784651"><ele>350.0</ele><time>2026-04-10T13:39:57Z</time></trkpt><trkpt lat="43.93759684276296" lon="11.215096449655993"><ele>350.0</ele><time>2026-04-10T13:39:58Z</time></trkpt><trkpt lat="43.937451454836456" lon="11.215094844251192"><ele>350.0</ele><time>2026-04-10T13:39:59Z</time></trkpt><trkpt lat="43.937311556047646" lon="11.215069340073535"><ele>350.0</ele><time>2026-04-10T13:40:00Z</time></trkpt><trkpt lat="43.93718328800222" lon="11.215004793977156"><ele>350.5</ele><time>2026-04-10T13:40:01Z</time></trkpt><trkpt lat="43.93708671847081" lon="11.214880215532366"><ele>351.0</ele><time>2026-04-10T13:40:02Z</time></trkpt><trkpt lat="43.93699165568998" lon="11.21475754838676"><ele>351.5</ele><time>2026-04-10T13:40:03Z</time></trkpt><trkpt lat="43.93692006676403" lon="11.214614111977491"><ele>352.0</ele><time>2026-04-10T13:40:04Z</time></trkpt><trkpt lat="43.93682769434873" lon="11.214518466330079"><ele>348.0</ele><time>2026-04-10T13:40:05Z</time></trkpt><trkpt lat="43.93670426270747" lon="11.214462376470022"><ele>344.0</ele><time>2026-04-10T13:40:06.001Z</time></trkpt><trkpt lat="43.93655169701528" lon="11.214458260703132"><ele>340.0</ele><time>2026-04-10T13:40:07.001Z</time></trkpt><trkpt lat="43.93639790344489" lon="11.21448731782482"><ele>336.0</ele><time>2026-04-10T13:40:08.001Z</time></trkpt><trkpt lat="43.936247120539015" lon="11.214503186983816"><ele>336.0</ele><time>2026-04-10T13:40:09.001Z</time></trkpt><trkpt lat="43.9360961550059" lon="11.214502739359748"><ele>336.0</ele><time>2026-04-10T13:40:10.001Z</time></trkpt><trkpt lat="43.935950424223485" lon="11.214459501337206"><ele>336.0</ele><time>2026-04-10T13:40:11.001Z</time></trkpt><trkpt lat="43.93580220987662" lon="11.214387014561332"><ele>335.6666666666667</ele><time>2026-04-10T13:40:12.001Z</time></trkpt><trkpt lat="43.93567757452231" lon="11.214250822841704"><ele>335.33333333333337</ele><time>2026-04-10T13:40:13.001Z</time></trkpt><trkpt lat="43.93554502477881" lon="11.214129676302107"><ele>335.0</ele><time>2026-04-10T13:40:14.001Z</time></trkpt><trkpt lat="43.93540226870876" lon="11.21401756274859"><ele>328.0</ele><time>2026-04-10T13:40:15.001Z</time></trkpt><trkpt lat="43.93524793603468" lon="11.213916494774416"><ele>321.0</ele><time>2026-04-10T13:40:16.001Z</time></trkpt><trkpt lat="43.93507026401522" lon="11.213833792258626"><ele>314.0</ele><time>2026-04-10T13:40:17.001Z</time></trkpt><trkpt lat="43.93487605205966" lon="11.213756731475018"><ele>314.0</ele><time>2026-04-10T13:40:18.001Z</time></trkpt><trkpt lat="43.934676313768115" lon="11.213677540933087"><ele>314.0</ele><time>2026-04-10T13:40:19.001Z</time></trkpt><trkpt lat="43.93446918725561" lon="11.213584867440833"><ele>314.0</ele><time>2026-04-10T13:40:20.001Z</time></trkpt><trkpt lat="43.93426021335022" lon="11.213489993954145"><ele>315.33333333333337</ele><time>2026-04-10T13:40:21.001Z</time></trkpt><trkpt lat="43.934056073083994" lon="11.213398933162226"><ele>316.6666666666667</ele><time>2026-04-10T13:40:22.001Z</time></trkpt><trkpt lat="43.93386397811886" lon="11.213281839409026"><ele>318.0</ele><time>2026-04-10T13:40:23.001Z</time></trkpt><trkpt lat="43.93367070555022" lon="11.213180024828013"><ele>312.3333333333333</ele><time>2026-04-10T13:40:24.001Z</time></trkpt><trkpt lat="43.933519928298814" lon="11.21301736222405"><ele>306.66666666666663</ele><time>2026-04-10T13:40:25.001Z</time></trkpt><trkpt lat="43.9333739698412" lon="11.212846040048285"><ele>301.0</ele><time>2026-04-10T13:40:26.001Z</time></trkpt><trkpt lat="43.93324881506518" lon="11.212705192037113"><ele>301.0</ele><time>2026-04-10T13:40:27.001Z</time></trkpt><trkpt lat="43.933134417286915" lon="11.212581991907598"><ele>301.0</ele><time>2026-04-10T13:40:28.001Z</time></trkpt><trkpt lat="43.93302153165282" lon="11.212471634290615"><ele>301.0</ele><time>2026-04-10T13:40:29.001Z</time></trkpt><trkpt lat="43.93288787807556" lon="11.212432677033176"><ele>301.0</ele><time>2026-04-10T13:40:30.001Z</time></trkpt><trkpt lat="43.93274609084304" lon="11.212456632450731"><ele>301.0</ele><time>2026-04-10T13:40:31.001Z</time></trkpt><trkpt lat="43.932604488400024" lon="11.212511898728016"><ele>301.0</ele><time>2026-04-10T13:40:32.001Z</time></trkpt><trkpt lat="43.932470518067724" lon="11.212488417421085"><ele>301.0</ele><time>2026-04-10T13:40:33.001Z</time></trkpt><trkpt lat="43.93236926407597" lon="11.212351346570898"><ele>301.0</ele><time>2026-04-10T13:40:34Z</time></trkpt><trkpt lat="43.93228584458086" lon="11.21215171603507"><ele>293.3333333333333</ele><time>2026-04-10T13:40:35Z</time></trkpt><trkpt lat="43.932156958475495" lon="11.211930608199763"><ele>285.6666666666667</ele><time>2026-04-10T13:40:36Z</time></trkpt><trkpt lat="43.93202686331938" lon="11.211761133102337"><ele>278.0</ele><time>2026-04-10T13:40:37Z</time></trkpt><trkpt lat="43.93183814007048" lon="11.211625195068418"><ele>273.33333333333337</ele><time>2026-04-10T13:40:38Z</time></trkpt><trkpt lat="43.93166853968535" lon="11.211483433389002"><ele>268.6666666666667</ele><time>2026-04-10T13:40:39Z</time></trkpt><trkpt lat="43.93151600516666" lon="11.211352987626515"><ele>264.0</ele><time>2026-04-10T13:40:40Z</time></trkpt><trkpt lat="43.93136120570495" lon="11.211230165883999"><ele>264.0</ele><time>2026-04-10T13:40:41Z</time></trkpt><trkpt lat="43.93120910602291" lon="11.211107144427624"><ele>264.0</ele><time>2026-04-10T13:40:42Z</time></trkpt><trkpt lat="43.93105030383592" lon="11.210998388154868"><ele>264.0</ele><time>2026-04-10T13:40:43Z</time></trkpt><trkpt lat="43.93087795534201" lon="11.210884790981774"><ele>259.3333333333333</ele><time>2026-04-10T13:40:44Z</time></trkpt><trkpt lat="43.93069044021673" lon="11.210774732923234"><ele>254.66666666666666</ele><time>2026-04-10T13:40:45Z</time></trkpt><trkpt lat="43.930511561548386" lon="11.210666905931184"><ele>250.0</ele><time>2026-04-10T13:40:46Z</time></trkpt><trkpt lat="43.930343960771644" lon="11.210571872101715"><ele>250.0</ele><time>2026-04-10T13:40:47Z</time></trkpt><trkpt lat="43.93018272328466" lon="11.21047075937062"><ele>250.0</ele><time>2026-04-10T13:40:48Z</time></trkpt><trkpt lat="43.93002976418184" lon="11.210339895468447"><ele>250.0</ele><time>2026-04-10T13:40:49Z</time></trkpt><trkpt lat="43.92990188917984" lon="11.210173956454081"><ele>254.0</ele><time>2026-04-10T13:40:50Z</time></trkpt><trkpt lat="43.92979189079441" lon="11.210003393301529"><ele>258.0</ele><time>2026-04-10T13:40:51Z</time></trkpt><trkpt lat="43.929684613902104" lon="11.209829341981308"><ele>262.0</ele><time>2026-04-10T13:40:52Z</time></trkpt><trkpt lat="43.92956784447283" lon="11.209663053395856"><ele>259.0</ele><time>2026-04-10T13:40:53Z</time></trkpt><trkpt lat="43.92943992301678" lon="11.209510736139654"><ele>256.0</ele><time>2026-04-10T13:40:54Z</time></trkpt><trkpt lat="43.92929402811482" lon="11.209361042703343"><ele>253.0</ele><time>2026-04-10T13:40:55Z</time></trkpt><trkpt lat="43.9291240136945" lon="11.209200977566917"><ele>253.0</ele><time>2026-04-10T13:40:56Z</time></trkpt><trkpt lat="43.92895120434719" lon="11.209025908064131"><ele>253.0</ele><time>2026-04-10T13:40:57Z</time></trkpt><trkpt lat="43.92876575472755" lon="11.208845503647266"><ele>253.0</ele><time>2026-04-10T13:40:58Z</time></trkpt><trkpt lat="43.92856449702505" lon="11.20868911395815"><ele>246.0</ele><time>2026-04-10T13:40:59Z</time></trkpt><trkpt lat="43.92833948561413" lon="11.20854768400725"><ele>239.0</ele><time>2026-04-10T13:41:00Z</time></trkpt><trkpt lat="43.92811250847748" lon="11.208410416132809"><ele>239.0</ele><time>2026-04-10T13:41:01Z</time></trkpt><trkpt lat="43.92789409568359" lon="11.208279819084693"><ele>239.0</ele><time>2026-04-10T13:41:02Z</time></trkpt><trkpt lat="43.92768463496525" lon="11.208172155207546"><ele>229.5</ele><time>2026-04-10T13:41:03Z</time></trkpt><trkpt lat="43.9274663283925" lon="11.208094532543086"><ele>220.0</ele><time>2026-04-10T13:41:04Z</time></trkpt><trkpt lat="43.92723458029876" lon="11.208058326219948"><ele>220.0</ele><time>2026-04-10T13:41:05Z</time></trkpt><trkpt lat="43.92699069079145" lon="11.208036868453677"><ele>220.0</ele><time>2026-04-10T13:41:06Z</time></trkpt><trkpt lat="43.92672971888663" lon="11.208021805469293"><ele>218.5</ele><time>2026-04-10T13:41:07Z</time></trkpt><trkpt lat="43.926478269946145" lon="11.207994006320115"><ele>217.0</ele><time>2026-04-10T13:41:08Z</time></trkpt><trkpt lat="43.92621748537233" lon="11.20792628775159"><ele>217.0</ele><time>2026-04-10T13:41:09Z</time></trkpt><trkpt lat="43.92598636063364" lon="11.207846651251494"><ele>217.0</ele><time>2026-04-10T13:41:10Z</time></trkpt><trkpt lat="43.925763308444644" lon="11.207797400847326"><ele>216.33333333333331</ele><time>2026-04-10T13:41:11Z</time></trkpt><trkpt lat="43.92554406028769" lon="11.20778330687464"><ele>215.66666666666669</ele><time>2026-04-10T13:41:12Z</time></trkpt><trkpt lat="43.925350720496226" lon="11.207787497454694"><ele>215.0</ele><time>2026-04-10T13:41:13Z</time></trkpt><trkpt lat="43.92515496414985" lon="11.2078218042907"><ele>218.0</ele><time>2026-04-10T13:41:14Z</time></trkpt><trkpt lat="43.92497102438211" lon="11.20789945138263"><ele>221.0</ele><time>2026-04-10T13:41:15Z</time></trkpt><trkpt lat="43.92480927443475" lon="11.208030619097261"><ele>224.0</ele><time>2026-04-10T13:41:16Z</time></trkpt><trkpt lat="43.924673724703986" lon="11.208207925853722"><ele>224.0</ele><time>2026-04-10T13:41:17Z</time></trkpt><trkpt lat="43.9245292837854" lon="11.208356879408186"><ele>224.0</ele><time>2026-04-10T13:41:18Z</time></trkpt><trkpt lat="43.92435184150517" lon="11.20844164460164"><ele>224.0</ele><time>2026-04-10T13:41:19Z</time></trkpt><trkpt lat="43.92414440764405" lon="11.208455955105531"><ele>216.66666666666669</ele><time>2026-04-10T13:41:20Z</time></trkpt><trkpt lat="43.92393112050108" lon="11.208417701117142"><ele>209.33333333333331</ele><time>2026-04-10T13:41:21Z</time></trkpt><trkpt lat="43.92372664051287" lon="11.208290809042195"><ele>202.0</ele><time>2026-04-10T13:41:22Z</time></trkpt><trkpt lat="43.92355344266275" lon="11.208108083982498"><ele>201.0</ele><time>2026-04-10T13:41:23Z</time></trkpt><trkpt lat="43.92340117545873" lon="11.207863308957496"><ele>200.0</ele><time>2026-04-10T13:41:24Z</time></trkpt><trkpt lat="43.92324804281562" lon="11.207600095643205"><ele>200.0</ele><time>2026-04-10T13:41:25Z</time></trkpt><trkpt lat="43.92308652598711" lon="11.207338790434855"><ele>200.0</ele><time>2026-04-10T13:41:26Z</time></trkpt><trkpt lat="43.92292223539744" lon="11.207080038840312"><ele>196.0</ele><time>2026-04-10T13:41:27Z</time></trkpt><trkpt lat="43.92276729738582" lon="11.206823470670422"><ele>192.0</ele><time>2026-04-10T13:41:28Z</time></trkpt><trkpt lat="43.9226528309593" lon="11.20652856792027"><ele>198.0</ele><time>2026-04-10T13:41:29Z</time></trkpt><trkpt lat="43.92253510606027" lon="11.206215229615164"><ele>204.0</ele><time>2026-04-10T13:41:30Z</time></trkpt><trkpt lat="43.92240843735165" lon="11.20588091315694"><ele>201.0</ele><time>2026-04-10T13:41:31Z</time></trkpt><trkpt lat="43.92230678940044" lon="11.205573814608906"><ele>198.0</ele><time>2026-04-10T13:41:32Z</time></trkpt><trkpt lat="43.922200058071894" lon="11.205263086679963"><ele>198.0</ele><time>2026-04-10T13:41:33Z</time></trkpt><trkpt lat="43.92210027843524" lon="11.204966555345646"><ele>198.0</ele><time>2026-04-10T13:41:34Z</time></trkpt><trkpt lat="43.92200311337955" lon="11.20468833197669"><ele>197.33333333333331</ele><time>2026-04-10T13:41:35Z</time></trkpt><trkpt lat="43.92188935333422" lon="11.204422050444219"><ele>196.66666666666666</ele><time>2026-04-10T13:41:36Z</time></trkpt><trkpt lat="43.921750900007005" lon="11.204189758951527"><ele>196.0</ele><time>2026-04-10T13:41:37Z</time></trkpt><trkpt lat="43.9215892779764" lon="11.203982379878559"><ele>196.0</ele><time>2026-04-10T13:41:38Z</time></trkpt><trkpt lat="43.92139593201246" lon="11.203821751100202"><ele>196.0</ele><time>2026-04-10T13:41:39Z</time></trkpt><trkpt lat="43.92118619514817" lon="11.203684671725638"><ele>196.0</ele><time>2026-04-10T13:41:40Z</time></trkpt><trkpt lat="43.920980646405454" lon="11.20355132008971"><ele>196.0</ele><time>2026-04-10T13:41:41Z</time></trkpt><trkpt lat="43.92079918693926" lon="11.203394403336572"><ele>196.0</ele><time>2026-04-10T13:41:42Z</time></trkpt><trkpt lat="43.920637608907924" lon="11.20318065194571"><ele>197.0</ele><time>2026-04-10T13:41:43Z</time></trkpt><trkpt lat="43.92049989717389" lon="11.202930160953748"><ele>198.0</ele><time>2026-04-10T13:41:44Z</time></trkpt><trkpt lat="43.920400079417355" lon="11.202683516576686"><ele>199.0</ele><time>2026-04-10T13:41:45Z</time></trkpt><trkpt lat="43.92031195029588" lon="11.202440808796313"><ele>198.66666666666666</ele><time>2026-04-10T13:41:46Z</time></trkpt><trkpt lat="43.92021908293678" lon="11.202182578783425"><ele>198.33333333333331</ele><time>2026-04-10T13:41:47Z</time></trkpt><trkpt lat="43.92010296123094" lon="11.201906280718331"><ele>198.0</ele><time>2026-04-10T13:41:48Z</time></trkpt><trkpt lat="43.91996724265423" lon="11.201676822075816"><ele>191.5</ele><time>2026-04-10T13:41:49Z</time></trkpt><trkpt lat="43.919822582547205" lon="11.201441429278947"><ele>185.0</ele><time>2026-04-10T13:41:50Z</time></trkpt><trkpt lat="43.919667495112414" lon="11.201204619108395"><ele>185.0</ele><time>2026-04-10T13:41:51Z</time></trkpt><trkpt lat="43.919523308042386" lon="11.200977483163092"><ele>185.0</ele><time>2026-04-10T13:41:52Z</time></trkpt><trkpt lat="43.91938353136595" lon="11.200769829746175"><ele>185.0</ele><time>2026-04-10T13:41:53Z</time></trkpt><trkpt lat="43.919238401398175" lon="11.20057330286189"><ele>184.33333333333331</ele><time>2026-04-10T13:41:54Z</time></trkpt><trkpt lat="43.91908978686573" lon="11.200384291517874"><ele>183.66666666666666</ele><time>2026-04-10T13:41:55Z</time></trkpt><trkpt lat="43.9189427898125" lon="11.20018832644621"><ele>183.0</ele><time>2026-04-10T13:41:56Z</time></trkpt><trkpt lat="43.918802923218664" lon="11.199952285339565"><ele>178.0</ele><time>2026-04-10T13:41:57Z</time></trkpt><trkpt lat="43.918676270854604" lon="11.19968110406417"><ele>173.0</ele><time>2026-04-10T13:41:58Z</time></trkpt><trkpt lat="43.91855453706725" lon="11.19942337311935"><ele>173.0</ele><time>2026-04-10T13:41:59Z</time></trkpt><trkpt lat="43.91841976502212" lon="11.19919394563973"><ele>173.0</ele><time>2026-04-10T13:42:00Z</time></trkpt><trkpt lat="43.91826550158148" lon="11.198997044834003"><ele>173.0</ele><time>2026-04-10T13:42:01Z</time></trkpt><trkpt lat="43.91806774231671" lon="11.198826301734233"><ele>172.0</ele><time>2026-04-10T13:42:02Z</time></trkpt><trkpt lat="43.917844681784295" lon="11.198679140713683"><ele>171.0</ele><time>2026-04-10T13:42:03Z</time></trkpt><trkpt lat="43.917614780857654" lon="11.198520888200813"><ele>172.5</ele><time>2026-04-10T13:42:04Z</time></trkpt><trkpt lat="43.91738343592823" lon="11.198349234638247"><ele>174.0</ele><time>2026-04-10T13:42:05Z</time></trkpt><trkpt lat="43.91714965387884" lon="11.198181733039233"><ele>173.5</ele><time>2026-04-10T13:42:06Z</time></trkpt><trkpt lat="43.91690716156921" lon="11.198018587133145"><ele>173.0</ele><time>2026-04-10T13:42:07Z</time></trkpt><trkpt lat="43.91665671422048" lon="11.197863617801534"><ele>170.0</ele><time>2026-04-10T13:42:08Z</time></trkpt><trkpt lat="43.916410862759676" lon="11.197713322349014"><ele>167.0</ele><time>2026-04-10T13:42:09Z</time></trkpt><trkpt lat="43.91616904707158" lon="11.197573004481988"><ele>167.0</ele><time>2026-04-10T13:42:10Z</time></trkpt><trkpt lat="43.91592844498003" lon="11.197431989944613"><ele>167.0</ele><time>2026-04-10T13:42:11Z</time></trkpt><trkpt lat="43.91568471981139" lon="11.19728306852296"><ele>164.0</ele><time>2026-04-10T13:42:12.001Z</time></trkpt><trkpt lat="43.91544954653672" lon="11.19712466772029"><ele>161.0</ele><time>2026-04-10T13:42:13.001Z</time></trkpt><trkpt lat="43.91521341273615" lon="11.196968070681622"><ele>161.5</ele><time>2026-04-10T13:42:14.001Z</time></trkpt><trkpt lat="43.914977133093736" lon="11.196813636699629"><ele>162.0</ele><time>2026-04-10T13:42:15.001Z</time></trkpt><trkpt lat="43.91474457895126" lon="11.196654816697999"><ele>159.5</ele><time>2026-04-10T13:42:16.001Z</time></trkpt><trkpt lat="43.91451214519529" lon="11.19649098781397"><ele>157.0</ele><time>2026-04-10T13:42:17.001Z</time></trkpt><trkpt lat="43.91429497229033" lon="11.196326534762228"><ele>158.0</ele><time>2026-04-10T13:42:18.001Z</time></trkpt><trkpt lat="43.91408791718081" lon="11.196114131014472"><ele>159.0</ele><time>2026-04-10T13:42:19.001Z</time></trkpt><trkpt lat="43.913914143508876" lon="11.195889014456185"><ele>157.0</ele><time>2026-04-10T13:42:20.001Z</time></trkpt><trkpt lat="43.91375463118974" lon="11.195652561303621"><ele>155.0</ele><time>2026-04-10T13:42:21.001Z</time></trkpt><trkpt lat="43.91358887352292" lon="11.195419259192994"><ele>156.5</ele><time>2026-04-10T13:42:22.001Z</time></trkpt><trkpt lat="43.913395292778794" lon="11.195215178998572"><ele>158.0</ele><time>2026-04-10T13:42:23.001Z</time></trkpt><trkpt lat="43.91318275545344" lon="11.195044523236827"><ele>158.0</ele><time>2026-04-10T13:42:24.001Z</time></trkpt><trkpt lat="43.91295970503777" lon="11.194890200651345"><ele>158.0</ele><time>2026-04-10T13:42:25.001Z</time></trkpt><trkpt lat="43.912738421798046" lon="11.194730849901847"><ele>155.0</ele><time>2026-04-10T13:42:26.001Z</time></trkpt><trkpt lat="43.912516510584965" lon="11.194568744946675"><ele>152.0</ele><time>2026-04-10T13:42:27.001Z</time></trkpt><trkpt lat="43.912302500550396" lon="11.194415479693784"><ele>152.0</ele><time>2026-04-10T13:42:28.001Z</time></trkpt><trkpt lat="43.912099078956004" lon="11.194269408813712"><ele>152.0</ele><time>2026-04-10T13:42:29.001Z</time></trkpt><trkpt lat="43.911901934298356" lon="11.194126940577846"><ele>151.33333333333331</ele><time>2026-04-10T13:42:30.001Z</time></trkpt><trkpt lat="43.91170673907162" lon="11.193991006421689"><ele>150.66666666666666</ele><time>2026-04-10T13:42:31.001Z</time></trkpt><trkpt lat="43.91151850177826" lon="11.193863609689854"><ele>150.0</ele><time>2026-04-10T13:42:32.001Z</time></trkpt><trkpt lat="43.91133470399315" lon="11.19373612732733"><ele>150.0</ele><time>2026-04-10T13:42:33.001Z</time></trkpt><trkpt lat="43.91116063523907" lon="11.193615938025806"><ele>150.0</ele><time>2026-04-10T13:42:34.001Z</time></trkpt><trkpt lat="43.910991276854496" lon="11.193499225915405"><ele>150.0</ele><time>2026-04-10T13:42:35.001Z</time></trkpt><trkpt lat="43.91081393372984" lon="11.193377499707696"><ele>149.0</ele><time>2026-04-10T13:42:36.001Z</time></trkpt><trkpt lat="43.9106265972581" lon="11.193248096683112"><ele>148.0</ele><time>2026-04-10T13:42:37.001Z</time></trkpt><trkpt lat="43.91042367184313" lon="11.193118306121397"><ele>147.0</ele><time>2026-04-10T13:42:38.001Z</time></trkpt><trkpt lat="43.91021774063196" lon="11.192980481265352"><ele>145.5</ele><time>2026-04-10T13:42:39.001Z</time></trkpt><trkpt lat="43.910014813817" lon="11.192839240741561"><ele>144.0</ele><time>2026-04-10T13:42:40.001Z</time></trkpt><trkpt lat="43.90980273311684" lon="11.192689879997074"><ele>144.0</ele><time>2026-04-10T13:42:41.001Z</time></trkpt><trkpt lat="43.90959264475817" lon="11.192541348777986"><ele>144.0</ele><time>2026-04-10T13:42:42.001Z</time></trkpt><trkpt lat="43.90938525370318" lon="11.192403571398659"><ele>143.0</ele><time>2026-04-10T13:42:43.001Z</time></trkpt><trkpt lat="43.90916087452664" lon="11.192295659572899"><ele>142.0</ele><time>2026-04-10T13:42:44.001Z</time></trkpt><trkpt lat="43.908925795067844" lon="11.192217509582749"><ele>142.0</ele><time>2026-04-10T13:42:45.001Z</time></trkpt><trkpt lat="43.90868593728167" lon="11.192169001001163"><ele>142.0</ele><time>2026-04-10T13:42:46.001Z</time></trkpt><trkpt lat="43.90844132610462" lon="11.192134960586637"><ele>141.5</ele><time>2026-04-10T13:42:47.001Z</time></trkpt><trkpt lat="43.9082178501916" lon="11.192064431443379"><ele>141.0</ele><time>2026-04-10T13:42:48.001Z</time></trkpt><trkpt lat="43.90799743181514" lon="11.19196190487128"><ele>141.0</ele><time>2026-04-10T13:42:49.001Z</time></trkpt><trkpt lat="43.90777910446792" lon="11.19181541898931"><ele>141.0</ele><time>2026-04-10T13:42:50.001Z</time></trkpt><trkpt lat="43.907567401114655" lon="11.191644813556676"><ele>139.0</ele><time>2026-04-10T13:42:51.001Z</time></trkpt><trkpt lat="43.90736561276454" lon="11.191465359471794"><ele>137.0</ele><time>2026-04-10T13:42:52.001Z</time></trkpt><trkpt lat="43.90717134208664" lon="11.19130528414813"><ele>137.0</ele><time>2026-04-10T13:42:53.001Z</time></trkpt><trkpt lat="43.90698413389546" lon="11.19115675844115"><ele>137.0</ele><time>2026-04-10T13:42:54.001Z</time></trkpt><trkpt lat="43.90679270301372" lon="11.191026426212934"><ele>137.0</ele><time>2026-04-10T13:42:55.001Z</time></trkpt><trkpt lat="43.90658078313108" lon="11.190920574415328"><ele>136.0</ele><time>2026-04-10T13:42:56.001Z</time></trkpt><trkpt lat="43.90636022264576" lon="11.190817173388321"><ele>135.0</ele><time>2026-04-10T13:42:57.001Z</time></trkpt><trkpt lat="43.90615369551194" lon="11.190635832057437"><ele>133.5</ele><time>2026-04-10T13:42:58Z</time></trkpt><trkpt lat="43.9059402801538" lon="11.190470617138201"><ele>132.0</ele><time>2026-04-10T13:42:59Z</time></trkpt><trkpt lat="43.90572667740018" lon="11.190287121760496"><ele>131.5</ele><time>2026-04-10T13:43:00Z</time></trkpt><trkpt lat="43.90552384237903" lon="11.190118983631672"><ele>131.0</ele><time>2026-04-10T13:43:01Z</time></trkpt><trkpt lat="43.90533352396076" lon="11.189959699475263"><ele>130.66666666666666</ele><time>2026-04-10T13:43:02Z</time></trkpt><trkpt lat="43.905147703021356" lon="11.189807743952045"><ele>130.33333333333334</ele><time>2026-04-10T13:43:03Z</time></trkpt><trkpt lat="43.90496906511179" lon="11.189659641677995"><ele>130.0</ele><time>2026-04-10T13:43:04Z</time></trkpt><trkpt lat="43.904802898185736" lon="11.189512075224012"><ele>129.33333333333334</ele><time>2026-04-10T13:43:05Z</time></trkpt><trkpt lat="43.90464082068573" lon="11.189378782469465"><ele>128.66666666666666</ele><time>2026-04-10T13:43:06Z</time></trkpt><trkpt lat="43.904459001601396" lon="11.189288060916276"><ele>128.0</ele><time>2026-04-10T13:43:07Z</time></trkpt><trkpt lat="43.904254488569926" lon="11.189245423943"><ele>128.0</ele><time>2026-04-10T13:43:08Z</time></trkpt><trkpt lat="43.904032743572685" lon="11.189225338815806"><ele>128.0</ele><time>2026-04-10T13:43:09Z</time></trkpt><trkpt lat="43.90379896902836" lon="11.18921324197397"><ele>128.0</ele><time>2026-04-10T13:43:10Z</time></trkpt><trkpt lat="43.90356160748423" lon="11.189195529915631"><ele>128.0</ele><time>2026-04-10T13:43:11Z</time></trkpt><trkpt lat="43.903328408491994" lon="11.189180910216976"><ele>126.5</ele><time>2026-04-10T13:43:12Z</time></trkpt><trkpt lat="43.903090105354" lon="11.189171184700463"><ele>125.0</ele><time>2026-04-10T13:43:13Z</time></trkpt><trkpt lat="43.90284492594199" lon="11.189139079912378"><ele>125.0</ele><time>2026-04-10T13:43:14Z</time></trkpt><trkpt lat="43.90258637827329" lon="11.189131671279556"><ele>125.0</ele><time>2026-04-10T13:43:15Z</time></trkpt><trkpt lat="43.902325318821234" lon="11.18915057059765"><ele>124.0</ele><time>2026-04-10T13:43:16Z</time></trkpt><trkpt lat="43.902079125362235" lon="11.189145454964219"><ele>123.0</ele><time>2026-04-10T13:43:17Z</time></trkpt><trkpt lat="43.90183918216546" lon="11.189137898293906"><ele>122.5</ele><time>2026-04-10T13:43:18Z</time></trkpt><trkpt lat="43.90159145404141" lon="11.189124697901644"><ele>122.0</ele><time>2026-04-10T13:43:19Z</time></trkpt><trkpt lat="43.90133794180736" lon="11.189090844843472"><ele>122.0</ele><time>2026-04-10T13:43:20Z</time></trkpt><trkpt lat="43.90110062279212" lon="11.189041736049568"><ele>122.0</ele><time>2026-04-10T13:43:21Z</time></trkpt><trkpt lat="43.90088390312705" lon="11.188998784601791"><ele>121.66666666666666</ele><time>2026-04-10T13:43:22Z</time></trkpt><trkpt lat="43.90067238426697" lon="11.188945675361994"><ele>121.33333333333334</ele><time>2026-04-10T13:43:23Z</time></trkpt><trkpt lat="43.90047977156015" lon="11.18885372601356"><ele>121.0</ele><time>2026-04-10T13:43:24Z</time></trkpt><trkpt lat="43.90030092853353" lon="11.188729222579255"><ele>121.0</ele><time>2026-04-10T13:43:25Z</time></trkpt><trkpt lat="43.90013077417782" lon="11.188582630938347"><ele>121.0</ele><time>2026-04-10T13:43:26Z</time></trkpt><trkpt lat="43.89995769478357" lon="11.188462668093562"><ele>121.0</ele><time>2026-04-10T13:43:27Z</time></trkpt><trkpt lat="43.89977839938421" lon="11.18836946191735"><ele>120.66666666666667</ele><time>2026-04-10T13:43:28Z</time></trkpt><trkpt lat="43.899596543260515" lon="11.188293801888342"><ele>120.33333333333334</ele><time>2026-04-10T13:43:29Z</time></trkpt><trkpt lat="43.89941883075667" lon="11.188232865025235"><ele>120.0</ele><time>2026-04-10T13:43:30Z</time></trkpt><trkpt lat="43.89938971356855" lon="11.188008987688374"><ele>119.6</ele><time>2026-04-10T13:43:31Z</time></trkpt><trkpt lat="43.8992831382941" lon="11.187922581058254"><ele>119.2</ele><time>2026-04-10T13:43:32Z</time></trkpt><trkpt lat="43.899170983730244" lon="11.187872024984625"><ele>118.80000000000001</ele><time>2026-04-10T13:43:33Z</time></trkpt><trkpt lat="43.89907029415952" lon="11.187834478314507"><ele>118.4</ele><time>2026-04-10T13:43:34Z</time></trkpt><trkpt lat="43.89899325584608" lon="11.187770840307305"><ele>118.0</ele><time>2026-04-10T13:43:35Z</time></trkpt><trkpt lat="43.898932822897365" lon="11.18770135949763"><ele>117.60000000000001</ele><time>2026-04-10T13:43:36Z</time></trkpt><trkpt lat="43.89885860552203" lon="11.187699818138997"><ele>117.20000000000002</ele><time>2026-04-10T13:43:37Z</time></trkpt><trkpt lat="43.898790294086034" lon="11.187752208628648"><ele>116.8</ele><time>2026-04-10T13:43:38Z</time></trkpt><trkpt lat="43.898725742583636" lon="11.187856994924168"><ele>116.4</ele><time>2026-04-10T13:43:39Z</time></trkpt><trkpt lat="43.89865735969547" lon="11.187998410690993"><ele>116.0</ele><time>2026-04-10T13:43:40Z</time></trkpt><trkpt lat="43.89855650339376" lon="11.18812759294269"><ele>118.33333333333333</ele><time>2026-04-10T13:43:41Z</time></trkpt><trkpt lat="43.89841222899381" lon="11.188237800093207"><ele>120.66666666666666</ele><time>2026-04-10T13:43:42Z</time></trkpt><trkpt lat="43.898244541027296" lon="11.188299134592327"><ele>123.0</ele><time>2026-04-10T13:43:43Z</time></trkpt><trkpt lat="43.89805123751649" lon="11.188321218869882"><ele>123.0</ele><time>2026-04-10T13:43:44Z</time></trkpt><trkpt lat="43.897850742153324" lon="11.188311744305553"><ele>123.0</ele><time>2026-04-10T13:43:45Z</time></trkpt><trkpt lat="43.89741877417721" lon="11.18823254574253"><ele>120.5</ele><time>2026-04-10T13:43:47Z</time></trkpt><trkpt lat="43.897187269225874" lon="11.188180954517655"><ele>118.0</ele><time>2026-04-10T13:43:48Z</time></trkpt><trkpt lat="43.89695669420781" lon="11.188128649501818"><ele>119.5</ele><time>2026-04-10T13:43:49Z</time></trkpt><trkpt lat="43.89673169642873" lon="11.188078413674276"><ele>121.0</ele><time>2026-04-10T13:43:50Z</time></trkpt><trkpt lat="43.89651148230106" lon="11.18801816659539"><ele>121.0</ele><time>2026-04-10T13:43:51Z</time></trkpt><trkpt lat="43.89629821517295" lon="11.187945472675088"><ele>121.0</ele><time>2026-04-10T13:43:52Z</time></trkpt><trkpt lat="43.89608724667446" lon="11.187855891577676"><ele>121.0</ele><time>2026-04-10T13:43:53Z</time></trkpt><trkpt lat="43.89588793195403" lon="11.187753350008862"><ele>123.33333333333334</ele><time>2026-04-10T13:43:54Z</time></trkpt><trkpt lat="43.89569081039157" lon="11.187629393305865"><ele>125.66666666666666</ele><time>2026-04-10T13:43:55Z</time></trkpt><trkpt lat="43.89549620059584" lon="11.187494583553617"><ele>128.0</ele><time>2026-04-10T13:43:56Z</time></trkpt><trkpt lat="43.895301502705586" lon="11.187358395860869"><ele>128.0</ele><time>2026-04-10T13:43:57Z</time></trkpt><trkpt lat="43.89511217020987" lon="11.18719982943985"><ele>128.0</ele><time>2026-04-10T13:43:58Z</time></trkpt><trkpt lat="43.89492317592699" lon="11.187025520082974"><ele>128.0</ele><time>2026-04-10T13:43:59Z</time></trkpt><trkpt lat="43.89474038689374" lon="11.186826701676688"><ele>128.0</ele><time>2026-04-10T13:44:00Z</time></trkpt><trkpt lat="43.89456034264946" lon="11.186614032364002"><ele>128.0</ele><time>2026-04-10T13:44:01Z</time></trkpt><trkpt lat="43.894392187365824" lon="11.186386538081535"><ele>125.0</ele><time>2026-04-10T13:44:02Z</time></trkpt><trkpt lat="43.89423200986043" lon="11.186143336687133"><ele>122.0</ele><time>2026-04-10T13:44:03Z</time></trkpt><trkpt lat="43.894072235032795" lon="11.185895842779178"><ele>118.0</ele><time>2026-04-10T13:44:04Z</time></trkpt><trkpt lat="43.89391887825195" lon="11.185648308763254"><ele>114.0</ele><time>2026-04-10T13:44:05Z</time></trkpt><trkpt lat="43.89377401955645" lon="11.1854191390332"><ele>114.0</ele><time>2026-04-10T13:44:06Z</time></trkpt><trkpt lat="43.89363353782346" lon="11.185205537408152"><ele>114.0</ele><time>2026-04-10T13:44:07Z</time></trkpt><trkpt lat="43.89349767190433" lon="11.184994944744776"><ele>114.0</ele><time>2026-04-10T13:44:08Z</time></trkpt><trkpt lat="43.89337197970423" lon="11.184791703970994"><ele>113.0</ele><time>2026-04-10T13:44:09Z</time></trkpt><trkpt lat="43.89324909765277" lon="11.184600883106727"><ele>112.0</ele><time>2026-04-10T13:44:10Z</time></trkpt><trkpt lat="43.89313723749617" lon="11.184419255010472"><ele>111.0</ele><time>2026-04-10T13:44:11Z</time></trkpt><trkpt lat="43.893033039501795" lon="11.184249812657399"><ele>111.0</ele><time>2026-04-10T13:44:12Z</time></trkpt><trkpt lat="43.89293422656698" lon="11.184097957914554"><ele>111.0</ele><time>2026-04-10T13:44:13Z</time></trkpt><trkpt lat="43.892836018079535" lon="11.183957385935686"><ele>111.0</ele><time>2026-04-10T13:44:14Z</time></trkpt><trkpt lat="43.89273224099461" lon="11.183825856819574"><ele>111.0</ele><time>2026-04-10T13:44:15Z</time></trkpt><trkpt lat="43.892635055478095" lon="11.183705780379192"><ele>110.8</ele><time>2026-04-10T13:44:16Z</time></trkpt><trkpt lat="43.892542508016696" lon="11.183605230119037"><ele>110.6</ele><time>2026-04-10T13:44:17Z</time></trkpt><trkpt lat="43.89246189083749" lon="11.183519468198366"><ele>110.4</ele><time>2026-04-10T13:44:18.001Z</time></trkpt><trkpt lat="43.89238302548654" lon="11.183452263214603"><ele>110.2</ele><time>2026-04-10T13:44:19.001Z</time></trkpt><trkpt lat="43.89230385729871" lon="11.183392871250094"><ele>110.0</ele><time>2026-04-10T13:44:20.001Z</time></trkpt><trkpt lat="43.892240314897336" lon="11.183324153936056"><ele>109.99999999999999</ele><time>2026-04-10T13:44:21.001Z</time></trkpt><trkpt lat="43.89219814457677" lon="11.183236430884106"><ele>110.0</ele><time>2026-04-10T13:44:22.001Z</time></trkpt><trkpt lat="43.8921442991421" lon="11.183169624216967"><ele>110.0</ele><time>2026-04-10T13:44:23.001Z</time></trkpt><trkpt lat="43.89206528087209" lon="11.183143236929494"><ele>110.0</ele><time>2026-04-10T13:44:24.001Z</time></trkpt><trkpt lat="43.8919689761962" lon="11.183130237884848"><ele>109.99999999999999</ele><time>2026-04-10T13:44:25.001Z</time></trkpt><trkpt lat="43.89186156736725" lon="11.183086718203565"><ele>110.0</ele><time>2026-04-10T13:44:26.001Z</time></trkpt><trkpt lat="43.89174868307143" lon="11.183007877517495"><ele>108.0</ele><time>2026-04-10T13:44:27.001Z</time></trkpt><trkpt lat="43.891610894676376" lon="11.182915363983732"><ele>106.0</ele><time>2026-04-10T13:44:28.001Z</time></trkpt><trkpt lat="43.89145588299881" lon="11.182834451843338"><ele>104.0</ele><time>2026-04-10T13:44:29.001Z</time></trkpt><trkpt lat="43.89126700568281" lon="11.182770570971421"><ele>104.0</ele><time>2026-04-10T13:44:30.001Z</time></trkpt><trkpt lat="43.89106154855975" lon="11.18270562224763"><ele>104.0</ele><time>2026-04-10T13:44:31.001Z</time></trkpt><trkpt lat="43.89085741725683" lon="11.182657670137402"><ele>104.0</ele><time>2026-04-10T13:44:32.001Z</time></trkpt><trkpt lat="43.8906561054027" lon="11.1826098045382"><ele>103.66666666666666</ele><time>2026-04-10T13:44:33.001Z</time></trkpt><trkpt lat="43.890443731711784" lon="11.182583223144212"><ele>103.33333333333334</ele><time>2026-04-10T13:44:34.001Z</time></trkpt><trkpt lat="43.890216557577816" lon="11.182563141833397"><ele>103.0</ele><time>2026-04-10T13:44:35.001Z</time></trkpt><trkpt lat="43.88997475415892" lon="11.18254326282868"><ele>102.0</ele><time>2026-04-10T13:44:36.001Z</time></trkpt><trkpt lat="43.889737231553845" lon="11.182520943031198"><ele>101.0</ele><time>2026-04-10T13:44:37.001Z</time></trkpt><trkpt lat="43.8895166621294" lon="11.18252155231149"><ele>101.0</ele><time>2026-04-10T13:44:38.001Z</time></trkpt><trkpt lat="43.88931893828791" lon="11.18248173080758"><ele>101.0</ele><time>2026-04-10T13:44:39.001Z</time></trkpt><trkpt lat="43.889137221323146" lon="11.182464799365286"><ele>101.0</ele><time>2026-04-10T13:44:40.001Z</time></trkpt><trkpt lat="43.88896028411862" lon="11.182449983639863"><ele>101.66666666666666</ele><time>2026-04-10T13:44:41.001Z</time></trkpt><trkpt lat="43.888801120415835" lon="11.182458456282191"><ele>102.33333333333334</ele><time>2026-04-10T13:44:42.001Z</time></trkpt><trkpt lat="43.888650967171216" lon="11.182418033862064"><ele>103.0</ele><time>2026-04-10T13:44:43.001Z</time></trkpt><trkpt lat="43.88851351150145" lon="11.182393793391213"><ele>102.75</ele><time>2026-04-10T13:44:44.001Z</time></trkpt><trkpt lat="43.88838899738693" lon="11.182363892046606"><ele>102.5</ele><time>2026-04-10T13:44:45.001Z</time></trkpt><trkpt lat="43.88826371191946" lon="11.18233250141258"><ele>102.25</ele><time>2026-04-10T13:44:46.001Z</time></trkpt><trkpt lat="43.88811688875746" lon="11.182295629529431"><ele>102.0</ele><time>2026-04-10T13:44:47.001Z</time></trkpt><trkpt lat="43.88794362322651" lon="11.182252117142516"><ele>99.33333333333333</ele><time>2026-04-10T13:44:48.001Z</time></trkpt><trkpt lat="43.88776096458552" lon="11.182209451546644"><ele>96.66666666666666</ele><time>2026-04-10T13:44:49.001Z</time></trkpt><trkpt lat="43.88756987781755" lon="11.182188154643244"><ele>94.0</ele><time>2026-04-10T13:44:50.001Z</time></trkpt><trkpt lat="43.88740338582989" lon="11.182130342359073"><ele>94.0</ele><time>2026-04-10T13:44:51Z</time></trkpt><trkpt lat="43.887247211349475" lon="11.182096177374182"><ele>94.0</ele><time>2026-04-10T13:44:52Z</time></trkpt><trkpt lat="43.887099969769785" lon="11.182063688628359"><ele>94.0</ele><time>2026-04-10T13:44:53Z</time></trkpt><trkpt lat="43.886948301121244" lon="11.18202478025443"><ele>94.0</ele><time>2026-04-10T13:44:54Z</time></trkpt><trkpt lat="43.88679828631456" lon="11.18196817828254"><ele>94.0</ele><time>2026-04-10T13:44:55Z</time></trkpt><trkpt lat="43.88665517822097" lon="11.181880684840337"><ele>94.0</ele><time>2026-04-10T13:44:56Z</time></trkpt><trkpt lat="43.88650522170295" lon="11.181777846247925"><ele>94.0</ele><time>2026-04-10T13:44:57Z</time></trkpt><trkpt lat="43.886352831918416" lon="11.18168868471818"><ele>94.0</ele><time>2026-04-10T13:44:58Z</time></trkpt><trkpt lat="43.88621340122565" lon="11.181590193885786"><ele>94.0</ele><time>2026-04-10T13:44:59Z</time></trkpt><trkpt lat="43.88606851583139" lon="11.181465469938406"><ele>93.0</ele><time>2026-04-10T13:45:00Z</time></trkpt><trkpt lat="43.88590099986881" lon="11.181354192731904"><ele>92.0</ele><time>2026-04-10T13:45:01Z</time></trkpt><trkpt lat="43.88571435905554" lon="11.181268809181221"><ele>91.0</ele><time>2026-04-10T13:45:02Z</time></trkpt><trkpt lat="43.88552146118224" lon="11.18117620839895"><ele>91.0</ele><time>2026-04-10T13:45:03Z</time></trkpt><trkpt lat="43.88531551649607" lon="11.181076542324593"><ele>91.0</ele><time>2026-04-10T13:45:04Z</time></trkpt><trkpt lat="43.88508917146133" lon="11.181008057913353"><ele>91.0</ele><time>2026-04-10T13:45:05Z</time></trkpt><trkpt lat="43.88488321773827" lon="11.180986618850167"><ele>91.0</ele><time>2026-04-10T13:45:06Z</time></trkpt><trkpt lat="43.88468291105343" lon="11.180957579874205"><ele>91.0</ele><time>2026-04-10T13:45:07Z</time></trkpt><trkpt lat="43.88449071319147" lon="11.180946225354294"><ele>91.0</ele><time>2026-04-10T13:45:08Z</time></trkpt><trkpt lat="43.88430819461562" lon="11.180909221741999"><ele>91.0</ele><time>2026-04-10T13:45:09Z</time></trkpt><trkpt lat="43.884142344330236" lon="11.18089355497462"><ele>91.0</ele><time>2026-04-10T13:45:10Z</time></trkpt><trkpt lat="43.88399490503622" lon="11.18087890481371"><ele>91.0</ele><time>2026-04-10T13:45:11Z</time></trkpt><trkpt lat="43.88386553828778" lon="11.180879430632624"><ele>91.0</ele><time>2026-04-10T13:45:12Z</time></trkpt><trkpt lat="43.88374547039317" lon="11.180824359194272"><ele>91.0</ele><time>2026-04-10T13:45:13Z</time></trkpt><trkpt lat="43.88364614094976" lon="11.180731742381232"><ele>91.0</ele><time>2026-04-10T13:45:14Z</time></trkpt><trkpt lat="43.88355352514596" lon="11.180662594927709"><ele>91.0</ele><time>2026-04-10T13:45:15Z</time></trkpt><trkpt lat="43.8834420594805" lon="11.180664620511745"><ele>91.0</ele><time>2026-04-10T13:45:16Z</time></trkpt><trkpt lat="43.88333209261169" lon="11.180747697315827"><ele>91.0</ele><time>2026-04-10T13:45:17Z</time></trkpt><trkpt lat="43.88319186773631" lon="11.180689046492255"><ele>91.0</ele><time>2026-04-10T13:45:18Z</time></trkpt><trkpt lat="43.88305162763602" lon="11.180623332739636"><ele>91.0</ele><time>2026-04-10T13:45:19Z</time></trkpt><trkpt lat="43.88287558952736" lon="11.180564755053846"><ele>91.0</ele><time>2026-04-10T13:45:20Z</time></trkpt><trkpt lat="43.882713521429906" lon="11.180482832371924"><ele>91.0</ele><time>2026-04-10T13:45:21Z</time></trkpt><trkpt lat="43.882563946341875" lon="11.180411033355162"><ele>91.0</ele><time>2026-04-10T13:45:22Z</time></trkpt><trkpt lat="43.882419459176404" lon="11.180355973283922"><ele>91.0</ele><time>2026-04-10T13:45:23Z</time></trkpt><trkpt lat="43.8822740850962" lon="11.180313748419847"><ele>91.0</ele><time>2026-04-10T13:45:24Z</time></trkpt><trkpt lat="43.8821428431144" lon="11.180271982493215"><ele>91.0</ele><time>2026-04-10T13:45:25Z</time></trkpt><trkpt lat="43.88202797219375" lon="11.180219953655497"><ele>91.0</ele><time>2026-04-10T13:45:26Z</time></trkpt><trkpt lat="43.88192109956097" lon="11.18016780084916"><ele>91.0</ele><time>2026-04-10T13:45:27Z</time></trkpt><trkpt lat="43.88182064582999" lon="11.180121060044714"><ele>91.0</ele><time>2026-04-10T13:45:28Z</time></trkpt><trkpt lat="43.88172940128249" lon="11.180102097764383"><ele>91.0</ele><time>2026-04-10T13:45:29Z</time></trkpt><trkpt lat="43.881649972147514" lon="11.180143715312227"><ele>91.0</ele><time>2026-04-10T13:45:30Z</time></trkpt><trkpt lat="43.88157252539566" lon="11.180247013404179"><ele>90.0</ele><time>2026-04-10T13:45:31Z</time></trkpt><trkpt lat="43.88147597644221" lon="11.180382060744646"><ele>89.0</ele><time>2026-04-10T13:45:32Z</time></trkpt><trkpt lat="43.88136966355284" lon="11.180516925833494"><ele>88.0</ele><time>2026-04-10T13:45:33Z</time></trkpt><trkpt lat="43.881185767313646" lon="11.180496236877728"><ele>88.0</ele><time>2026-04-10T13:45:34Z</time></trkpt><trkpt lat="43.881009664544905" lon="11.180473551566909"><ele>88.0</ele><time>2026-04-10T13:45:35Z</time></trkpt><trkpt lat="43.88082395925531" lon="11.18042049088057"><ele>88.0</ele><time>2026-04-10T13:45:36Z</time></trkpt><trkpt lat="43.88065039166554" lon="11.180338894304672"><ele>87.66666666666666</ele><time>2026-04-10T13:45:37Z</time></trkpt><trkpt lat="43.88049661308673" lon="11.180235850938034"><ele>87.33333333333333</ele><time>2026-04-10T13:45:38Z</time></trkpt><trkpt lat="43.88034622521785" lon="11.18010754926291"><ele>87.0</ele><time>2026-04-10T13:45:39Z</time></trkpt><trkpt lat="43.880204581661694" lon="11.179951875167891"><ele>87.0</ele><time>2026-04-10T13:45:40Z</time></trkpt><trkpt lat="43.88007428040998" lon="11.179770117356275"><ele>87.0</ele><time>2026-04-10T13:45:41Z</time></trkpt><trkpt lat="43.87995322055682" lon="11.179552175184694"><ele>87.0</ele><time>2026-04-10T13:45:42Z</time></trkpt><trkpt lat="43.87983528136181" lon="11.179313036017465"><ele>87.0</ele><time>2026-04-10T13:45:43Z</time></trkpt><trkpt lat="43.87970861139301" lon="11.179075535661324"><ele>87.0</ele><time>2026-04-10T13:45:44Z</time></trkpt><trkpt lat="43.87958955870961" lon="11.178812447175062"><ele>87.0</ele><time>2026-04-10T13:45:45Z</time></trkpt><trkpt lat="43.879476996168975" lon="11.178536892216693"><ele>86.0</ele><time>2026-04-10T13:45:46Z</time></trkpt><trkpt lat="43.8793511310573" lon="11.17827998798373"><ele>85.0</ele><time>2026-04-10T13:45:47Z</time></trkpt><trkpt lat="43.87921505688038" lon="11.178060880160945"><ele>84.0</ele><time>2026-04-10T13:45:48Z</time></trkpt><trkpt lat="43.879098041502225" lon="11.177840328473014"><ele>84.0</ele><time>2026-04-10T13:45:49Z</time></trkpt><trkpt lat="43.878958802655546" lon="11.17762075214413"><ele>84.0</ele><time>2026-04-10T13:45:50Z</time></trkpt><trkpt lat="43.87882763686728" lon="11.177377606284796"><ele>84.0</ele><time>2026-04-10T13:45:51Z</time></trkpt><trkpt lat="43.87867109981367" lon="11.177139396606641"><ele>84.5</ele><time>2026-04-10T13:45:52Z</time></trkpt><trkpt lat="43.87850508232502" lon="11.176919789502346"><ele>85.0</ele><time>2026-04-10T13:45:53Z</time></trkpt><trkpt lat="43.87834398563166" lon="11.176685900888781"><ele>83.5</ele><time>2026-04-10T13:45:54Z</time></trkpt><trkpt lat="43.87817040291852" lon="11.176472569551297"><ele>82.0</ele><time>2026-04-10T13:45:55Z</time></trkpt><trkpt lat="43.877997268806126" lon="11.17628234476788"><ele>82.0</ele><time>2026-04-10T13:45:56Z</time></trkpt><trkpt lat="43.87781913575804" lon="11.176107646132063"><ele>82.0</ele><time>2026-04-10T13:45:57Z</time></trkpt><trkpt lat="43.87762417130215" lon="11.17594349791988"><ele>82.0</ele><time>2026-04-10T13:45:58Z</time></trkpt><trkpt lat="43.877425590922726" lon="11.175783386734025"><ele>81.5</ele><time>2026-04-10T13:45:59Z</time></trkpt><trkpt lat="43.87722570165675" lon="11.17561203007698"><ele>81.0</ele><time>2026-04-10T13:46:00Z</time></trkpt><trkpt lat="43.87702593780589" lon="11.175439005104538"><ele>81.0</ele><time>2026-04-10T13:46:01Z</time></trkpt><trkpt lat="43.87682219212866" lon="11.17526153342706"><ele>81.0</ele><time>2026-04-10T13:46:02Z</time></trkpt><trkpt lat="43.87662013578412" lon="11.17508539307865"><ele>80.5</ele><time>2026-04-10T13:46:03Z</time></trkpt><trkpt lat="43.87640818646242" lon="11.174905199732791"><ele>80.0</ele><time>2026-04-10T13:46:04Z</time></trkpt><trkpt lat="43.876196481125945" lon="11.174721846069687"><ele>80.0</ele><time>2026-04-10T13:46:05Z</time></trkpt><trkpt lat="43.875994095607986" lon="11.17454099634983"><ele>80.0</ele><time>2026-04-10T13:46:06Z</time></trkpt><trkpt lat="43.87579778814791" lon="11.17435594906444"><ele>80.5</ele><time>2026-04-10T13:46:07Z</time></trkpt><trkpt lat="43.875601853170565" lon="11.174166962803003"><ele>81.0</ele><time>2026-04-10T13:46:08Z</time></trkpt><trkpt lat="43.875404558194205" lon="11.173966631306149"><ele>82.0</ele><time>2026-04-10T13:46:09Z</time></trkpt><trkpt lat="43.875208126803905" lon="11.173760170011413"><ele>83.0</ele><time>2026-04-10T13:46:10Z</time></trkpt><trkpt lat="43.875000784099825" lon="11.173557552444345"><ele>83.0</ele><time>2026-04-10T13:46:11Z</time></trkpt><trkpt lat="43.8747878447303" lon="11.173375203040623"><ele>83.0</ele><time>2026-04-10T13:46:12Z</time></trkpt><trkpt lat="43.874568919623194" lon="11.173213013610045"><ele>81.0</ele><time>2026-04-10T13:46:13Z</time></trkpt><trkpt lat="43.87434387410602" lon="11.173051957147859"><ele>79.0</ele><time>2026-04-10T13:46:14Z</time></trkpt><trkpt lat="43.87412459595017" lon="11.172888815216057"><ele>79.0</ele><time>2026-04-10T13:46:15Z</time></trkpt><trkpt lat="43.8738971760336" lon="11.172735144424335"><ele>79.0</ele><time>2026-04-10T13:46:16Z</time></trkpt><trkpt lat="43.87368029831646" lon="11.172570149312762"><ele>77.0</ele><time>2026-04-10T13:46:17Z</time></trkpt><trkpt lat="43.87347748044817" lon="11.172352259432454"><ele>75.0</ele><time>2026-04-10T13:46:18Z</time></trkpt><trkpt lat="43.87330990111635" lon="11.172088738070078"><ele>75.0</ele><time>2026-04-10T13:46:19Z</time></trkpt><trkpt lat="43.8731304551381" lon="11.171824684618072"><ele>75.0</ele><time>2026-04-10T13:46:20Z</time></trkpt><trkpt lat="43.87297675816635" lon="11.171563877348479"><ele>74.66666666666667</ele><time>2026-04-10T13:46:21Z</time></trkpt><trkpt lat="43.87282279277204" lon="11.171317500297535"><ele>74.33333333333334</ele><time>2026-04-10T13:46:22Z</time></trkpt><trkpt lat="43.8726793147195" lon="11.171098624049293"><ele>74.0</ele><time>2026-04-10T13:46:23Z</time></trkpt><trkpt lat="43.872547415811866" lon="11.170900707456793"><ele>73.66666666666667</ele><time>2026-04-10T13:46:24Z</time></trkpt><trkpt lat="43.87243343976905" lon="11.170721982828251"><ele>73.33333333333333</ele><time>2026-04-10T13:46:25Z</time></trkpt><trkpt lat="43.87233150531711" lon="11.170562901645926"><ele>73.0</ele><time>2026-04-10T13:46:26Z</time></trkpt><trkpt lat="43.87224335682428" lon="11.170424003427684"><ele>73.0</ele><time>2026-04-10T13:46:27Z</time></trkpt><trkpt lat="43.87216533966186" lon="11.170302316443347"><ele>73.0</ele><time>2026-04-10T13:46:28Z</time></trkpt><trkpt lat="43.872099441302765" lon="11.170191124127907"><ele>73.0</ele><time>2026-04-10T13:46:29Z</time></trkpt><trkpt lat="43.87205371676065" lon="11.170072962385738"><ele>73.0</ele><time>2026-04-10T13:46:30Z</time></trkpt><trkpt lat="43.87205686436002" lon="11.169930560750279"><ele>73.0</ele><time>2026-04-10T13:46:31Z</time></trkpt><trkpt lat="43.872026826702054" lon="11.169795394252034"><ele>72.8</ele><time>2026-04-10T13:46:32Z</time></trkpt><trkpt lat="43.871914663491275" lon="11.169690246749687"><ele>72.6</ele><time>2026-04-10T13:46:34Z</time></trkpt><trkpt lat="43.871846849266255" lon="11.169699473553242"><ele>72.4</ele><time>2026-04-10T13:46:35Z</time></trkpt><trkpt lat="43.871781935599444" lon="11.16975970708829"><ele>72.2</ele><time>2026-04-10T13:46:36Z</time></trkpt><trkpt lat="43.871743931006776" lon="11.169856842705721"><ele>72.0</ele><time>2026-04-10T13:46:37Z</time></trkpt><trkpt lat="43.87172745177275" lon="11.169988581902778"><ele>73.75</ele><time>2026-04-10T13:46:38Z</time></trkpt><trkpt lat="43.871725660306126" lon="11.170150501123405"><ele>75.5</ele><time>2026-04-10T13:46:39Z</time></trkpt><trkpt lat="43.871685593639725" lon="11.17028550918974"><ele>77.25</ele><time>2026-04-10T13:46:40Z</time></trkpt><trkpt lat="43.871616561149686" lon="11.170440085986316"><ele>79.0</ele><time>2026-04-10T13:46:41Z</time></trkpt><trkpt lat="43.871529744796106" lon="11.170614502137784"><ele>79.0</ele><time>2026-04-10T13:46:42Z</time></trkpt><trkpt lat="43.87141436745148" lon="11.170809767786075"><ele>79.0</ele><time>2026-04-10T13:46:43Z</time></trkpt><trkpt lat="43.87128704565493" lon="11.171025871707762"><ele>79.0</ele><time>2026-04-10T13:46:44Z</time></trkpt><trkpt lat="43.871155172570596" lon="11.171246864445157"><ele>79.0</ele><time>2026-04-10T13:46:45Z</time></trkpt><trkpt lat="43.87099186917104" lon="11.171457838294833"><ele>79.0</ele><time>2026-04-10T13:46:46Z</time></trkpt><trkpt lat="43.870839551193676" lon="11.171699890478331"><ele>83.0</ele><time>2026-04-10T13:46:47Z</time></trkpt><trkpt lat="43.87066109379517" lon="11.17192548205522"><ele>87.0</ele><time>2026-04-10T13:46:48Z</time></trkpt><trkpt lat="43.87048002597379" lon="11.172131511178398"><ele>87.0</ele><time>2026-04-10T13:46:49Z</time></trkpt><trkpt lat="43.870294078415604" lon="11.172330094834054"><ele>87.0</ele><time>2026-04-10T13:46:50Z</time></trkpt><trkpt lat="43.87010231807163" lon="11.172520127884564"><ele>94.0</ele><time>2026-04-10T13:46:51Z</time></trkpt><trkpt lat="43.869901387167815" lon="11.172706834687943"><ele>101.0</ele><time>2026-04-10T13:46:52Z</time></trkpt><trkpt lat="43.86968740699365" lon="11.172882586456154"><ele>101.0</ele><time>2026-04-10T13:46:53Z</time></trkpt><trkpt lat="43.86946160117432" lon="11.173048289676402"><ele>101.0</ele><time>2026-04-10T13:46:54Z</time></trkpt><trkpt lat="43.8692129187186" lon="11.173183335528273"><ele>113.0</ele><time>2026-04-10T13:46:55Z</time></trkpt><trkpt lat="43.8689561088817" lon="11.173330070461708"><ele>125.0</ele><time>2026-04-10T13:46:56Z</time></trkpt><trkpt lat="43.868700473337334" lon="11.173476133763904"><ele>128.0</ele><time>2026-04-10T13:46:57Z</time></trkpt><trkpt lat="43.86842942130176" lon="11.173631005921216"><ele>131.0</ele><time>2026-04-10T13:46:58.067Z</time></trkpt><trkpt lat="43.86817383894349" lon="11.173777039015746"><ele>91.0</ele><time>2026-04-10T13:46:59.074Z</time></trkpt><trkpt lat="43.86627544111068" lon="11.17488683023594"><ele>91.0</ele><time>2026-04-10T13:47:03.651Z</time></trkpt><trkpt lat="43.8659695" lon="11.175062"><ele>91.0</ele><time>2026-04-10T13:47:04.651Z</time></trkpt><trkpt lat="43.86548395241043" lon="11.175605545008105"><ele>89.0</ele><time>2026-04-10T13:47:11Z</time></trkpt><trkpt lat="43.865288638645744" lon="11.175671087480733"><ele>87.0</ele><time>2026-04-10T13:47:12Z</time></trkpt><trkpt lat="43.865041259332806" lon="11.175690353319862"><ele>85.0</ele><time>2026-04-10T13:47:13Z</time></trkpt><trkpt lat="43.864892113537834" lon="11.17576801259581"><ele>85.0</ele><time>2026-04-10T13:47:14Z</time></trkpt><trkpt lat="43.864695612811495" lon="11.175817531065194"><ele>85.0</ele><time>2026-04-10T13:47:15Z</time></trkpt><trkpt lat="43.86447635875044" lon="11.17589530748539"><ele>85.0</ele><time>2026-04-10T13:47:16Z</time></trkpt><trkpt lat="43.864274366337376" lon="11.175962294177072"><ele>84.0</ele><time>2026-04-10T13:47:17Z</time></trkpt><trkpt lat="43.864104257418376" lon="11.176032915097213"><ele>83.0</ele><time>2026-04-10T13:47:18Z</time></trkpt><trkpt lat="43.86395315775322" lon="11.176093569836416"><ele>82.0</ele><time>2026-04-10T13:47:19Z</time></trkpt><trkpt lat="43.86380753615077" lon="11.176152182507264"><ele>82.0</ele><time>2026-04-10T13:47:20Z</time></trkpt><trkpt lat="43.86366409403831" lon="11.176199756321797"><ele>82.0</ele><time>2026-04-10T13:47:21Z</time></trkpt><trkpt lat="43.86352149321213" lon="11.17620957528528"><ele>82.0</ele><time>2026-04-10T13:47:22Z</time></trkpt><trkpt lat="43.86344509814838" lon="11.176255826654799"><ele>82.0</ele><time>2026-04-10T13:47:23Z</time></trkpt><trkpt lat="43.863346708339996" lon="11.176252691323342"><ele>81.5</ele><time>2026-04-10T13:47:24Z</time></trkpt><trkpt lat="43.86325955006626" lon="11.176226385157282"><ele>81.0</ele><time>2026-04-10T13:47:25Z</time></trkpt><trkpt lat="43.86318645971259" lon="11.176193429123567"><ele>80.5</ele><time>2026-04-10T13:47:26Z</time></trkpt><trkpt lat="43.86313071563597" lon="11.176130543436273"><ele>80.0</ele><time>2026-04-10T13:47:27Z</time></trkpt><trkpt lat="43.86303659835658" lon="11.176031051715926"><ele>79.5</ele><time>2026-04-10T13:47:29Z</time></trkpt><trkpt lat="43.86298469083761" lon="11.175981388840906"><ele>79.0</ele><time>2026-04-10T13:47:30Z</time></trkpt><trkpt lat="43.8629191482202" lon="11.175984244125278"><ele>79.0</ele><time>2026-04-10T13:47:31Z</time></trkpt><trkpt lat="43.86282517683197" lon="11.176041848558896"><ele>79.0</ele><time>2026-04-10T13:47:33Z</time></trkpt><trkpt lat="43.862761369128826" lon="11.176159299367148"><ele>79.0</ele><time>2026-04-10T13:47:35Z</time></trkpt><trkpt lat="43.86282843634262" lon="11.176281212607776"><ele>79.0</ele><time>2026-04-10T13:47:36Z</time></trkpt><trkpt lat="43.86286016845496" lon="11.176376446790204"><ele>79.0</ele><time>2026-04-10T13:47:37Z</time></trkpt><trkpt lat="43.86288796018496" lon="11.176477955565536"><ele>79.0</ele><time>2026-04-10T13:47:38Z</time></trkpt><trkpt lat="43.86283952052878" lon="11.176624509437957"><ele>79.0</ele><time>2026-04-10T13:47:39Z</time></trkpt><trkpt lat="43.862832464269104" lon="11.176792259562259"><ele>79.0</ele><time>2026-04-10T13:47:40Z</time></trkpt><trkpt lat="43.862821512112816" lon="11.176985937451905"><ele>79.0</ele><time>2026-04-10T13:47:41Z</time></trkpt><trkpt lat="43.86281160415552" lon="11.177145741011481"><ele>79.0</ele><time>2026-04-10T13:47:42Z</time></trkpt><trkpt lat="43.862800186128325" lon="11.177298302332874"><ele>79.0</ele><time>2026-04-10T13:47:43Z</time></trkpt><trkpt lat="43.86278141497046" lon="11.177427129201082"><ele>79.0</ele><time>2026-04-10T13:47:44Z</time></trkpt><trkpt lat="43.86275143708217" lon="11.177514013352255"><ele>79.0</ele><time>2026-04-10T13:47:45Z</time></trkpt><trkpt lat="43.86270073769858" lon="11.17761746701014"><ele>79.0</ele><time>2026-04-10T13:47:46Z</time></trkpt><trkpt lat="43.86264447665582" lon="11.177689762350715"><ele>79.0</ele><time>2026-04-10T13:47:47Z</time></trkpt><trkpt lat="43.86257979925944" lon="11.177776062420712"><ele>79.0</ele><time>2026-04-10T13:47:48Z</time></trkpt><trkpt lat="43.862498045845115" lon="11.177836687282163"><ele>79.0</ele><time>2026-04-10T13:47:49Z</time></trkpt><trkpt lat="43.862403232159345" lon="11.177877939815689"><ele>79.0</ele><time>2026-04-10T13:47:50Z</time></trkpt><trkpt lat="43.86230899207781" lon="11.177941832620593"><ele>79.0</ele><time>2026-04-10T13:47:51Z</time></trkpt><trkpt lat="43.86220692055733" lon="11.178010985048541"><ele>79.0</ele><time>2026-04-10T13:47:52Z</time></trkpt><trkpt lat="43.86210523483181" lon="11.178079876017794"><ele>79.0</ele><time>2026-04-10T13:47:53Z</time></trkpt><trkpt lat="43.862030528263446" lon="11.178130488845694"><ele>79.0</ele><time>2026-04-10T13:47:54Z</time></trkpt><trkpt lat="43.861912340838316" lon="11.178209803721591"><ele>79.0</ele><time>2026-04-10T13:47:55Z</time></trkpt><trkpt lat="43.861787226001546" lon="11.178290027993636"><ele>79.0</ele><time>2026-04-10T13:47:56Z</time></trkpt><trkpt lat="43.86165287537367" lon="11.17835679957116"><ele>80.0</ele><time>2026-04-10T13:47:57Z</time></trkpt><trkpt lat="43.8615033823272" lon="11.17840244837044"><ele>81.0</ele><time>2026-04-10T13:47:58Z</time></trkpt><trkpt lat="43.861334119714506" lon="11.17843486786082"><ele>82.0</ele><time>2026-04-10T13:47:59Z</time></trkpt><trkpt lat="43.86115496263878" lon="11.178480767228693"><ele>82.0</ele><time>2026-04-10T13:48:00Z</time></trkpt><trkpt lat="43.8609729263307" lon="11.1785065312426"><ele>82.0</ele><time>2026-04-10T13:48:01Z</time></trkpt><trkpt lat="43.86078129077085" lon="11.178535198827717"><ele>82.0</ele><time>2026-04-10T13:48:02Z</time></trkpt><trkpt lat="43.86058989755662" lon="11.178557826424381"><ele>82.0</ele><time>2026-04-10T13:48:03Z</time></trkpt><trkpt lat="43.86040547203818" lon="11.178599209715616"><ele>82.0</ele><time>2026-04-10T13:48:04Z</time></trkpt><trkpt lat="43.86021540674381" lon="11.17865288067683"><ele>82.0</ele><time>2026-04-10T13:48:05Z</time></trkpt><trkpt lat="43.860020788179845" lon="11.178709358817875"><ele>81.66666666666666</ele><time>2026-04-10T13:48:06Z</time></trkpt><trkpt lat="43.859828663219346" lon="11.178763552752882"><ele>81.33333333333333</ele><time>2026-04-10T13:48:07Z</time></trkpt><trkpt lat="43.859647571916504" lon="11.178819779099802"><ele>81.0</ele><time>2026-04-10T13:48:08Z</time></trkpt><trkpt lat="43.859479236235835" lon="11.178865253342678"><ele>81.0</ele><time>2026-04-10T13:48:09Z</time></trkpt><trkpt lat="43.85931471542675" lon="11.178917215565972"><ele>81.0</ele><time>2026-04-10T13:48:10Z</time></trkpt><trkpt lat="43.85915919949664" lon="11.178967202369765"><ele>81.0</ele><time>2026-04-10T13:48:11Z</time></trkpt><trkpt lat="43.85901828084147" lon="11.179003055451213"><ele>81.0</ele><time>2026-04-10T13:48:12Z</time></trkpt><trkpt lat="43.858887161783294" lon="11.179012137484117"><ele>81.0</ele><time>2026-04-10T13:48:13Z</time></trkpt><trkpt lat="43.85876140017579" lon="11.178986577941794"><ele>81.0</ele><time>2026-04-10T13:48:14Z</time></trkpt><trkpt lat="43.858652027483316" lon="11.178898385176918"><ele>81.0</ele><time>2026-04-10T13:48:15Z</time></trkpt><trkpt lat="43.85854778108864" lon="11.178772195886097"><ele>80.0</ele><time>2026-04-10T13:48:16Z</time></trkpt><trkpt lat="43.85844817294166" lon="11.178596025424305"><ele>79.0</ele><time>2026-04-10T13:48:17Z</time></trkpt><trkpt lat="43.85837516960001" lon="11.178400780485479"><ele>78.0</ele><time>2026-04-10T13:48:18Z</time></trkpt><trkpt lat="43.85830826359576" lon="11.178225594486447"><ele>77.75</ele><time>2026-04-10T13:48:19Z</time></trkpt><trkpt lat="43.85822751864466" lon="11.178073661798148"><ele>77.5</ele><time>2026-04-10T13:48:20Z</time></trkpt><trkpt lat="43.8581324548559" lon="11.177946817676526"><ele>77.25</ele><time>2026-04-10T13:48:21Z</time></trkpt><trkpt lat="43.8580168003493" lon="11.177851862835515"><ele>77.0</ele><time>2026-04-10T13:48:22Z</time></trkpt><trkpt lat="43.85788552642465" lon="11.177802312073705"><ele>77.0</ele><time>2026-04-10T13:48:23Z</time></trkpt><trkpt lat="43.85776149375787" lon="11.177809322218954"><ele>77.0</ele><time>2026-04-10T13:48:24Z</time></trkpt><trkpt lat="43.85764325771765" lon="11.177874265462654"><ele>77.0</ele><time>2026-04-10T13:48:25Z</time></trkpt><trkpt lat="43.85752143250601" lon="11.177980350233803"><ele>77.0</ele><time>2026-04-10T13:48:26Z</time></trkpt><trkpt lat="43.85741160032414" lon="11.178142592336648"><ele>76.75</ele><time>2026-04-10T13:48:27Z</time></trkpt><trkpt lat="43.85732975024883" lon="11.17829672467268"><ele>76.5</ele><time>2026-04-10T13:48:28Z</time></trkpt><trkpt lat="43.85724976856392" lon="11.178426777857325"><ele>76.25</ele><time>2026-04-10T13:48:29Z</time></trkpt><trkpt lat="43.85713965887641" lon="11.178526192765979"><ele>76.0</ele><time>2026-04-10T13:48:30Z</time></trkpt><trkpt lat="43.85700578242472" lon="11.178584198203163"><ele>76.0</ele><time>2026-04-10T13:48:31Z</time></trkpt><trkpt lat="43.85685662562786" lon="11.178635558825915"><ele>76.0</ele><time>2026-04-10T13:48:32Z</time></trkpt><trkpt lat="43.85670541383792" lon="11.17868896426212"><ele>76.0</ele><time>2026-04-10T13:48:33Z</time></trkpt><trkpt lat="43.85656071541321" lon="11.178750388708016"><ele>75.5</ele><time>2026-04-10T13:48:34Z</time></trkpt><trkpt lat="43.85643023352833" lon="11.178809509846824"><ele>75.0</ele><time>2026-04-10T13:48:35Z</time></trkpt><trkpt lat="43.856297945597944" lon="11.17887076728533"><ele>74.5</ele><time>2026-04-10T13:48:36Z</time></trkpt><trkpt lat="43.85616600816328" lon="11.178922649928584"><ele>74.0</ele><time>2026-04-10T13:48:37Z</time></trkpt><trkpt lat="43.85604169231288" lon="11.178962848983664"><ele>74.0</ele><time>2026-04-10T13:48:38Z</time></trkpt><trkpt lat="43.85592625922507" lon="11.1789960960778"><ele>74.0</ele><time>2026-04-10T13:48:39Z</time></trkpt><trkpt lat="43.85581616580648" lon="11.179014212109815"><ele>74.0</ele><time>2026-04-10T13:48:40Z</time></trkpt><trkpt lat="43.855705667768454" lon="11.179024264570067"><ele>74.0</ele><time>2026-04-10T13:48:41Z</time></trkpt><trkpt lat="43.8556035941859" lon="11.179011023161642"><ele>74.0</ele><time>2026-04-10T13:48:42Z</time></trkpt><trkpt lat="43.85549530958367" lon="11.178962769509274"><ele>74.0</ele><time>2026-04-10T13:48:43Z</time></trkpt><trkpt lat="43.85538620130921" lon="11.178990755572835"><ele>74.0</ele><time>2026-04-10T13:48:44Z</time></trkpt><trkpt lat="43.855278708526576" lon="11.178986973905847"><ele>74.0</ele><time>2026-04-10T13:48:45Z</time></trkpt><trkpt lat="43.85517754835936" lon="11.179000235957485"><ele>74.0</ele><time>2026-04-10T13:48:46Z</time></trkpt><trkpt lat="43.855082182738975" lon="11.179011990003318"><ele>74.0</ele><time>2026-04-10T13:48:47Z</time></trkpt><trkpt lat="43.854985492721745" lon="11.179029152649125"><ele>73.75</ele><time>2026-04-10T13:48:48Z</time></trkpt><trkpt lat="43.85487791088199" lon="11.179062614778042"><ele>73.5</ele><time>2026-04-10T13:48:49Z</time></trkpt><trkpt lat="43.85476033857357" lon="11.179138010627456"><ele>73.25</ele><time>2026-04-10T13:48:50Z</time></trkpt><trkpt lat="43.854629528554" lon="11.17916641804048"><ele>73.0</ele><time>2026-04-10T13:48:51Z</time></trkpt><trkpt lat="43.85448119349191" lon="11.179182073334852"><ele>73.0</ele><time>2026-04-10T13:48:52Z</time></trkpt><trkpt lat="43.85431612183327" lon="11.179194618033117"><ele>73.0</ele><time>2026-04-10T13:48:53Z</time></trkpt><trkpt lat="43.854136992601745" lon="11.179198303308063"><ele>73.0</ele><time>2026-04-10T13:48:54Z</time></trkpt><trkpt lat="43.85396400665292" lon="11.17920672915889"><ele>73.0</ele><time>2026-04-10T13:48:55Z</time></trkpt><trkpt lat="43.8538018403444" lon="11.179224030836146"><ele>73.0</ele><time>2026-04-10T13:48:56Z</time></trkpt><trkpt lat="43.85365030766411" lon="11.179244083606779"><ele>73.0</ele><time>2026-04-10T13:48:57Z</time></trkpt><trkpt lat="43.85350038656816" lon="11.179269316264984"><ele>72.0</ele><time>2026-04-10T13:48:58Z</time></trkpt><trkpt lat="43.85336168186531" lon="11.179286744542404"><ele>71.0</ele><time>2026-04-10T13:48:59Z</time></trkpt><trkpt lat="43.85322250578989" lon="11.179297816510351"><ele>70.0</ele><time>2026-04-10T13:49:00Z</time></trkpt><trkpt lat="43.853091311826944" lon="11.179316849251158"><ele>69.0</ele><time>2026-04-10T13:49:01Z</time></trkpt><trkpt lat="43.85296835626387" lon="11.179325183367284"><ele>69.0</ele><time>2026-04-10T13:49:02Z</time></trkpt><trkpt lat="43.85285077138994" lon="11.179347061475054"><ele>69.0</ele><time>2026-04-10T13:49:03Z</time></trkpt><trkpt lat="43.85274022001186" lon="11.17935670831358"><ele>69.0</ele><time>2026-04-10T13:49:04Z</time></trkpt><trkpt lat="43.852636300412044" lon="11.179373774433962"><ele>69.0</ele><time>2026-04-10T13:49:05Z</time></trkpt><trkpt lat="43.85253640584033" lon="11.179383994668706"><ele>69.0</ele><time>2026-04-10T13:49:06Z</time></trkpt><trkpt lat="43.852439805691105" lon="11.179394475014298"><ele>68.60000000000001</ele><time>2026-04-10T13:49:07Z</time></trkpt><trkpt lat="43.852347126101066" lon="11.179401733293133"><ele>68.2</ele><time>2026-04-10T13:49:08Z</time></trkpt><trkpt lat="43.8522563326592" lon="11.1793930425194"><ele>67.80000000000001</ele><time>2026-04-10T13:49:09Z</time></trkpt><trkpt lat="43.85216340821171" lon="11.179404101703458"><ele>67.4</ele><time>2026-04-10T13:49:10Z</time></trkpt><trkpt lat="43.85207193138277" lon="11.179414988580675"><ele>67.0</ele><time>2026-04-10T13:49:11Z</time></trkpt><trkpt lat="43.85198253419043" lon="11.179425629855189"><ele>67.0</ele><time>2026-04-10T13:49:12Z</time></trkpt><trkpt lat="43.85189665721245" lon="11.179435850141074"><ele>67.0</ele><time>2026-04-10T13:49:13Z</time></trkpt><trkpt lat="43.85180907669038" lon="11.179447622888897"><ele>67.0</ele><time>2026-04-10T13:49:14Z</time></trkpt><trkpt lat="43.85171487848298" lon="11.179459713701174"><ele>67.0</ele><time>2026-04-10T13:49:15Z</time></trkpt><trkpt lat="43.85161555449023" lon="11.17947246243503"><ele>67.0</ele><time>2026-04-10T13:49:16Z</time></trkpt><trkpt lat="43.851510499464815" lon="11.179485946636852"><ele>66.6</ele><time>2026-04-10T13:49:17Z</time></trkpt><trkpt lat="43.851405762595945" lon="11.179499201783496"><ele>66.2</ele><time>2026-04-10T13:49:18Z</time></trkpt><trkpt lat="43.85129606761752" lon="11.179513541740317"><ele>65.8</ele><time>2026-04-10T13:49:19Z</time></trkpt><trkpt lat="43.85118879908058" lon="11.179527624375654"><ele>65.4</ele><time>2026-04-10T13:49:20Z</time></trkpt><trkpt lat="43.85108776857199" lon="11.179540768323161"><ele>65.0</ele><time>2026-04-10T13:49:21Z</time></trkpt><trkpt lat="43.85098980717434" lon="11.179553242566193"><ele>64.2</ele><time>2026-04-10T13:49:22Z</time></trkpt><trkpt lat="43.85089426350531" lon="11.179565408945338"><ele>63.4</ele><time>2026-04-10T13:49:23Z</time></trkpt><trkpt lat="43.850788194248956" lon="11.179578915479302"><ele>62.599999999999994</ele><time>2026-04-10T13:49:24Z</time></trkpt><trkpt lat="43.850681413839446" lon="11.179592294841905"><ele>61.8</ele><time>2026-04-10T13:49:25Z</time></trkpt><trkpt lat="43.85058157195155" lon="11.179604620511578"><ele>61.0</ele><time>2026-04-10T13:49:26Z</time></trkpt><trkpt lat="43.85048321236079" lon="11.179616723735366"><ele>60.99999999999999</ele><time>2026-04-10T13:49:27Z</time></trkpt><trkpt lat="43.850390252966044" lon="11.17962816247042"><ele>61.0</ele><time>2026-04-10T13:49:28Z</time></trkpt><trkpt lat="43.85030532707099" lon="11.179658215419275"><ele>61.0</ele><time>2026-04-10T13:49:29Z</time></trkpt><trkpt lat="43.85021869570097" lon="11.179662890648054"><ele>61.0</ele><time>2026-04-10T13:49:30Z</time></trkpt><trkpt lat="43.85013802263824" lon="11.179672022941045"><ele>60.99999999999999</ele><time>2026-04-10T13:49:31Z</time></trkpt><trkpt lat="43.850054906998714" lon="11.179670473286265"><ele>61.0</ele><time>2026-04-10T13:49:32Z</time></trkpt><trkpt lat="43.84998127965951" lon="11.179642652558721"><ele>60.199999999999996</ele><time>2026-04-10T13:49:33Z</time></trkpt><trkpt lat="43.8499067894796" lon="11.179591673021815"><ele>59.39999999999999</ele><time>2026-04-10T13:49:34Z</time></trkpt><trkpt lat="43.849842132869206" lon="11.17949268755243"><ele>58.6</ele><time>2026-04-10T13:49:35Z</time></trkpt><trkpt lat="43.84976420590308" lon="11.179434645367943"><ele>57.8</ele><time>2026-04-10T13:49:36Z</time></trkpt><trkpt lat="43.84966627153691" lon="11.179446004042504"><ele>57.0</ele><time>2026-04-10T13:49:37Z</time></trkpt><trkpt lat="43.84957748963381" lon="11.179530462567511"><ele>57.0</ele><time>2026-04-10T13:49:38Z</time></trkpt><trkpt lat="43.84950908921048" lon="11.179658005807283"><ele>57.0</ele><time>2026-04-10T13:49:39Z</time></trkpt><trkpt lat="43.84942110974582" lon="11.17975379951964"><ele>57.0</ele><time>2026-04-10T13:49:40Z</time></trkpt><trkpt lat="43.8493412394328" lon="11.179862235900213"><ele>57.0</ele><time>2026-04-10T13:49:41Z</time></trkpt><trkpt lat="43.84917902652704" lon="11.17977013439291"><ele>56.8</ele><time>2026-04-10T13:49:42Z</time></trkpt><trkpt lat="43.849061490687696" lon="11.179802314413326"><ele>56.6</ele><time>2026-04-10T13:49:43Z</time></trkpt><trkpt lat="43.84895679317064" lon="11.179814174055803"><ele>56.39999999999999</ele><time>2026-04-10T13:49:44Z</time></trkpt><trkpt lat="43.848857617993446" lon="11.179803113973316"><ele>56.199999999999996</ele><time>2026-04-10T13:49:45Z</time></trkpt><trkpt lat="43.848756029848246" lon="11.179834171085114"><ele>56.0</ele><time>2026-04-10T13:49:46Z</time></trkpt><trkpt lat="43.848618937561035" lon="11.179845048529165"><ele>56.0</ele><time>2026-04-10T13:49:47Z</time></trkpt><trkpt lat="43.84845965337301" lon="11.17984094420036"><ele>56.0</ele><time>2026-04-10T13:49:48Z</time></trkpt><trkpt lat="43.84829538287227" lon="11.179860187497768"><ele>56.0</ele><time>2026-04-10T13:49:49Z</time></trkpt><trkpt lat="43.848122012569114" lon="11.179880830172973"><ele>55.66666666666667</ele><time>2026-04-10T13:49:50Z</time></trkpt><trkpt lat="43.847953885828325" lon="11.179920219451201"><ele>55.33333333333333</ele><time>2026-04-10T13:49:51Z</time></trkpt><trkpt lat="43.84778182011025" lon="11.179937095028556"><ele>55.0</ele><time>2026-04-10T13:49:52Z</time></trkpt><trkpt lat="43.84761753974284" lon="11.179956921500537"><ele>55.0</ele><time>2026-04-10T13:49:53Z</time></trkpt><trkpt lat="43.84745773457726" lon="11.179978799148628"><ele>55.0</ele><time>2026-04-10T13:49:54Z</time></trkpt><trkpt lat="43.84729755321658" lon="11.179996406972839"><ele>55.0</ele><time>2026-04-10T13:49:55Z</time></trkpt><trkpt lat="43.84714335896381" lon="11.18001799732525"><ele>55.0</ele><time>2026-04-10T13:49:56Z</time></trkpt><trkpt lat="43.84699453877429" lon="11.18003660348511"><ele>55.0</ele><time>2026-04-10T13:49:57Z</time></trkpt><trkpt lat="43.84685948657936" lon="11.180051759586819"><ele>55.0</ele><time>2026-04-10T13:49:58Z</time></trkpt><trkpt lat="43.846739415808095" lon="11.180045106722462"><ele>55.0</ele><time>2026-04-10T13:49:59Z</time></trkpt><trkpt lat="43.84665165030568" lon="11.180073760584314"><ele>54.75</ele><time>2026-04-10T13:50:00Z</time></trkpt><trkpt lat="43.8465344774864" lon="11.1800921693492"><ele>54.5</ele><time>2026-04-10T13:50:02Z</time></trkpt><trkpt lat="43.846410695583586" lon="11.18012663235426"><ele>54.25</ele><time>2026-04-10T13:50:04Z</time></trkpt><trkpt lat="43.8463189728465" lon="11.180146086244678"><ele>54.0</ele><time>2026-04-10T13:50:05Z</time></trkpt><trkpt lat="43.846204899784404" lon="11.180153746808164"><ele>54.0</ele><time>2026-04-10T13:50:06Z</time></trkpt><trkpt lat="43.846087659131875" lon="11.180159299777662"><ele>54.0</ele><time>2026-04-10T13:50:07Z</time></trkpt><trkpt lat="43.84596072088822" lon="11.180167588556133"><ele>54.0</ele><time>2026-04-10T13:50:08Z</time></trkpt><trkpt lat="43.84584469102616" lon="11.180182282132515"><ele>54.0</ele><time>2026-04-10T13:50:09Z</time></trkpt><trkpt lat="43.84574146746115" lon="11.180199789266526"><ele>53.800000000000004</ele><time>2026-04-10T13:50:10Z</time></trkpt><trkpt lat="43.845644765239484" lon="11.1802170660784"><ele>53.60000000000001</ele><time>2026-04-10T13:50:11Z</time></trkpt><trkpt lat="43.84553731032317" lon="11.180244402053187"><ele>53.4</ele><time>2026-04-10T13:50:12Z</time></trkpt><trkpt lat="43.84542537258566" lon="11.180229557071645"><ele>53.2</ele><time>2026-04-10T13:50:13Z</time></trkpt><trkpt lat="43.84532831191157" lon="11.180248127218224"><ele>53.0</ele><time>2026-04-10T13:50:14Z</time></trkpt><trkpt lat="43.845239829943345" lon="11.180266195419591"><ele>53.00000000000001</ele><time>2026-04-10T13:50:15Z</time></trkpt><trkpt lat="43.84515909156949" lon="11.180285846551666"><ele>53.0</ele><time>2026-04-10T13:50:16Z</time></trkpt><trkpt lat="43.8450959482054" lon="11.180315518456876"><ele>53.0</ele><time>2026-04-10T13:50:17Z</time></trkpt><trkpt lat="43.845030405186556" lon="11.180289564630112"><ele>53.0</ele><time>2026-04-10T13:50:20Z</time></trkpt><trkpt lat="43.84494943802542" lon="11.180211237592744"><ele>53.00000000000001</ele><time>2026-04-10T13:50:23Z</time></trkpt><trkpt lat="43.84488022343835" lon="11.180154776637828"><ele>53.0</ele><time>2026-04-10T13:50:24Z</time></trkpt><trkpt lat="43.844795259863126" lon="11.180144017462435"><ele>52.8</ele><time>2026-04-10T13:50:25Z</time></trkpt><trkpt lat="43.844717463457165" lon="11.180215977198698"><ele>52.599999999999994</ele><time>2026-04-10T13:50:26Z</time></trkpt><trkpt lat="43.84464328425989" lon="11.180332881976286"><ele>52.400000000000006</ele><time>2026-04-10T13:50:27Z</time></trkpt><trkpt lat="43.84456447160966" lon="11.18045880252901"><ele>52.2</ele><time>2026-04-10T13:50:28Z</time></trkpt><trkpt lat="43.84449843433302" lon="11.180568483708527"><ele>52.0</ele><time>2026-04-10T13:50:29Z</time></trkpt><trkpt lat="43.844432368798685" lon="11.18066481362958"><ele>51.83333333333333</ele><time>2026-04-10T13:50:30Z</time></trkpt><trkpt lat="43.84435977721857" lon="11.180741156487194"><ele>51.666666666666664</ele><time>2026-04-10T13:50:31Z</time></trkpt><trkpt lat="43.84428475212974" lon="11.180760143174565"><ele>51.5</ele><time>2026-04-10T13:50:32Z</time></trkpt><trkpt lat="43.84420274377364" lon="11.180774229264223"><ele>51.33333333333333</ele><time>2026-04-10T13:50:33Z</time></trkpt><trkpt lat="43.84412055003349" lon="11.180733750019938"><ele>51.166666666666664</ele><time>2026-04-10T13:50:34Z</time></trkpt><trkpt lat="43.844049205011586" lon="11.18070792109235"><ele>51.0</ele><time>2026-04-10T13:50:35Z</time></trkpt><trkpt lat="43.843940314498596" lon="11.180690857696746"><ele>51.0</ele><time>2026-04-10T13:50:36Z</time></trkpt><trkpt lat="43.843873059680185" lon="11.180757939142865"><ele>51.0</ele><time>2026-04-10T13:50:37Z</time></trkpt><trkpt lat="43.84381845652537" lon="11.180880000975574"><ele>51.0</ele><time>2026-04-10T13:50:38Z</time></trkpt><trkpt lat="43.8438277959895" lon="11.181033336305836"><ele>51.0</ele><time>2026-04-10T13:50:39Z</time></trkpt><trkpt lat="43.84384896224816" lon="11.181194181659157"><ele>51.0</ele><time>2026-04-10T13:50:40Z</time></trkpt><trkpt lat="43.84388865549681" lon="11.181363853174073"><ele>51.0</ele><time>2026-04-10T13:50:41Z</time></trkpt><trkpt lat="43.84391104529255" lon="11.181514617240415"><ele>51.0</ele><time>2026-04-10T13:50:42Z</time></trkpt><trkpt lat="43.843895842101524" lon="11.181679531472783"><ele>51.0</ele><time>2026-04-10T13:50:43Z</time></trkpt><trkpt lat="43.84382345892194" lon="11.181840350781574"><ele>51.0</ele><time>2026-04-10T13:50:44Z</time></trkpt><trkpt lat="43.84373128405908" lon="11.182016625471922"><ele>51.0</ele><time>2026-04-10T13:50:45Z</time></trkpt><trkpt lat="43.84366373973248" lon="11.18218830880968"><ele>51.0</ele><time>2026-04-10T13:50:46Z</time></trkpt><trkpt lat="43.84358755980993" lon="11.182332778074008"><ele>51.0</ele><time>2026-04-10T13:50:47Z</time></trkpt><trkpt lat="43.8435219288231" lon="11.182481329879476"><ele>51.0</ele><time>2026-04-10T13:50:48Z</time></trkpt><trkpt lat="43.843459888513806" lon="11.182627739421653"><ele>51.0</ele><time>2026-04-10T13:50:49Z</time></trkpt><trkpt lat="43.84340068487145" lon="11.182778491971861"><ele>51.0</ele><time>2026-04-10T13:50:50Z</time></trkpt><trkpt lat="43.84333497277339" lon="11.182920242918748"><ele>51.0</ele><time>2026-04-10T13:50:51Z</time></trkpt><trkpt lat="43.84327303446772" lon="11.183073922583118"><ele>51.0</ele><time>2026-04-10T13:50:52Z</time></trkpt><trkpt lat="43.8432186827934" lon="11.18321242203035"><ele>51.0</ele><time>2026-04-10T13:50:53Z</time></trkpt><trkpt lat="43.84316433100822" lon="11.183337280103062"><ele>51.0</ele><time>2026-04-10T13:50:54Z</time></trkpt><trkpt lat="43.84312082203368" lon="11.183433184384219"><ele>51.0</ele><time>2026-04-10T13:50:55Z</time></trkpt><trkpt lat="43.84307578454178" lon="11.183550499055782"><ele>51.0</ele><time>2026-04-10T13:50:56Z</time></trkpt><trkpt lat="43.843040533203784" lon="11.18363294996122"><ele>51.0</ele><time>2026-04-10T13:50:57Z</time></trkpt><trkpt lat="43.8429843651641" lon="11.183755981784135"><ele>51.0</ele><time>2026-04-10T13:50:59Z</time></trkpt><trkpt lat="43.84294114002191" lon="11.183842070302935"><ele>51.0</ele><time>2026-04-10T13:51:01Z</time></trkpt><trkpt lat="43.842872890944" lon="11.183885132117233"><ele>51.0</ele><time>2026-04-10T13:51:03Z</time></trkpt><trkpt lat="43.84279297579095" lon="11.183841906385135"><ele>51.0</ele><time>2026-04-10T13:51:05Z</time></trkpt><trkpt lat="43.842693147729" lon="11.183743404661355"><ele>51.0</ele><time>2026-04-10T13:51:07Z</time></trkpt><trkpt lat="43.84263743180649" lon="11.183690182293244"><ele>51.0</ele><time>2026-04-10T13:51:08Z</time></trkpt><trkpt lat="43.84254108647671" lon="11.183601268639329"><ele>50.666666666666664</ele><time>2026-04-10T13:51:10Z</time></trkpt><trkpt lat="43.84245775884891" lon="11.183523874506857"><ele>50.33333333333333</ele><time>2026-04-10T13:51:12Z</time></trkpt><trkpt lat="43.8423575427392" lon="11.183451800973677"><ele>50.0</ele><time>2026-04-10T13:51:14Z</time></trkpt><trkpt lat="43.84228936905104" lon="11.183385620480466"><ele>49.666666666666664</ele><time>2026-04-10T13:51:16Z</time></trkpt><trkpt lat="43.842226530685096" lon="11.183345907868297"><ele>49.33333333333333</ele><time>2026-04-10T13:51:18Z</time></trkpt><trkpt lat="43.84217338528789" lon="11.18329185241793"><ele>49.0</ele><time>2026-04-10T13:51:20Z</time></trkpt><trkpt lat="43.842113242331244" lon="11.183473330415998"><ele>49.0</ele><time>2026-04-10T13:51:24Z</time></trkpt><trkpt lat="43.842109149965665" lon="11.183571948812634"><ele>49.0</ele><time>2026-04-10T13:51:26Z</time></trkpt><trkpt lat="43.842109149965665" lon="11.183571948812634"><ele>49.0</ele><time>2026-04-10T13:51:26Z</time></trkpt><trkpt lat="43.842109149965665" lon="11.183571948812634"><ele>49.0</ele><time>2026-04-10T13:51:26Z</time></trkpt><trkpt lat="43.842109149965665" lon="11.183571948812634"><ele>49.0</ele><time>2026-04-10T13:51:26Z</time></trkpt><trkpt lat="43.842109149965665" lon="11.183571948812634"><ele>49.0</ele><time>2026-04-10T13:51:26Z</time></trkpt><trkpt lat="43.842109149965665" lon="11.183571948812634"><ele>49.0</ele><time>2026-04-10T13:51:26Z</time></trkpt></trkseg></trk></gpx>